<?xml version="1.0" encoding="UTF-8" standalone="no" ?>
<gpx xmlns="http://www.topografix.com/GPX/1/1" xmlns:xsi="http://www.w3.org/2001/XMLSchema-instance" xsi:schemaLocation="http://www.topografix.com/GPX/1/1 http://www.topografix.com/GPX/1/1/gpx.xsd" version="1.1" creator="VisuGPX - https://www.visugpx.com">
  <metadata>
    <name>Ski Rando - Pic de Balbonne</name>
    <desc><![CDATA[Avec Patrick et Jean.
Très belle course !
Le fond de la vallée de Coume Grande est facile et permet un départ tranquille.
Arrivée au Col de l'Egue 2078m (qui donne accès à 3 vallons) le panorama est superbe !
L'arrivée au Pic de Balbonne via l'Etang des Llauses (Jasse de Seys) et l'arrête Sud se fait ski au pied.
Descente par le couloir Nord (42°) permet d'arriver non loin de l'Etang de l'Estagnet d'où l'on rejoint le Col de l'Egue par la Coume de de l'Estagnet pour descendre la vallée de le Grande Coume.]]></desc>
  </metadata>
  <trk>
    <name><![CDATA[31-MARS-14 16:36:23]]></name>
    <trkseg>
      <trkpt lat="42.71854" lon="1.93198">
        <ele>1351.27</ele>
        <time>2014-03-31T07:34:23Z</time>
      </trkpt>
      <trkpt lat="42.71855" lon="1.93197">
        <ele>1349.83</ele>
        <time>2014-03-31T07:34:50Z</time>
      </trkpt>
      <trkpt lat="42.71855" lon="1.93196">
        <ele>1349.35</ele>
        <time>2014-03-31T07:34:53Z</time>
      </trkpt>
      <trkpt lat="42.71856" lon="1.93197">
        <ele>1347.91</ele>
        <time>2014-03-31T07:35:11Z</time>
      </trkpt>
      <trkpt lat="42.71855" lon="1.93199">
        <ele>1342.14</ele>
        <time>2014-03-31T07:35:42Z</time>
      </trkpt>
      <trkpt lat="42.71854" lon="1.93197">
        <ele>1347.43</ele>
        <time>2014-03-31T07:36:17Z</time>
      </trkpt>
      <trkpt lat="42.71856" lon="1.93196">
        <ele>1345.5</ele>
        <time>2014-03-31T07:36:40Z</time>
      </trkpt>
      <trkpt lat="42.71856" lon="1.93198">
        <ele>1347.43</ele>
        <time>2014-03-31T07:37:08Z</time>
      </trkpt>
      <trkpt lat="42.71855" lon="1.93198">
        <ele>1350.31</ele>
        <time>2014-03-31T07:37:41Z</time>
      </trkpt>
      <trkpt lat="42.71857" lon="1.93198">
        <ele>1347.43</ele>
        <time>2014-03-31T07:38:18Z</time>
      </trkpt>
      <trkpt lat="42.71858" lon="1.93197">
        <ele>1344.54</ele>
        <time>2014-03-31T07:38:42Z</time>
      </trkpt>
      <trkpt lat="42.71856" lon="1.93198">
        <ele>1346.46</ele>
        <time>2014-03-31T07:39:16Z</time>
      </trkpt>
      <trkpt lat="42.71856" lon="1.93199">
        <ele>1347.91</ele>
        <time>2014-03-31T07:39:51Z</time>
      </trkpt>
      <trkpt lat="42.71856" lon="1.93196">
        <ele>1349.35</ele>
        <time>2014-03-31T07:40:01Z</time>
      </trkpt>
      <trkpt lat="42.71856" lon="1.93195">
        <ele>1348.87</ele>
        <time>2014-03-31T07:40:14Z</time>
      </trkpt>
      <trkpt lat="42.71856" lon="1.93195">
        <ele>1348.87</ele>
        <time>2014-03-31T07:40:29Z</time>
      </trkpt>
      <trkpt lat="42.71857" lon="1.93194">
        <ele>1346.94</ele>
        <time>2014-03-31T07:40:45Z</time>
      </trkpt>
      <trkpt lat="42.71856" lon="1.93195">
        <ele>1346.46</ele>
        <time>2014-03-31T07:40:57Z</time>
      </trkpt>
      <trkpt lat="42.71856" lon="1.93196">
        <ele>1346.46</ele>
        <time>2014-03-31T07:41:07Z</time>
      </trkpt>
      <trkpt lat="42.71857" lon="1.93198">
        <ele>1345.98</ele>
        <time>2014-03-31T07:41:15Z</time>
      </trkpt>
      <trkpt lat="42.71857" lon="1.93197">
        <ele>1346.94</ele>
        <time>2014-03-31T07:41:22Z</time>
      </trkpt>
      <trkpt lat="42.71853" lon="1.93194">
        <ele>1347.91</ele>
        <time>2014-03-31T07:41:37Z</time>
      </trkpt>
      <trkpt lat="42.71852" lon="1.93195">
        <ele>1347.91</ele>
        <time>2014-03-31T07:41:38Z</time>
      </trkpt>
      <trkpt lat="42.71848" lon="1.93196">
        <ele>1347.43</ele>
        <time>2014-03-31T07:41:41Z</time>
      </trkpt>
      <trkpt lat="42.71846" lon="1.93197">
        <ele>1347.43</ele>
        <time>2014-03-31T07:41:43Z</time>
      </trkpt>
      <trkpt lat="42.71843" lon="1.93198">
        <ele>1347.91</ele>
        <time>2014-03-31T07:41:46Z</time>
      </trkpt>
      <trkpt lat="42.7184" lon="1.93201">
        <ele>1347.91</ele>
        <time>2014-03-31T07:41:50Z</time>
      </trkpt>
      <trkpt lat="42.71834" lon="1.93204">
        <ele>1347.91</ele>
        <time>2014-03-31T07:41:58Z</time>
      </trkpt>
      <trkpt lat="42.71834" lon="1.93208">
        <ele>1347.43</ele>
        <time>2014-03-31T07:42:02Z</time>
      </trkpt>
      <trkpt lat="42.71832" lon="1.93212">
        <ele>1346.94</ele>
        <time>2014-03-31T07:42:05Z</time>
      </trkpt>
      <trkpt lat="42.7183" lon="1.93215">
        <ele>1346.46</ele>
        <time>2014-03-31T07:42:09Z</time>
      </trkpt>
      <trkpt lat="42.71824" lon="1.93219">
        <ele>1344.54</ele>
        <time>2014-03-31T07:42:16Z</time>
      </trkpt>
      <trkpt lat="42.71823" lon="1.93234">
        <ele>1340.7</ele>
        <time>2014-03-31T07:42:30Z</time>
      </trkpt>
      <trkpt lat="42.71823" lon="1.93237">
        <ele>1339.73</ele>
        <time>2014-03-31T07:42:33Z</time>
      </trkpt>
      <trkpt lat="42.71819" lon="1.93244">
        <ele>1336.37</ele>
        <time>2014-03-31T07:42:42Z</time>
      </trkpt>
      <trkpt lat="42.71811" lon="1.93248">
        <ele>1335.41</ele>
        <time>2014-03-31T07:42:54Z</time>
      </trkpt>
      <trkpt lat="42.71809" lon="1.93248">
        <ele>1335.89</ele>
        <time>2014-03-31T07:42:57Z</time>
      </trkpt>
      <trkpt lat="42.71808" lon="1.93251">
        <ele>1335.41</ele>
        <time>2014-03-31T07:42:59Z</time>
      </trkpt>
      <trkpt lat="42.71802" lon="1.93259">
        <ele>1333.01</ele>
        <time>2014-03-31T07:43:09Z</time>
      </trkpt>
      <trkpt lat="42.718" lon="1.93266">
        <ele>1333.01</ele>
        <time>2014-03-31T07:43:17Z</time>
      </trkpt>
      <trkpt lat="42.71793" lon="1.93277">
        <ele>1332.04</ele>
        <time>2014-03-31T07:43:33Z</time>
      </trkpt>
      <trkpt lat="42.71793" lon="1.93276">
        <ele>1332.04</ele>
        <time>2014-03-31T07:43:35Z</time>
      </trkpt>
      <trkpt lat="42.71787" lon="1.93281">
        <ele>1332.04</ele>
        <time>2014-03-31T07:43:47Z</time>
      </trkpt>
      <trkpt lat="42.71787" lon="1.93282">
        <ele>1332.52</ele>
        <time>2014-03-31T07:43:48Z</time>
      </trkpt>
      <trkpt lat="42.71783" lon="1.93283">
        <ele>1332.04</ele>
        <time>2014-03-31T07:44:00Z</time>
      </trkpt>
      <trkpt lat="42.71783" lon="1.93282">
        <ele>1332.52</ele>
        <time>2014-03-31T07:44:18Z</time>
      </trkpt>
      <trkpt lat="42.71782" lon="1.93285">
        <ele>1332.04</ele>
        <time>2014-03-31T07:44:32Z</time>
      </trkpt>
      <trkpt lat="42.71783" lon="1.93285">
        <ele>1330.12</ele>
        <time>2014-03-31T07:44:48Z</time>
      </trkpt>
      <trkpt lat="42.71784" lon="1.93286">
        <ele>1329.64</ele>
        <time>2014-03-31T07:45:05Z</time>
      </trkpt>
      <trkpt lat="42.71783" lon="1.93286">
        <ele>1329.64</ele>
        <time>2014-03-31T07:45:17Z</time>
      </trkpt>
      <trkpt lat="42.71782" lon="1.93293">
        <ele>1330.12</ele>
        <time>2014-03-31T07:45:24Z</time>
      </trkpt>
      <trkpt lat="42.7178" lon="1.93307">
        <ele>1330.6</ele>
        <time>2014-03-31T07:45:37Z</time>
      </trkpt>
      <trkpt lat="42.71777" lon="1.93321">
        <ele>1331.08</ele>
        <time>2014-03-31T07:45:52Z</time>
      </trkpt>
      <trkpt lat="42.71774" lon="1.93328">
        <ele>1331.56</ele>
        <time>2014-03-31T07:46:11Z</time>
      </trkpt>
      <trkpt lat="42.71769" lon="1.93339">
        <ele>1331.08</ele>
        <time>2014-03-31T07:46:26Z</time>
      </trkpt>
      <trkpt lat="42.71767" lon="1.9334">
        <ele>1330.6</ele>
        <time>2014-03-31T07:46:32Z</time>
      </trkpt>
      <trkpt lat="42.71759" lon="1.9335">
        <ele>1332.04</ele>
        <time>2014-03-31T07:46:46Z</time>
      </trkpt>
      <trkpt lat="42.71757" lon="1.93352">
        <ele>1332.04</ele>
        <time>2014-03-31T07:46:48Z</time>
      </trkpt>
      <trkpt lat="42.71748" lon="1.93364">
        <ele>1333.01</ele>
        <time>2014-03-31T07:47:03Z</time>
      </trkpt>
      <trkpt lat="42.71746" lon="1.93368">
        <ele>1332.52</ele>
        <time>2014-03-31T07:47:08Z</time>
      </trkpt>
      <trkpt lat="42.71746" lon="1.93379">
        <ele>1333.01</ele>
        <time>2014-03-31T07:47:20Z</time>
      </trkpt>
      <trkpt lat="42.71745" lon="1.93385">
        <ele>1333.97</ele>
        <time>2014-03-31T07:47:34Z</time>
      </trkpt>
      <trkpt lat="42.71742" lon="1.93396">
        <ele>1333.97</ele>
        <time>2014-03-31T07:47:48Z</time>
      </trkpt>
      <trkpt lat="42.7174" lon="1.93402">
        <ele>1333.97</ele>
        <time>2014-03-31T07:48:04Z</time>
      </trkpt>
      <trkpt lat="42.71738" lon="1.93413">
        <ele>1334.93</ele>
        <time>2014-03-31T07:48:17Z</time>
      </trkpt>
      <trkpt lat="42.71738" lon="1.93423">
        <ele>1337.33</ele>
        <time>2014-03-31T07:48:30Z</time>
      </trkpt>
      <trkpt lat="42.7174" lon="1.93432">
        <ele>1338.29</ele>
        <time>2014-03-31T07:48:37Z</time>
      </trkpt>
      <trkpt lat="42.7174" lon="1.93444">
        <ele>1339.73</ele>
        <time>2014-03-31T07:48:50Z</time>
      </trkpt>
      <trkpt lat="42.71742" lon="1.93452">
        <ele>1340.22</ele>
        <time>2014-03-31T07:48:57Z</time>
      </trkpt>
      <trkpt lat="42.71748" lon="1.93456">
        <ele>1340.7</ele>
        <time>2014-03-31T07:49:11Z</time>
      </trkpt>
      <trkpt lat="42.71749" lon="1.93459">
        <ele>1340.22</ele>
        <time>2014-03-31T07:49:24Z</time>
      </trkpt>
      <trkpt lat="42.71752" lon="1.93466">
        <ele>1339.73</ele>
        <time>2014-03-31T07:49:34Z</time>
      </trkpt>
      <trkpt lat="42.71752" lon="1.9347">
        <ele>1341.18</ele>
        <time>2014-03-31T07:49:38Z</time>
      </trkpt>
      <trkpt lat="42.71748" lon="1.93487">
        <ele>1342.14</ele>
        <time>2014-03-31T07:49:53Z</time>
      </trkpt>
      <trkpt lat="42.71738" lon="1.93503">
        <ele>1342.62</ele>
        <time>2014-03-31T07:50:07Z</time>
      </trkpt>
      <trkpt lat="42.71731" lon="1.93518">
        <ele>1343.1</ele>
        <time>2014-03-31T07:50:21Z</time>
      </trkpt>
      <trkpt lat="42.71726" lon="1.93525">
        <ele>1344.06</ele>
        <time>2014-03-31T07:50:33Z</time>
      </trkpt>
      <trkpt lat="42.71721" lon="1.9353">
        <ele>1345.02</ele>
        <time>2014-03-31T07:50:41Z</time>
      </trkpt>
      <trkpt lat="42.71715" lon="1.9354">
        <ele>1346.94</ele>
        <time>2014-03-31T07:50:54Z</time>
      </trkpt>
      <trkpt lat="42.71715" lon="1.93541">
        <ele>1347.43</ele>
        <time>2014-03-31T07:51:07Z</time>
      </trkpt>
      <trkpt lat="42.71714" lon="1.93542">
        <ele>1346.46</ele>
        <time>2014-03-31T07:51:20Z</time>
      </trkpt>
      <trkpt lat="42.71714" lon="1.93545">
        <ele>1345.98</ele>
        <time>2014-03-31T07:51:25Z</time>
      </trkpt>
      <trkpt lat="42.71715" lon="1.93549">
        <ele>1345.98</ele>
        <time>2014-03-31T07:51:36Z</time>
      </trkpt>
      <trkpt lat="42.71708" lon="1.93546">
        <ele>1347.91</ele>
        <time>2014-03-31T07:51:47Z</time>
      </trkpt>
      <trkpt lat="42.71706" lon="1.93545">
        <ele>1348.39</ele>
        <time>2014-03-31T07:51:50Z</time>
      </trkpt>
      <trkpt lat="42.71703" lon="1.93544">
        <ele>1348.39</ele>
        <time>2014-03-31T07:51:53Z</time>
      </trkpt>
      <trkpt lat="42.71696" lon="1.93538">
        <ele>1349.83</ele>
        <time>2014-03-31T07:52:06Z</time>
      </trkpt>
      <trkpt lat="42.71696" lon="1.9354">
        <ele>1348.87</ele>
        <time>2014-03-31T07:52:22Z</time>
      </trkpt>
      <trkpt lat="42.71695" lon="1.93539">
        <ele>1349.35</ele>
        <time>2014-03-31T07:52:37Z</time>
      </trkpt>
      <trkpt lat="42.71695" lon="1.93538">
        <ele>1347.91</ele>
        <time>2014-03-31T07:52:48Z</time>
      </trkpt>
      <trkpt lat="42.71694" lon="1.93536">
        <ele>1346.94</ele>
        <time>2014-03-31T07:53:01Z</time>
      </trkpt>
      <trkpt lat="42.71694" lon="1.93538">
        <ele>1346.94</ele>
        <time>2014-03-31T07:53:08Z</time>
      </trkpt>
      <trkpt lat="42.71684" lon="1.93551">
        <ele>1345.98</ele>
        <time>2014-03-31T07:53:20Z</time>
      </trkpt>
      <trkpt lat="42.71678" lon="1.93563">
        <ele>1347.91</ele>
        <time>2014-03-31T07:53:32Z</time>
      </trkpt>
      <trkpt lat="42.71677" lon="1.93565">
        <ele>1348.39</ele>
        <time>2014-03-31T07:53:34Z</time>
      </trkpt>
      <trkpt lat="42.71674" lon="1.93572">
        <ele>1349.83</ele>
        <time>2014-03-31T07:53:47Z</time>
      </trkpt>
      <trkpt lat="42.71669" lon="1.93579">
        <ele>1350.79</ele>
        <time>2014-03-31T07:54:04Z</time>
      </trkpt>
      <trkpt lat="42.71661" lon="1.9359">
        <ele>1351.75</ele>
        <time>2014-03-31T07:54:16Z</time>
      </trkpt>
      <trkpt lat="42.71655" lon="1.93599">
        <ele>1352.23</ele>
        <time>2014-03-31T07:54:28Z</time>
      </trkpt>
      <trkpt lat="42.71647" lon="1.93606">
        <ele>1352.71</ele>
        <time>2014-03-31T07:54:39Z</time>
      </trkpt>
      <trkpt lat="42.71644" lon="1.93612">
        <ele>1353.19</ele>
        <time>2014-03-31T07:54:45Z</time>
      </trkpt>
      <trkpt lat="42.71635" lon="1.93626">
        <ele>1354.63</ele>
        <time>2014-03-31T07:55:00Z</time>
      </trkpt>
      <trkpt lat="42.71631" lon="1.93634">
        <ele>1354.15</ele>
        <time>2014-03-31T07:55:08Z</time>
      </trkpt>
      <trkpt lat="42.71629" lon="1.93639">
        <ele>1353.19</ele>
        <time>2014-03-31T07:55:12Z</time>
      </trkpt>
      <trkpt lat="42.71626" lon="1.93646">
        <ele>1353.67</ele>
        <time>2014-03-31T07:55:19Z</time>
      </trkpt>
      <trkpt lat="42.71621" lon="1.93661">
        <ele>1353.67</ele>
        <time>2014-03-31T07:55:32Z</time>
      </trkpt>
      <trkpt lat="42.71614" lon="1.93679">
        <ele>1356.08</ele>
        <time>2014-03-31T07:55:47Z</time>
      </trkpt>
      <trkpt lat="42.71606" lon="1.93692">
        <ele>1356.56</ele>
        <time>2014-03-31T07:56:01Z</time>
      </trkpt>
      <trkpt lat="42.71603" lon="1.93702">
        <ele>1356.56</ele>
        <time>2014-03-31T07:56:08Z</time>
      </trkpt>
      <trkpt lat="42.71598" lon="1.93715">
        <ele>1358.48</ele>
        <time>2014-03-31T07:56:22Z</time>
      </trkpt>
      <trkpt lat="42.71592" lon="1.93726">
        <ele>1360.88</ele>
        <time>2014-03-31T07:56:34Z</time>
      </trkpt>
      <trkpt lat="42.71587" lon="1.93729">
        <ele>1359.44</ele>
        <time>2014-03-31T07:56:48Z</time>
      </trkpt>
      <trkpt lat="42.71587" lon="1.93729">
        <ele>1358.48</ele>
        <time>2014-03-31T07:57:04Z</time>
      </trkpt>
      <trkpt lat="42.71588" lon="1.93734">
        <ele>1358.48</ele>
        <time>2014-03-31T07:57:16Z</time>
      </trkpt>
      <trkpt lat="42.7158" lon="1.93744">
        <ele>1359.92</ele>
        <time>2014-03-31T07:57:27Z</time>
      </trkpt>
      <trkpt lat="42.71577" lon="1.93747">
        <ele>1360.88</ele>
        <time>2014-03-31T07:57:32Z</time>
      </trkpt>
      <trkpt lat="42.71575" lon="1.93751">
        <ele>1361.36</ele>
        <time>2014-03-31T07:57:35Z</time>
      </trkpt>
      <trkpt lat="42.71576" lon="1.93756">
        <ele>1362.33</ele>
        <time>2014-03-31T07:57:38Z</time>
      </trkpt>
      <trkpt lat="42.71572" lon="1.93763">
        <ele>1362.33</ele>
        <time>2014-03-31T07:57:44Z</time>
      </trkpt>
      <trkpt lat="42.7157" lon="1.93764">
        <ele>1361.36</ele>
        <time>2014-03-31T07:57:46Z</time>
      </trkpt>
      <trkpt lat="42.71568" lon="1.9377">
        <ele>1361.84</ele>
        <time>2014-03-31T07:57:51Z</time>
      </trkpt>
      <trkpt lat="42.71566" lon="1.93771">
        <ele>1361.36</ele>
        <time>2014-03-31T07:57:53Z</time>
      </trkpt>
      <trkpt lat="42.71561" lon="1.93775">
        <ele>1361.84</ele>
        <time>2014-03-31T07:57:59Z</time>
      </trkpt>
      <trkpt lat="42.7156" lon="1.93776">
        <ele>1361.84</ele>
        <time>2014-03-31T07:58:01Z</time>
      </trkpt>
      <trkpt lat="42.71556" lon="1.93785">
        <ele>1363.77</ele>
        <time>2014-03-31T07:58:13Z</time>
      </trkpt>
      <trkpt lat="42.71555" lon="1.93784">
        <ele>1362.81</ele>
        <time>2014-03-31T07:58:23Z</time>
      </trkpt>
      <trkpt lat="42.71555" lon="1.93786">
        <ele>1359.92</ele>
        <time>2014-03-31T07:58:34Z</time>
      </trkpt>
      <trkpt lat="42.71553" lon="1.93787">
        <ele>1359.44</ele>
        <time>2014-03-31T07:58:51Z</time>
      </trkpt>
      <trkpt lat="42.71551" lon="1.93787">
        <ele>1363.77</ele>
        <time>2014-03-31T07:59:11Z</time>
      </trkpt>
      <trkpt lat="42.71545" lon="1.93801">
        <ele>1365.21</ele>
        <time>2014-03-31T07:59:22Z</time>
      </trkpt>
      <trkpt lat="42.71543" lon="1.93802">
        <ele>1366.17</ele>
        <time>2014-03-31T07:59:34Z</time>
      </trkpt>
      <trkpt lat="42.71544" lon="1.93803">
        <ele>1362.33</ele>
        <time>2014-03-31T07:59:54Z</time>
      </trkpt>
      <trkpt lat="42.71541" lon="1.93804">
        <ele>1359.92</ele>
        <time>2014-03-31T08:00:22Z</time>
      </trkpt>
      <trkpt lat="42.7154" lon="1.93804">
        <ele>1358</ele>
        <time>2014-03-31T08:00:50Z</time>
      </trkpt>
      <trkpt lat="42.71542" lon="1.93804">
        <ele>1359.44</ele>
        <time>2014-03-31T08:01:03Z</time>
      </trkpt>
      <trkpt lat="42.7154" lon="1.93804">
        <ele>1359.92</ele>
        <time>2014-03-31T08:01:15Z</time>
      </trkpt>
      <trkpt lat="42.71539" lon="1.93808">
        <ele>1359.92</ele>
        <time>2014-03-31T08:01:29Z</time>
      </trkpt>
      <trkpt lat="42.71537" lon="1.93814">
        <ele>1361.36</ele>
        <time>2014-03-31T08:01:43Z</time>
      </trkpt>
      <trkpt lat="42.71537" lon="1.93816">
        <ele>1360.88</ele>
        <time>2014-03-31T08:01:53Z</time>
      </trkpt>
      <trkpt lat="42.71532" lon="1.93828">
        <ele>1361.36</ele>
        <time>2014-03-31T08:02:09Z</time>
      </trkpt>
      <trkpt lat="42.7153" lon="1.93835">
        <ele>1360.88</ele>
        <time>2014-03-31T08:02:15Z</time>
      </trkpt>
      <trkpt lat="42.71524" lon="1.93847">
        <ele>1362.33</ele>
        <time>2014-03-31T08:02:27Z</time>
      </trkpt>
      <trkpt lat="42.7152" lon="1.93853">
        <ele>1362.33</ele>
        <time>2014-03-31T08:02:33Z</time>
      </trkpt>
      <trkpt lat="42.71515" lon="1.93869">
        <ele>1362.33</ele>
        <time>2014-03-31T08:02:46Z</time>
      </trkpt>
      <trkpt lat="42.7151" lon="1.93885">
        <ele>1361.84</ele>
        <time>2014-03-31T08:03:00Z</time>
      </trkpt>
      <trkpt lat="42.71511" lon="1.93886">
        <ele>1361.36</ele>
        <time>2014-03-31T08:03:16Z</time>
      </trkpt>
      <trkpt lat="42.71509" lon="1.93887">
        <ele>1360.88</ele>
        <time>2014-03-31T08:03:25Z</time>
      </trkpt>
      <trkpt lat="42.71509" lon="1.93887">
        <ele>1360.4</ele>
        <time>2014-03-31T08:03:27Z</time>
      </trkpt>
      <trkpt lat="42.71509" lon="1.93892">
        <ele>1361.84</ele>
        <time>2014-03-31T08:03:38Z</time>
      </trkpt>
      <trkpt lat="42.71509" lon="1.93895">
        <ele>1362.33</ele>
        <time>2014-03-31T08:03:52Z</time>
      </trkpt>
      <trkpt lat="42.71507" lon="1.93896">
        <ele>1362.33</ele>
        <time>2014-03-31T08:04:02Z</time>
      </trkpt>
      <trkpt lat="42.71507" lon="1.939">
        <ele>1362.81</ele>
        <time>2014-03-31T08:04:10Z</time>
      </trkpt>
      <trkpt lat="42.71505" lon="1.93902">
        <ele>1362.81</ele>
        <time>2014-03-31T08:04:25Z</time>
      </trkpt>
      <trkpt lat="42.715" lon="1.93909">
        <ele>1362.33</ele>
        <time>2014-03-31T08:04:38Z</time>
      </trkpt>
      <trkpt lat="42.715" lon="1.93908">
        <ele>1361.84</ele>
        <time>2014-03-31T08:04:41Z</time>
      </trkpt>
      <trkpt lat="42.71498" lon="1.9391">
        <ele>1362.33</ele>
        <time>2014-03-31T08:04:45Z</time>
      </trkpt>
      <trkpt lat="42.71489" lon="1.93925">
        <ele>1363.77</ele>
        <time>2014-03-31T08:05:00Z</time>
      </trkpt>
      <trkpt lat="42.71482" lon="1.9394">
        <ele>1366.17</ele>
        <time>2014-03-31T08:05:13Z</time>
      </trkpt>
      <trkpt lat="42.71475" lon="1.93955">
        <ele>1367.13</ele>
        <time>2014-03-31T08:05:28Z</time>
      </trkpt>
      <trkpt lat="42.71469" lon="1.93969">
        <ele>1367.13</ele>
        <time>2014-03-31T08:05:42Z</time>
      </trkpt>
      <trkpt lat="42.71466" lon="1.93976">
        <ele>1367.13</ele>
        <time>2014-03-31T08:05:49Z</time>
      </trkpt>
      <trkpt lat="42.71462" lon="1.93989">
        <ele>1369.54</ele>
        <time>2014-03-31T08:06:02Z</time>
      </trkpt>
      <trkpt lat="42.71456" lon="1.94004">
        <ele>1370.98</ele>
        <time>2014-03-31T08:06:17Z</time>
      </trkpt>
      <trkpt lat="42.71453" lon="1.9402">
        <ele>1370.98</ele>
        <time>2014-03-31T08:06:31Z</time>
      </trkpt>
      <trkpt lat="42.71446" lon="1.94036">
        <ele>1374.34</ele>
        <time>2014-03-31T08:06:46Z</time>
      </trkpt>
      <trkpt lat="42.71445" lon="1.9404">
        <ele>1374.34</ele>
        <time>2014-03-31T08:06:50Z</time>
      </trkpt>
      <trkpt lat="42.71441" lon="1.94049">
        <ele>1374.82</ele>
        <time>2014-03-31T08:07:04Z</time>
      </trkpt>
      <trkpt lat="42.71437" lon="1.94053">
        <ele>1374.34</ele>
        <time>2014-03-31T08:07:13Z</time>
      </trkpt>
      <trkpt lat="42.71433" lon="1.94057">
        <ele>1374.82</ele>
        <time>2014-03-31T08:07:18Z</time>
      </trkpt>
      <trkpt lat="42.71424" lon="1.94069">
        <ele>1376.26</ele>
        <time>2014-03-31T08:07:31Z</time>
      </trkpt>
      <trkpt lat="42.7142" lon="1.94075">
        <ele>1376.75</ele>
        <time>2014-03-31T08:07:39Z</time>
      </trkpt>
      <trkpt lat="42.71411" lon="1.94088">
        <ele>1377.23</ele>
        <time>2014-03-31T08:07:53Z</time>
      </trkpt>
      <trkpt lat="42.71408" lon="1.9409">
        <ele>1377.71</ele>
        <time>2014-03-31T08:07:57Z</time>
      </trkpt>
      <trkpt lat="42.71404" lon="1.94095">
        <ele>1377.23</ele>
        <time>2014-03-31T08:08:06Z</time>
      </trkpt>
      <trkpt lat="42.71403" lon="1.94095">
        <ele>1377.71</ele>
        <time>2014-03-31T08:08:07Z</time>
      </trkpt>
      <trkpt lat="42.71398" lon="1.94099">
        <ele>1378.67</ele>
        <time>2014-03-31T08:08:18Z</time>
      </trkpt>
      <trkpt lat="42.71397" lon="1.94099">
        <ele>1378.67</ele>
        <time>2014-03-31T08:08:19Z</time>
      </trkpt>
      <trkpt lat="42.7139" lon="1.94101">
        <ele>1378.19</ele>
        <time>2014-03-31T08:08:27Z</time>
      </trkpt>
      <trkpt lat="42.71379" lon="1.94107">
        <ele>1379.63</ele>
        <time>2014-03-31T08:08:41Z</time>
      </trkpt>
      <trkpt lat="42.71377" lon="1.94109">
        <ele>1379.63</ele>
        <time>2014-03-31T08:08:44Z</time>
      </trkpt>
      <trkpt lat="42.71366" lon="1.94117">
        <ele>1380.59</ele>
        <time>2014-03-31T08:08:56Z</time>
      </trkpt>
      <trkpt lat="42.71357" lon="1.94128">
        <ele>1382.03</ele>
        <time>2014-03-31T08:09:09Z</time>
      </trkpt>
      <trkpt lat="42.71346" lon="1.9414">
        <ele>1382.99</ele>
        <time>2014-03-31T08:09:24Z</time>
      </trkpt>
      <trkpt lat="42.71341" lon="1.94144">
        <ele>1383.47</ele>
        <time>2014-03-31T08:09:31Z</time>
      </trkpt>
      <trkpt lat="42.71334" lon="1.94152">
        <ele>1384.44</ele>
        <time>2014-03-31T08:09:39Z</time>
      </trkpt>
      <trkpt lat="42.7133" lon="1.94156">
        <ele>1384.44</ele>
        <time>2014-03-31T08:09:43Z</time>
      </trkpt>
      <trkpt lat="42.71328" lon="1.94158">
        <ele>1384.44</ele>
        <time>2014-03-31T08:09:46Z</time>
      </trkpt>
      <trkpt lat="42.7132" lon="1.94163">
        <ele>1382.99</ele>
        <time>2014-03-31T08:09:54Z</time>
      </trkpt>
      <trkpt lat="42.71314" lon="1.94168">
        <ele>1382.51</ele>
        <time>2014-03-31T08:10:01Z</time>
      </trkpt>
      <trkpt lat="42.71311" lon="1.94173">
        <ele>1382.51</ele>
        <time>2014-03-31T08:10:05Z</time>
      </trkpt>
      <trkpt lat="42.71307" lon="1.94178">
        <ele>1383.47</ele>
        <time>2014-03-31T08:10:10Z</time>
      </trkpt>
      <trkpt lat="42.713" lon="1.94194">
        <ele>1383.96</ele>
        <time>2014-03-31T08:10:23Z</time>
      </trkpt>
      <trkpt lat="42.71291" lon="1.9421">
        <ele>1384.44</ele>
        <time>2014-03-31T08:10:37Z</time>
      </trkpt>
      <trkpt lat="42.7128" lon="1.94227">
        <ele>1383.96</ele>
        <time>2014-03-31T08:10:50Z</time>
      </trkpt>
      <trkpt lat="42.71272" lon="1.94236">
        <ele>1383.96</ele>
        <time>2014-03-31T08:11:04Z</time>
      </trkpt>
      <trkpt lat="42.71271" lon="1.94235">
        <ele>1382.03</ele>
        <time>2014-03-31T08:11:18Z</time>
      </trkpt>
      <trkpt lat="42.71272" lon="1.94239">
        <ele>1383.47</ele>
        <time>2014-03-31T08:11:29Z</time>
      </trkpt>
      <trkpt lat="42.71271" lon="1.94241">
        <ele>1383.47</ele>
        <time>2014-03-31T08:11:39Z</time>
      </trkpt>
      <trkpt lat="42.71268" lon="1.94245">
        <ele>1384.92</ele>
        <time>2014-03-31T08:11:48Z</time>
      </trkpt>
      <trkpt lat="42.71267" lon="1.94244">
        <ele>1385.4</ele>
        <time>2014-03-31T08:11:59Z</time>
      </trkpt>
      <trkpt lat="42.71264" lon="1.94243">
        <ele>1384.92</ele>
        <time>2014-03-31T08:12:10Z</time>
      </trkpt>
      <trkpt lat="42.71264" lon="1.94244">
        <ele>1382.99</ele>
        <time>2014-03-31T08:12:25Z</time>
      </trkpt>
      <trkpt lat="42.71262" lon="1.94243">
        <ele>1384.44</ele>
        <time>2014-03-31T08:12:41Z</time>
      </trkpt>
      <trkpt lat="42.71261" lon="1.94244">
        <ele>1383.96</ele>
        <time>2014-03-31T08:12:59Z</time>
      </trkpt>
      <trkpt lat="42.7126" lon="1.94244">
        <ele>1384.44</ele>
        <time>2014-03-31T08:13:00Z</time>
      </trkpt>
      <trkpt lat="42.71258" lon="1.94247">
        <ele>1384.44</ele>
        <time>2014-03-31T08:13:03Z</time>
      </trkpt>
      <trkpt lat="42.71245" lon="1.94258">
        <ele>1383.47</ele>
        <time>2014-03-31T08:13:17Z</time>
      </trkpt>
      <trkpt lat="42.71242" lon="1.94263">
        <ele>1383.96</ele>
        <time>2014-03-31T08:13:21Z</time>
      </trkpt>
      <trkpt lat="42.7124" lon="1.94266">
        <ele>1383.96</ele>
        <time>2014-03-31T08:13:25Z</time>
      </trkpt>
      <trkpt lat="42.71235" lon="1.94274">
        <ele>1384.92</ele>
        <time>2014-03-31T08:13:37Z</time>
      </trkpt>
      <trkpt lat="42.71225" lon="1.94302">
        <ele>1384.92</ele>
        <time>2014-03-31T08:13:50Z</time>
      </trkpt>
      <trkpt lat="42.71223" lon="1.9431">
        <ele>1385.88</ele>
        <time>2014-03-31T08:13:55Z</time>
      </trkpt>
      <trkpt lat="42.71221" lon="1.94317">
        <ele>1386.36</ele>
        <time>2014-03-31T08:14:04Z</time>
      </trkpt>
      <trkpt lat="42.7122" lon="1.94319">
        <ele>1386.84</ele>
        <time>2014-03-31T08:14:07Z</time>
      </trkpt>
      <trkpt lat="42.71217" lon="1.94325">
        <ele>1387.32</ele>
        <time>2014-03-31T08:14:17Z</time>
      </trkpt>
      <trkpt lat="42.71216" lon="1.94325">
        <ele>1387.32</ele>
        <time>2014-03-31T08:14:21Z</time>
      </trkpt>
      <trkpt lat="42.71209" lon="1.94328">
        <ele>1385.88</ele>
        <time>2014-03-31T08:14:32Z</time>
      </trkpt>
      <trkpt lat="42.71209" lon="1.94329">
        <ele>1385.88</ele>
        <time>2014-03-31T08:14:33Z</time>
      </trkpt>
      <trkpt lat="42.71207" lon="1.94334">
        <ele>1386.36</ele>
        <time>2014-03-31T08:14:36Z</time>
      </trkpt>
      <trkpt lat="42.71206" lon="1.94343">
        <ele>1386.36</ele>
        <time>2014-03-31T08:14:47Z</time>
      </trkpt>
      <trkpt lat="42.71206" lon="1.94343">
        <ele>1387.32</ele>
        <time>2014-03-31T08:15:00Z</time>
      </trkpt>
      <trkpt lat="42.71205" lon="1.94343">
        <ele>1386.84</ele>
        <time>2014-03-31T08:15:03Z</time>
      </trkpt>
      <trkpt lat="42.71198" lon="1.94352">
        <ele>1385.88</ele>
        <time>2014-03-31T08:15:14Z</time>
      </trkpt>
      <trkpt lat="42.71196" lon="1.94355">
        <ele>1386.84</ele>
        <time>2014-03-31T08:15:26Z</time>
      </trkpt>
      <trkpt lat="42.71196" lon="1.94354">
        <ele>1385.88</ele>
        <time>2014-03-31T08:15:38Z</time>
      </trkpt>
      <trkpt lat="42.71197" lon="1.94356">
        <ele>1386.36</ele>
        <time>2014-03-31T08:15:50Z</time>
      </trkpt>
      <trkpt lat="42.71194" lon="1.9436">
        <ele>1386.84</ele>
        <time>2014-03-31T08:16:03Z</time>
      </trkpt>
      <trkpt lat="42.71189" lon="1.94373">
        <ele>1389.72</ele>
        <time>2014-03-31T08:16:14Z</time>
      </trkpt>
      <trkpt lat="42.71185" lon="1.94388">
        <ele>1392.13</ele>
        <time>2014-03-31T08:16:26Z</time>
      </trkpt>
      <trkpt lat="42.71182" lon="1.94397">
        <ele>1391.17</ele>
        <time>2014-03-31T08:16:37Z</time>
      </trkpt>
      <trkpt lat="42.71181" lon="1.94395">
        <ele>1388.76</ele>
        <time>2014-03-31T08:16:49Z</time>
      </trkpt>
      <trkpt lat="42.7118" lon="1.94398">
        <ele>1391.17</ele>
        <time>2014-03-31T08:16:58Z</time>
      </trkpt>
      <trkpt lat="42.71179" lon="1.944">
        <ele>1391.17</ele>
        <time>2014-03-31T08:17:00Z</time>
      </trkpt>
      <trkpt lat="42.71175" lon="1.944">
        <ele>1389.72</ele>
        <time>2014-03-31T08:17:11Z</time>
      </trkpt>
      <trkpt lat="42.71175" lon="1.94402">
        <ele>1390.68</ele>
        <time>2014-03-31T08:17:24Z</time>
      </trkpt>
      <trkpt lat="42.71174" lon="1.94403">
        <ele>1388.28</ele>
        <time>2014-03-31T08:17:36Z</time>
      </trkpt>
      <trkpt lat="42.71172" lon="1.94405">
        <ele>1390.68</ele>
        <time>2014-03-31T08:17:54Z</time>
      </trkpt>
      <trkpt lat="42.71167" lon="1.94408">
        <ele>1392.13</ele>
        <time>2014-03-31T08:18:00Z</time>
      </trkpt>
      <trkpt lat="42.71163" lon="1.94414">
        <ele>1393.09</ele>
        <time>2014-03-31T08:18:07Z</time>
      </trkpt>
      <trkpt lat="42.7116" lon="1.94416">
        <ele>1393.57</ele>
        <time>2014-03-31T08:18:10Z</time>
      </trkpt>
      <trkpt lat="42.71154" lon="1.9442">
        <ele>1394.05</ele>
        <time>2014-03-31T08:18:17Z</time>
      </trkpt>
      <trkpt lat="42.71152" lon="1.94431">
        <ele>1396.45</ele>
        <time>2014-03-31T08:18:26Z</time>
      </trkpt>
      <trkpt lat="42.71149" lon="1.94434">
        <ele>1396.45</ele>
        <time>2014-03-31T08:18:30Z</time>
      </trkpt>
      <trkpt lat="42.71149" lon="1.94438">
        <ele>1396.45</ele>
        <time>2014-03-31T08:18:42Z</time>
      </trkpt>
      <trkpt lat="42.71147" lon="1.94437">
        <ele>1393.09</ele>
        <time>2014-03-31T08:18:52Z</time>
      </trkpt>
      <trkpt lat="42.71146" lon="1.94439">
        <ele>1395.49</ele>
        <time>2014-03-31T08:19:02Z</time>
      </trkpt>
      <trkpt lat="42.71141" lon="1.94441">
        <ele>1395.49</ele>
        <time>2014-03-31T08:19:12Z</time>
      </trkpt>
      <trkpt lat="42.71141" lon="1.94441">
        <ele>1394.53</ele>
        <time>2014-03-31T08:19:26Z</time>
      </trkpt>
      <trkpt lat="42.71139" lon="1.94439">
        <ele>1393.57</ele>
        <time>2014-03-31T08:19:38Z</time>
      </trkpt>
      <trkpt lat="42.7114" lon="1.94444">
        <ele>1394.05</ele>
        <time>2014-03-31T08:19:53Z</time>
      </trkpt>
      <trkpt lat="42.71136" lon="1.94461">
        <ele>1398.37</ele>
        <time>2014-03-31T08:20:06Z</time>
      </trkpt>
      <trkpt lat="42.71136" lon="1.94474">
        <ele>1401.74</ele>
        <time>2014-03-31T08:20:18Z</time>
      </trkpt>
      <trkpt lat="42.71136" lon="1.94484">
        <ele>1401.74</ele>
        <time>2014-03-31T08:20:29Z</time>
      </trkpt>
      <trkpt lat="42.71135" lon="1.94485">
        <ele>1402.22</ele>
        <time>2014-03-31T08:20:31Z</time>
      </trkpt>
      <trkpt lat="42.7113" lon="1.94489">
        <ele>1403.18</ele>
        <time>2014-03-31T08:20:38Z</time>
      </trkpt>
      <trkpt lat="42.71127" lon="1.94492">
        <ele>1404.14</ele>
        <time>2014-03-31T08:20:42Z</time>
      </trkpt>
      <trkpt lat="42.71124" lon="1.94493">
        <ele>1405.1</ele>
        <time>2014-03-31T08:20:46Z</time>
      </trkpt>
      <trkpt lat="42.71121" lon="1.94496">
        <ele>1405.58</ele>
        <time>2014-03-31T08:20:50Z</time>
      </trkpt>
      <trkpt lat="42.71116" lon="1.94499">
        <ele>1406.07</ele>
        <time>2014-03-31T08:20:55Z</time>
      </trkpt>
      <trkpt lat="42.71107" lon="1.94499">
        <ele>1407.51</ele>
        <time>2014-03-31T08:21:04Z</time>
      </trkpt>
      <trkpt lat="42.71102" lon="1.94506">
        <ele>1411.83</ele>
        <time>2014-03-31T08:21:15Z</time>
      </trkpt>
      <trkpt lat="42.711" lon="1.9451">
        <ele>1412.79</ele>
        <time>2014-03-31T08:21:19Z</time>
      </trkpt>
      <trkpt lat="42.71094" lon="1.94524">
        <ele>1416.16</ele>
        <time>2014-03-31T08:21:34Z</time>
      </trkpt>
      <trkpt lat="42.71091" lon="1.9453">
        <ele>1417.12</ele>
        <time>2014-03-31T08:21:40Z</time>
      </trkpt>
      <trkpt lat="42.71089" lon="1.94533">
        <ele>1417.6</ele>
        <time>2014-03-31T08:21:44Z</time>
      </trkpt>
      <trkpt lat="42.71085" lon="1.94538">
        <ele>1418.08</ele>
        <time>2014-03-31T08:21:50Z</time>
      </trkpt>
      <trkpt lat="42.71082" lon="1.94545">
        <ele>1419.52</ele>
        <time>2014-03-31T08:21:57Z</time>
      </trkpt>
      <trkpt lat="42.71077" lon="1.94548">
        <ele>1419.04</ele>
        <time>2014-03-31T08:22:03Z</time>
      </trkpt>
      <trkpt lat="42.71071" lon="1.94551">
        <ele>1417.6</ele>
        <time>2014-03-31T08:22:09Z</time>
      </trkpt>
      <trkpt lat="42.71066" lon="1.94559">
        <ele>1417.6</ele>
        <time>2014-03-31T08:22:21Z</time>
      </trkpt>
      <trkpt lat="42.71066" lon="1.94559">
        <ele>1417.6</ele>
        <time>2014-03-31T08:22:22Z</time>
      </trkpt>
      <trkpt lat="42.71068" lon="1.94569">
        <ele>1418.08</ele>
        <time>2014-03-31T08:22:34Z</time>
      </trkpt>
      <trkpt lat="42.71065" lon="1.94572">
        <ele>1416.64</ele>
        <time>2014-03-31T08:22:45Z</time>
      </trkpt>
      <trkpt lat="42.71061" lon="1.94575">
        <ele>1415.2</ele>
        <time>2014-03-31T08:22:59Z</time>
      </trkpt>
      <trkpt lat="42.71059" lon="1.94573">
        <ele>1415.2</ele>
        <time>2014-03-31T08:23:12Z</time>
      </trkpt>
      <trkpt lat="42.71056" lon="1.94578">
        <ele>1420.49</ele>
        <time>2014-03-31T08:23:26Z</time>
      </trkpt>
      <trkpt lat="42.71053" lon="1.94587">
        <ele>1422.89</ele>
        <time>2014-03-31T08:23:36Z</time>
      </trkpt>
      <trkpt lat="42.71048" lon="1.94592">
        <ele>1424.33</ele>
        <time>2014-03-31T08:23:48Z</time>
      </trkpt>
      <trkpt lat="42.71042" lon="1.94599">
        <ele>1424.81</ele>
        <time>2014-03-31T08:24:00Z</time>
      </trkpt>
      <trkpt lat="42.71039" lon="1.94601">
        <ele>1424.33</ele>
        <time>2014-03-31T08:24:06Z</time>
      </trkpt>
      <trkpt lat="42.71033" lon="1.94605">
        <ele>1422.41</ele>
        <time>2014-03-31T08:24:14Z</time>
      </trkpt>
      <trkpt lat="42.71027" lon="1.94613">
        <ele>1424.33</ele>
        <time>2014-03-31T08:24:28Z</time>
      </trkpt>
      <trkpt lat="42.71022" lon="1.9462">
        <ele>1425.77</ele>
        <time>2014-03-31T08:24:39Z</time>
      </trkpt>
      <trkpt lat="42.71019" lon="1.94625">
        <ele>1427.7</ele>
        <time>2014-03-31T08:24:46Z</time>
      </trkpt>
      <trkpt lat="42.71014" lon="1.94631">
        <ele>1431.54</ele>
        <time>2014-03-31T08:24:57Z</time>
      </trkpt>
      <trkpt lat="42.71007" lon="1.94638">
        <ele>1430.1</ele>
        <time>2014-03-31T08:25:10Z</time>
      </trkpt>
      <trkpt lat="42.70995" lon="1.94646">
        <ele>1425.77</ele>
        <time>2014-03-31T08:25:24Z</time>
      </trkpt>
      <trkpt lat="42.70989" lon="1.94647">
        <ele>1422.89</ele>
        <time>2014-03-31T08:25:35Z</time>
      </trkpt>
      <trkpt lat="42.70987" lon="1.94646">
        <ele>1423.37</ele>
        <time>2014-03-31T08:25:39Z</time>
      </trkpt>
      <trkpt lat="42.70984" lon="1.94643">
        <ele>1424.81</ele>
        <time>2014-03-31T08:25:49Z</time>
      </trkpt>
      <trkpt lat="42.70983" lon="1.94643">
        <ele>1426.25</ele>
        <time>2014-03-31T08:26:02Z</time>
      </trkpt>
      <trkpt lat="42.70982" lon="1.94643">
        <ele>1423.37</ele>
        <time>2014-03-31T08:26:12Z</time>
      </trkpt>
      <trkpt lat="42.70982" lon="1.94639">
        <ele>1421.93</ele>
        <time>2014-03-31T08:26:30Z</time>
      </trkpt>
      <trkpt lat="42.70978" lon="1.94636">
        <ele>1421.93</ele>
        <time>2014-03-31T08:26:40Z</time>
      </trkpt>
      <trkpt lat="42.70976" lon="1.94633">
        <ele>1422.41</ele>
        <time>2014-03-31T08:26:50Z</time>
      </trkpt>
      <trkpt lat="42.70977" lon="1.94638">
        <ele>1423.85</ele>
        <time>2014-03-31T08:26:59Z</time>
      </trkpt>
      <trkpt lat="42.70974" lon="1.9465">
        <ele>1426.25</ele>
        <time>2014-03-31T08:27:10Z</time>
      </trkpt>
      <trkpt lat="42.70968" lon="1.94656">
        <ele>1426.73</ele>
        <time>2014-03-31T08:27:20Z</time>
      </trkpt>
      <trkpt lat="42.70962" lon="1.94664">
        <ele>1429.62</ele>
        <time>2014-03-31T08:27:31Z</time>
      </trkpt>
      <trkpt lat="42.70957" lon="1.94673">
        <ele>1430.58</ele>
        <time>2014-03-31T08:27:45Z</time>
      </trkpt>
      <trkpt lat="42.7095" lon="1.94676">
        <ele>1426.25</ele>
        <time>2014-03-31T08:27:57Z</time>
      </trkpt>
      <trkpt lat="42.70942" lon="1.94677">
        <ele>1422.89</ele>
        <time>2014-03-31T08:28:08Z</time>
      </trkpt>
      <trkpt lat="42.70938" lon="1.94681">
        <ele>1422.89</ele>
        <time>2014-03-31T08:28:20Z</time>
      </trkpt>
      <trkpt lat="42.70931" lon="1.94687">
        <ele>1426.73</ele>
        <time>2014-03-31T08:28:30Z</time>
      </trkpt>
      <trkpt lat="42.70926" lon="1.94694">
        <ele>1431.06</ele>
        <time>2014-03-31T08:28:41Z</time>
      </trkpt>
      <trkpt lat="42.70921" lon="1.947">
        <ele>1435.39</ele>
        <time>2014-03-31T08:28:56Z</time>
      </trkpt>
      <trkpt lat="42.70919" lon="1.947">
        <ele>1436.35</ele>
        <time>2014-03-31T08:29:12Z</time>
      </trkpt>
      <trkpt lat="42.70919" lon="1.94699">
        <ele>1437.79</ele>
        <time>2014-03-31T08:29:22Z</time>
      </trkpt>
      <trkpt lat="42.70918" lon="1.94698">
        <ele>1439.23</ele>
        <time>2014-03-31T08:29:38Z</time>
      </trkpt>
      <trkpt lat="42.70915" lon="1.94697">
        <ele>1439.23</ele>
        <time>2014-03-31T08:29:49Z</time>
      </trkpt>
      <trkpt lat="42.70914" lon="1.94698">
        <ele>1439.71</ele>
        <time>2014-03-31T08:29:52Z</time>
      </trkpt>
      <trkpt lat="42.70912" lon="1.94698">
        <ele>1440.19</ele>
        <time>2014-03-31T08:29:54Z</time>
      </trkpt>
      <trkpt lat="42.70908" lon="1.94707">
        <ele>1440.67</ele>
        <time>2014-03-31T08:30:06Z</time>
      </trkpt>
      <trkpt lat="42.70904" lon="1.94711">
        <ele>1442.11</ele>
        <time>2014-03-31T08:30:19Z</time>
      </trkpt>
      <trkpt lat="42.70901" lon="1.94715">
        <ele>1443.56</ele>
        <time>2014-03-31T08:30:25Z</time>
      </trkpt>
      <trkpt lat="42.70899" lon="1.94715">
        <ele>1443.08</ele>
        <time>2014-03-31T08:30:27Z</time>
      </trkpt>
      <trkpt lat="42.70894" lon="1.94717">
        <ele>1443.56</ele>
        <time>2014-03-31T08:30:38Z</time>
      </trkpt>
      <trkpt lat="42.70893" lon="1.94718">
        <ele>1444.04</ele>
        <time>2014-03-31T08:30:49Z</time>
      </trkpt>
      <trkpt lat="42.70893" lon="1.94719">
        <ele>1445</ele>
        <time>2014-03-31T08:31:00Z</time>
      </trkpt>
      <trkpt lat="42.70894" lon="1.94721">
        <ele>1445.48</ele>
        <time>2014-03-31T08:31:17Z</time>
      </trkpt>
      <trkpt lat="42.70892" lon="1.94719">
        <ele>1445.48</ele>
        <time>2014-03-31T08:31:29Z</time>
      </trkpt>
      <trkpt lat="42.70888" lon="1.9472">
        <ele>1445.96</ele>
        <time>2014-03-31T08:31:43Z</time>
      </trkpt>
      <trkpt lat="42.70882" lon="1.94719">
        <ele>1446.44</ele>
        <time>2014-03-31T08:31:51Z</time>
      </trkpt>
      <trkpt lat="42.70877" lon="1.94722">
        <ele>1450.29</ele>
        <time>2014-03-31T08:32:00Z</time>
      </trkpt>
      <trkpt lat="42.7087" lon="1.94732">
        <ele>1452.69</ele>
        <time>2014-03-31T08:32:13Z</time>
      </trkpt>
      <trkpt lat="42.70867" lon="1.94736">
        <ele>1452.69</ele>
        <time>2014-03-31T08:32:19Z</time>
      </trkpt>
      <trkpt lat="42.70865" lon="1.94738">
        <ele>1453.17</ele>
        <time>2014-03-31T08:32:22Z</time>
      </trkpt>
      <trkpt lat="42.70858" lon="1.94751">
        <ele>1455.57</ele>
        <time>2014-03-31T08:32:35Z</time>
      </trkpt>
      <trkpt lat="42.70852" lon="1.94751">
        <ele>1454.61</ele>
        <time>2014-03-31T08:32:41Z</time>
      </trkpt>
      <trkpt lat="42.70842" lon="1.94745">
        <ele>1455.09</ele>
        <time>2014-03-31T08:32:54Z</time>
      </trkpt>
      <trkpt lat="42.70838" lon="1.94746">
        <ele>1455.57</ele>
        <time>2014-03-31T08:32:59Z</time>
      </trkpt>
      <trkpt lat="42.70833" lon="1.9475">
        <ele>1456.05</ele>
        <time>2014-03-31T08:33:07Z</time>
      </trkpt>
      <trkpt lat="42.70826" lon="1.94761">
        <ele>1457.5</ele>
        <time>2014-03-31T08:33:21Z</time>
      </trkpt>
      <trkpt lat="42.70823" lon="1.94768">
        <ele>1460.38</ele>
        <time>2014-03-31T08:33:28Z</time>
      </trkpt>
      <trkpt lat="42.70819" lon="1.94779">
        <ele>1462.78</ele>
        <time>2014-03-31T08:33:39Z</time>
      </trkpt>
      <trkpt lat="42.70814" lon="1.94789">
        <ele>1465.67</ele>
        <time>2014-03-31T08:33:52Z</time>
      </trkpt>
      <trkpt lat="42.70807" lon="1.94797">
        <ele>1467.11</ele>
        <time>2014-03-31T08:34:04Z</time>
      </trkpt>
      <trkpt lat="42.70801" lon="1.94804">
        <ele>1468.07</ele>
        <time>2014-03-31T08:34:15Z</time>
      </trkpt>
      <trkpt lat="42.70795" lon="1.9481">
        <ele>1469.03</ele>
        <time>2014-03-31T08:34:27Z</time>
      </trkpt>
      <trkpt lat="42.70787" lon="1.94816">
        <ele>1468.55</ele>
        <time>2014-03-31T08:34:40Z</time>
      </trkpt>
      <trkpt lat="42.7078" lon="1.94823">
        <ele>1467.11</ele>
        <time>2014-03-31T08:34:53Z</time>
      </trkpt>
      <trkpt lat="42.7077" lon="1.94825">
        <ele>1465.67</ele>
        <time>2014-03-31T08:35:05Z</time>
      </trkpt>
      <trkpt lat="42.70762" lon="1.94825">
        <ele>1466.63</ele>
        <time>2014-03-31T08:35:15Z</time>
      </trkpt>
      <trkpt lat="42.70762" lon="1.94824">
        <ele>1466.15</ele>
        <time>2014-03-31T08:35:19Z</time>
      </trkpt>
      <trkpt lat="42.70753" lon="1.94823">
        <ele>1465.67</ele>
        <time>2014-03-31T08:35:28Z</time>
      </trkpt>
      <trkpt lat="42.70751" lon="1.94824">
        <ele>1466.15</ele>
        <time>2014-03-31T08:35:32Z</time>
      </trkpt>
      <trkpt lat="42.70748" lon="1.94829">
        <ele>1467.59</ele>
        <time>2014-03-31T08:35:38Z</time>
      </trkpt>
      <trkpt lat="42.70743" lon="1.94835">
        <ele>1467.11</ele>
        <time>2014-03-31T08:35:48Z</time>
      </trkpt>
      <trkpt lat="42.70732" lon="1.94839">
        <ele>1467.11</ele>
        <time>2014-03-31T08:36:04Z</time>
      </trkpt>
      <trkpt lat="42.70723" lon="1.94845">
        <ele>1467.11</ele>
        <time>2014-03-31T08:36:18Z</time>
      </trkpt>
      <trkpt lat="42.70718" lon="1.94849">
        <ele>1467.59</ele>
        <time>2014-03-31T08:36:29Z</time>
      </trkpt>
      <trkpt lat="42.70717" lon="1.94855">
        <ele>1466.15</ele>
        <time>2014-03-31T08:36:39Z</time>
      </trkpt>
      <trkpt lat="42.70714" lon="1.9486">
        <ele>1464.71</ele>
        <time>2014-03-31T08:36:50Z</time>
      </trkpt>
      <trkpt lat="42.70713" lon="1.94868">
        <ele>1463.74</ele>
        <time>2014-03-31T08:37:03Z</time>
      </trkpt>
      <trkpt lat="42.70713" lon="1.9488">
        <ele>1463.74</ele>
        <time>2014-03-31T08:37:16Z</time>
      </trkpt>
      <trkpt lat="42.7071" lon="1.94885">
        <ele>1463.26</ele>
        <time>2014-03-31T08:37:25Z</time>
      </trkpt>
      <trkpt lat="42.70705" lon="1.94888">
        <ele>1465.67</ele>
        <time>2014-03-31T08:37:39Z</time>
      </trkpt>
      <trkpt lat="42.70704" lon="1.94887">
        <ele>1464.71</ele>
        <time>2014-03-31T08:37:56Z</time>
      </trkpt>
      <trkpt lat="42.70702" lon="1.94886">
        <ele>1465.19</ele>
        <time>2014-03-31T08:38:09Z</time>
      </trkpt>
      <trkpt lat="42.70702" lon="1.94884">
        <ele>1466.63</ele>
        <time>2014-03-31T08:38:24Z</time>
      </trkpt>
      <trkpt lat="42.70698" lon="1.94888">
        <ele>1467.59</ele>
        <time>2014-03-31T08:38:39Z</time>
      </trkpt>
      <trkpt lat="42.70694" lon="1.94893">
        <ele>1472.4</ele>
        <time>2014-03-31T08:38:49Z</time>
      </trkpt>
      <trkpt lat="42.7069" lon="1.94899">
        <ele>1472.88</ele>
        <time>2014-03-31T08:39:01Z</time>
      </trkpt>
      <trkpt lat="42.70686" lon="1.94902">
        <ele>1470.95</ele>
        <time>2014-03-31T08:39:12Z</time>
      </trkpt>
      <trkpt lat="42.70682" lon="1.94905">
        <ele>1469.99</ele>
        <time>2014-03-31T08:39:24Z</time>
      </trkpt>
      <trkpt lat="42.70677" lon="1.94903">
        <ele>1468.55</ele>
        <time>2014-03-31T08:39:40Z</time>
      </trkpt>
      <trkpt lat="42.70673" lon="1.94902">
        <ele>1469.51</ele>
        <time>2014-03-31T08:39:58Z</time>
      </trkpt>
      <trkpt lat="42.70671" lon="1.949">
        <ele>1470.95</ele>
        <time>2014-03-31T08:40:13Z</time>
      </trkpt>
      <trkpt lat="42.70668" lon="1.94902">
        <ele>1473.36</ele>
        <time>2014-03-31T08:40:27Z</time>
      </trkpt>
      <trkpt lat="42.70668" lon="1.94903">
        <ele>1473.36</ele>
        <time>2014-03-31T08:40:28Z</time>
      </trkpt>
      <trkpt lat="42.70664" lon="1.94905">
        <ele>1471.44</ele>
        <time>2014-03-31T08:40:33Z</time>
      </trkpt>
      <trkpt lat="42.7066" lon="1.94905">
        <ele>1469.99</ele>
        <time>2014-03-31T08:40:38Z</time>
      </trkpt>
      <trkpt lat="42.70655" lon="1.94908">
        <ele>1471.44</ele>
        <time>2014-03-31T08:40:51Z</time>
      </trkpt>
      <trkpt lat="42.70646" lon="1.94913">
        <ele>1471.92</ele>
        <time>2014-03-31T08:41:02Z</time>
      </trkpt>
      <trkpt lat="42.70639" lon="1.94919">
        <ele>1474.8</ele>
        <time>2014-03-31T08:41:14Z</time>
      </trkpt>
      <trkpt lat="42.70631" lon="1.94926">
        <ele>1478.65</ele>
        <time>2014-03-31T08:41:25Z</time>
      </trkpt>
      <trkpt lat="42.70626" lon="1.94931">
        <ele>1479.13</ele>
        <time>2014-03-31T08:41:37Z</time>
      </trkpt>
      <trkpt lat="42.70618" lon="1.94936">
        <ele>1479.13</ele>
        <time>2014-03-31T08:41:47Z</time>
      </trkpt>
      <trkpt lat="42.70609" lon="1.94944">
        <ele>1477.68</ele>
        <time>2014-03-31T08:42:01Z</time>
      </trkpt>
      <trkpt lat="42.706" lon="1.94952">
        <ele>1478.16</ele>
        <time>2014-03-31T08:42:12Z</time>
      </trkpt>
      <trkpt lat="42.70596" lon="1.94955">
        <ele>1479.61</ele>
        <time>2014-03-31T08:42:25Z</time>
      </trkpt>
      <trkpt lat="42.70594" lon="1.94963">
        <ele>1482.97</ele>
        <time>2014-03-31T08:42:34Z</time>
      </trkpt>
      <trkpt lat="42.70593" lon="1.94964">
        <ele>1483.93</ele>
        <time>2014-03-31T08:42:36Z</time>
      </trkpt>
      <trkpt lat="42.70598" lon="1.94974">
        <ele>1484.89</ele>
        <time>2014-03-31T08:42:47Z</time>
      </trkpt>
      <trkpt lat="42.70599" lon="1.94985">
        <ele>1485.37</ele>
        <time>2014-03-31T08:43:00Z</time>
      </trkpt>
      <trkpt lat="42.70602" lon="1.94997">
        <ele>1488.26</ele>
        <time>2014-03-31T08:43:13Z</time>
      </trkpt>
      <trkpt lat="42.70601" lon="1.95008">
        <ele>1490.18</ele>
        <time>2014-03-31T08:43:25Z</time>
      </trkpt>
      <trkpt lat="42.70602" lon="1.95017">
        <ele>1489.22</ele>
        <time>2014-03-31T08:43:37Z</time>
      </trkpt>
      <trkpt lat="42.70602" lon="1.9502">
        <ele>1488.74</ele>
        <time>2014-03-31T08:43:47Z</time>
      </trkpt>
      <trkpt lat="42.70604" lon="1.95031">
        <ele>1489.22</ele>
        <time>2014-03-31T08:44:01Z</time>
      </trkpt>
      <trkpt lat="42.70602" lon="1.95041">
        <ele>1491.14</ele>
        <time>2014-03-31T08:44:12Z</time>
      </trkpt>
      <trkpt lat="42.70603" lon="1.95049">
        <ele>1491.14</ele>
        <time>2014-03-31T08:44:25Z</time>
      </trkpt>
      <trkpt lat="42.70607" lon="1.9506">
        <ele>1494.03</ele>
        <time>2014-03-31T08:44:41Z</time>
      </trkpt>
      <trkpt lat="42.70609" lon="1.95071">
        <ele>1494.99</ele>
        <time>2014-03-31T08:44:55Z</time>
      </trkpt>
      <trkpt lat="42.70603" lon="1.95081">
        <ele>1496.91</ele>
        <time>2014-03-31T08:45:11Z</time>
      </trkpt>
      <trkpt lat="42.70604" lon="1.95089">
        <ele>1497.39</ele>
        <time>2014-03-31T08:45:26Z</time>
      </trkpt>
      <trkpt lat="42.70604" lon="1.95105">
        <ele>1499.31</ele>
        <time>2014-03-31T08:45:38Z</time>
      </trkpt>
      <trkpt lat="42.70602" lon="1.95111">
        <ele>1500.27</ele>
        <time>2014-03-31T08:45:50Z</time>
      </trkpt>
      <trkpt lat="42.70593" lon="1.95123">
        <ele>1500.76</ele>
        <time>2014-03-31T08:46:04Z</time>
      </trkpt>
      <trkpt lat="42.70589" lon="1.95129">
        <ele>1503.16</ele>
        <time>2014-03-31T08:46:17Z</time>
      </trkpt>
      <trkpt lat="42.70583" lon="1.95138">
        <ele>1503.64</ele>
        <time>2014-03-31T08:46:30Z</time>
      </trkpt>
      <trkpt lat="42.70579" lon="1.95148">
        <ele>1505.08</ele>
        <time>2014-03-31T08:46:42Z</time>
      </trkpt>
      <trkpt lat="42.70576" lon="1.95155">
        <ele>1505.08</ele>
        <time>2014-03-31T08:46:53Z</time>
      </trkpt>
      <trkpt lat="42.70569" lon="1.95162">
        <ele>1506.04</ele>
        <time>2014-03-31T08:47:07Z</time>
      </trkpt>
      <trkpt lat="42.70564" lon="1.95178">
        <ele>1508.45</ele>
        <time>2014-03-31T08:47:20Z</time>
      </trkpt>
      <trkpt lat="42.70557" lon="1.95183">
        <ele>1509.89</ele>
        <time>2014-03-31T08:47:32Z</time>
      </trkpt>
      <trkpt lat="42.70553" lon="1.95192">
        <ele>1511.33</ele>
        <time>2014-03-31T08:47:45Z</time>
      </trkpt>
      <trkpt lat="42.70552" lon="1.95201">
        <ele>1511.81</ele>
        <time>2014-03-31T08:47:56Z</time>
      </trkpt>
      <trkpt lat="42.70547" lon="1.95206">
        <ele>1511.33</ele>
        <time>2014-03-31T08:48:06Z</time>
      </trkpt>
      <trkpt lat="42.70536" lon="1.95214">
        <ele>1513.25</ele>
        <time>2014-03-31T08:48:21Z</time>
      </trkpt>
      <trkpt lat="42.70529" lon="1.95217">
        <ele>1513.73</ele>
        <time>2014-03-31T08:48:34Z</time>
      </trkpt>
      <trkpt lat="42.7052" lon="1.95221">
        <ele>1516.62</ele>
        <time>2014-03-31T08:48:45Z</time>
      </trkpt>
      <trkpt lat="42.70514" lon="1.9522">
        <ele>1516.62</ele>
        <time>2014-03-31T08:48:55Z</time>
      </trkpt>
      <trkpt lat="42.70507" lon="1.95228">
        <ele>1518.54</ele>
        <time>2014-03-31T08:49:09Z</time>
      </trkpt>
      <trkpt lat="42.705" lon="1.95233">
        <ele>1519.02</ele>
        <time>2014-03-31T08:49:21Z</time>
      </trkpt>
      <trkpt lat="42.70495" lon="1.95235">
        <ele>1519.02</ele>
        <time>2014-03-31T08:49:31Z</time>
      </trkpt>
      <trkpt lat="42.70485" lon="1.95238">
        <ele>1521.42</ele>
        <time>2014-03-31T08:49:45Z</time>
      </trkpt>
      <trkpt lat="42.70479" lon="1.95242">
        <ele>1522.39</ele>
        <time>2014-03-31T08:49:55Z</time>
      </trkpt>
      <trkpt lat="42.70478" lon="1.95244">
        <ele>1523.35</ele>
        <time>2014-03-31T08:49:58Z</time>
      </trkpt>
      <trkpt lat="42.70471" lon="1.95252">
        <ele>1525.27</ele>
        <time>2014-03-31T08:50:11Z</time>
      </trkpt>
      <trkpt lat="42.70465" lon="1.95256">
        <ele>1526.23</ele>
        <time>2014-03-31T08:50:22Z</time>
      </trkpt>
      <trkpt lat="42.70463" lon="1.95257">
        <ele>1528.63</ele>
        <time>2014-03-31T08:50:31Z</time>
      </trkpt>
      <trkpt lat="42.7046" lon="1.95252">
        <ele>1531.52</ele>
        <time>2014-03-31T08:50:57Z</time>
      </trkpt>
      <trkpt lat="42.70459" lon="1.95255">
        <ele>1534.4</ele>
        <time>2014-03-31T08:51:12Z</time>
      </trkpt>
      <trkpt lat="42.70461" lon="1.95263">
        <ele>1535.36</ele>
        <time>2014-03-31T08:51:23Z</time>
      </trkpt>
      <trkpt lat="42.70457" lon="1.95269">
        <ele>1534.88</ele>
        <time>2014-03-31T08:51:33Z</time>
      </trkpt>
      <trkpt lat="42.7045" lon="1.95277">
        <ele>1534.88</ele>
        <time>2014-03-31T08:51:46Z</time>
      </trkpt>
      <trkpt lat="42.70445" lon="1.95279">
        <ele>1535.36</ele>
        <time>2014-03-31T08:51:55Z</time>
      </trkpt>
      <trkpt lat="42.7044" lon="1.95284">
        <ele>1537.77</ele>
        <time>2014-03-31T08:52:04Z</time>
      </trkpt>
      <trkpt lat="42.70435" lon="1.9529">
        <ele>1538.25</ele>
        <time>2014-03-31T08:52:17Z</time>
      </trkpt>
      <trkpt lat="42.70434" lon="1.95291">
        <ele>1538.73</ele>
        <time>2014-03-31T08:52:19Z</time>
      </trkpt>
      <trkpt lat="42.70428" lon="1.95299">
        <ele>1539.69</ele>
        <time>2014-03-31T08:52:29Z</time>
      </trkpt>
      <trkpt lat="42.70428" lon="1.953">
        <ele>1539.69</ele>
        <time>2014-03-31T08:52:30Z</time>
      </trkpt>
      <trkpt lat="42.70425" lon="1.95304">
        <ele>1537.77</ele>
        <time>2014-03-31T08:52:40Z</time>
      </trkpt>
      <trkpt lat="42.70425" lon="1.95307">
        <ele>1540.65</ele>
        <time>2014-03-31T08:52:53Z</time>
      </trkpt>
      <trkpt lat="42.70425" lon="1.95309">
        <ele>1542.09</ele>
        <time>2014-03-31T08:53:07Z</time>
      </trkpt>
      <trkpt lat="42.70421" lon="1.95312">
        <ele>1545.94</ele>
        <time>2014-03-31T08:53:23Z</time>
      </trkpt>
      <trkpt lat="42.70418" lon="1.95316">
        <ele>1547.38</ele>
        <time>2014-03-31T08:53:32Z</time>
      </trkpt>
      <trkpt lat="42.70418" lon="1.95316">
        <ele>1547.38</ele>
        <time>2014-03-31T08:53:34Z</time>
      </trkpt>
      <trkpt lat="42.70415" lon="1.95315">
        <ele>1546.42</ele>
        <time>2014-03-31T08:53:39Z</time>
      </trkpt>
      <trkpt lat="42.70414" lon="1.95314">
        <ele>1545.94</ele>
        <time>2014-03-31T08:53:41Z</time>
      </trkpt>
      <trkpt lat="42.70406" lon="1.95314">
        <ele>1547.86</ele>
        <time>2014-03-31T08:53:53Z</time>
      </trkpt>
      <trkpt lat="42.70401" lon="1.95313">
        <ele>1547.86</ele>
        <time>2014-03-31T08:54:03Z</time>
      </trkpt>
      <trkpt lat="42.70397" lon="1.95311">
        <ele>1548.34</ele>
        <time>2014-03-31T08:54:09Z</time>
      </trkpt>
      <trkpt lat="42.70391" lon="1.95312">
        <ele>1548.34</ele>
        <time>2014-03-31T08:54:21Z</time>
      </trkpt>
      <trkpt lat="42.70391" lon="1.95315">
        <ele>1549.78</ele>
        <time>2014-03-31T08:54:38Z</time>
      </trkpt>
      <trkpt lat="42.7039" lon="1.95317">
        <ele>1550.26</ele>
        <time>2014-03-31T08:54:41Z</time>
      </trkpt>
      <trkpt lat="42.70382" lon="1.95327">
        <ele>1551.71</ele>
        <time>2014-03-31T08:54:52Z</time>
      </trkpt>
      <trkpt lat="42.70376" lon="1.9533">
        <ele>1553.15</ele>
        <time>2014-03-31T08:55:01Z</time>
      </trkpt>
      <trkpt lat="42.70374" lon="1.95326">
        <ele>1552.67</ele>
        <time>2014-03-31T08:55:10Z</time>
      </trkpt>
      <trkpt lat="42.70373" lon="1.95325">
        <ele>1553.63</ele>
        <time>2014-03-31T08:55:17Z</time>
      </trkpt>
      <trkpt lat="42.70371" lon="1.95323">
        <ele>1554.11</ele>
        <time>2014-03-31T08:55:37Z</time>
      </trkpt>
      <trkpt lat="42.70371" lon="1.95326">
        <ele>1550.26</ele>
        <time>2014-03-31T08:55:50Z</time>
      </trkpt>
      <trkpt lat="42.70372" lon="1.95331">
        <ele>1556.03</ele>
        <time>2014-03-31T08:56:09Z</time>
      </trkpt>
      <trkpt lat="42.7037" lon="1.95329">
        <ele>1557.47</ele>
        <time>2014-03-31T08:56:22Z</time>
      </trkpt>
      <trkpt lat="42.70368" lon="1.95328">
        <ele>1557.47</ele>
        <time>2014-03-31T08:56:31Z</time>
      </trkpt>
      <trkpt lat="42.70368" lon="1.95329">
        <ele>1557.95</ele>
        <time>2014-03-31T08:56:34Z</time>
      </trkpt>
      <trkpt lat="42.70361" lon="1.95332">
        <ele>1556.99</ele>
        <time>2014-03-31T08:56:44Z</time>
      </trkpt>
      <trkpt lat="42.70362" lon="1.95331">
        <ele>1560.36</ele>
        <time>2014-03-31T08:56:59Z</time>
      </trkpt>
      <trkpt lat="42.70359" lon="1.95329">
        <ele>1559.88</ele>
        <time>2014-03-31T08:57:22Z</time>
      </trkpt>
      <trkpt lat="42.70357" lon="1.95332">
        <ele>1564.2</ele>
        <time>2014-03-31T08:57:41Z</time>
      </trkpt>
      <trkpt lat="42.70354" lon="1.95328">
        <ele>1565.64</ele>
        <time>2014-03-31T08:57:50Z</time>
      </trkpt>
      <trkpt lat="42.70348" lon="1.95326">
        <ele>1569.01</ele>
        <time>2014-03-31T08:58:00Z</time>
      </trkpt>
      <trkpt lat="42.70346" lon="1.95327">
        <ele>1570.93</ele>
        <time>2014-03-31T08:58:05Z</time>
      </trkpt>
      <trkpt lat="42.7034" lon="1.95335">
        <ele>1572.37</ele>
        <time>2014-03-31T08:58:15Z</time>
      </trkpt>
      <trkpt lat="42.70335" lon="1.9534">
        <ele>1572.37</ele>
        <time>2014-03-31T08:58:24Z</time>
      </trkpt>
      <trkpt lat="42.70326" lon="1.95341">
        <ele>1571.41</ele>
        <time>2014-03-31T08:58:36Z</time>
      </trkpt>
      <trkpt lat="42.70319" lon="1.95348">
        <ele>1571.89</ele>
        <time>2014-03-31T08:58:48Z</time>
      </trkpt>
      <trkpt lat="42.70314" lon="1.95357">
        <ele>1572.85</ele>
        <time>2014-03-31T08:59:00Z</time>
      </trkpt>
      <trkpt lat="42.70309" lon="1.95365">
        <ele>1570.93</ele>
        <time>2014-03-31T08:59:12Z</time>
      </trkpt>
      <trkpt lat="42.70303" lon="1.95374">
        <ele>1574.3</ele>
        <time>2014-03-31T08:59:24Z</time>
      </trkpt>
      <trkpt lat="42.703" lon="1.95382">
        <ele>1574.3</ele>
        <time>2014-03-31T08:59:35Z</time>
      </trkpt>
      <trkpt lat="42.70296" lon="1.95388">
        <ele>1576.7</ele>
        <time>2014-03-31T08:59:48Z</time>
      </trkpt>
      <trkpt lat="42.70294" lon="1.95396">
        <ele>1578.62</ele>
        <time>2014-03-31T09:00:05Z</time>
      </trkpt>
      <trkpt lat="42.70289" lon="1.95398">
        <ele>1579.1</ele>
        <time>2014-03-31T09:00:18Z</time>
      </trkpt>
      <trkpt lat="42.70283" lon="1.95397">
        <ele>1581.03</ele>
        <time>2014-03-31T09:00:29Z</time>
      </trkpt>
      <trkpt lat="42.70272" lon="1.95397">
        <ele>1581.03</ele>
        <time>2014-03-31T09:00:43Z</time>
      </trkpt>
      <trkpt lat="42.70265" lon="1.95396">
        <ele>1580.54</ele>
        <time>2014-03-31T09:00:56Z</time>
      </trkpt>
      <trkpt lat="42.7026" lon="1.95398">
        <ele>1579.58</ele>
        <time>2014-03-31T09:01:13Z</time>
      </trkpt>
      <trkpt lat="42.70255" lon="1.95404">
        <ele>1582.95</ele>
        <time>2014-03-31T09:01:28Z</time>
      </trkpt>
      <trkpt lat="42.70251" lon="1.9541">
        <ele>1584.39</ele>
        <time>2014-03-31T09:01:39Z</time>
      </trkpt>
      <trkpt lat="42.70248" lon="1.95419">
        <ele>1585.35</ele>
        <time>2014-03-31T09:01:53Z</time>
      </trkpt>
      <trkpt lat="42.7024" lon="1.95421">
        <ele>1588.72</ele>
        <time>2014-03-31T09:02:04Z</time>
      </trkpt>
      <trkpt lat="42.70231" lon="1.95422">
        <ele>1589.68</ele>
        <time>2014-03-31T09:02:19Z</time>
      </trkpt>
      <trkpt lat="42.70227" lon="1.95423">
        <ele>1590.64</ele>
        <time>2014-03-31T09:02:31Z</time>
      </trkpt>
      <trkpt lat="42.70225" lon="1.95425">
        <ele>1590.64</ele>
        <time>2014-03-31T09:02:43Z</time>
      </trkpt>
      <trkpt lat="42.70223" lon="1.95425">
        <ele>1591.12</ele>
        <time>2014-03-31T09:02:58Z</time>
      </trkpt>
      <trkpt lat="42.70222" lon="1.95426">
        <ele>1590.16</ele>
        <time>2014-03-31T09:03:10Z</time>
      </trkpt>
      <trkpt lat="42.70223" lon="1.95429">
        <ele>1588.72</ele>
        <time>2014-03-31T09:03:23Z</time>
      </trkpt>
      <trkpt lat="42.70222" lon="1.9543">
        <ele>1588.24</ele>
        <time>2014-03-31T09:03:37Z</time>
      </trkpt>
      <trkpt lat="42.70221" lon="1.95431">
        <ele>1589.68</ele>
        <time>2014-03-31T09:03:47Z</time>
      </trkpt>
      <trkpt lat="42.70221" lon="1.95432">
        <ele>1589.68</ele>
        <time>2014-03-31T09:03:57Z</time>
      </trkpt>
      <trkpt lat="42.70221" lon="1.95433">
        <ele>1590.16</ele>
        <time>2014-03-31T09:04:10Z</time>
      </trkpt>
      <trkpt lat="42.7022" lon="1.95432">
        <ele>1592.08</ele>
        <time>2014-03-31T09:04:19Z</time>
      </trkpt>
      <trkpt lat="42.7022" lon="1.95432">
        <ele>1592.08</ele>
        <time>2014-03-31T09:04:30Z</time>
      </trkpt>
      <trkpt lat="42.70217" lon="1.95438">
        <ele>1593.52</ele>
        <time>2014-03-31T09:04:40Z</time>
      </trkpt>
      <trkpt lat="42.70214" lon="1.95447">
        <ele>1594.48</ele>
        <time>2014-03-31T09:04:52Z</time>
      </trkpt>
      <trkpt lat="42.70211" lon="1.9545">
        <ele>1596.41</ele>
        <time>2014-03-31T09:05:06Z</time>
      </trkpt>
      <trkpt lat="42.70203" lon="1.95452">
        <ele>1599.77</ele>
        <time>2014-03-31T09:05:16Z</time>
      </trkpt>
      <trkpt lat="42.70194" lon="1.95456">
        <ele>1601.69</ele>
        <time>2014-03-31T09:05:28Z</time>
      </trkpt>
      <trkpt lat="42.70188" lon="1.95462">
        <ele>1602.17</ele>
        <time>2014-03-31T09:05:39Z</time>
      </trkpt>
      <trkpt lat="42.70185" lon="1.95465">
        <ele>1603.62</ele>
        <time>2014-03-31T09:05:47Z</time>
      </trkpt>
      <trkpt lat="42.70182" lon="1.9547">
        <ele>1604.58</ele>
        <time>2014-03-31T09:05:56Z</time>
      </trkpt>
      <trkpt lat="42.70174" lon="1.95477">
        <ele>1606.98</ele>
        <time>2014-03-31T09:06:10Z</time>
      </trkpt>
      <trkpt lat="42.70167" lon="1.9548">
        <ele>1606.98</ele>
        <time>2014-03-31T09:06:21Z</time>
      </trkpt>
      <trkpt lat="42.70163" lon="1.9548">
        <ele>1607.46</ele>
        <time>2014-03-31T09:06:28Z</time>
      </trkpt>
      <trkpt lat="42.70157" lon="1.95481">
        <ele>1607.46</ele>
        <time>2014-03-31T09:06:34Z</time>
      </trkpt>
      <trkpt lat="42.70145" lon="1.95481">
        <ele>1607.94</ele>
        <time>2014-03-31T09:06:48Z</time>
      </trkpt>
      <trkpt lat="42.70138" lon="1.9548">
        <ele>1610.35</ele>
        <time>2014-03-31T09:07:01Z</time>
      </trkpt>
      <trkpt lat="42.70131" lon="1.95478">
        <ele>1611.79</ele>
        <time>2014-03-31T09:07:15Z</time>
      </trkpt>
      <trkpt lat="42.70129" lon="1.95477">
        <ele>1613.23</ele>
        <time>2014-03-31T09:07:28Z</time>
      </trkpt>
      <trkpt lat="42.70129" lon="1.95478">
        <ele>1610.83</ele>
        <time>2014-03-31T09:07:49Z</time>
      </trkpt>
      <trkpt lat="42.70129" lon="1.95477">
        <ele>1611.31</ele>
        <time>2014-03-31T09:08:14Z</time>
      </trkpt>
      <trkpt lat="42.70127" lon="1.95476">
        <ele>1614.67</ele>
        <time>2014-03-31T09:08:39Z</time>
      </trkpt>
      <trkpt lat="42.70128" lon="1.95477">
        <ele>1614.19</ele>
        <time>2014-03-31T09:08:51Z</time>
      </trkpt>
      <trkpt lat="42.70129" lon="1.95484">
        <ele>1614.19</ele>
        <time>2014-03-31T09:09:20Z</time>
      </trkpt>
      <trkpt lat="42.70131" lon="1.95482">
        <ele>1619.48</ele>
        <time>2014-03-31T09:09:47Z</time>
      </trkpt>
      <trkpt lat="42.70127" lon="1.95476">
        <ele>1617.07</ele>
        <time>2014-03-31T09:10:27Z</time>
      </trkpt>
      <trkpt lat="42.7013" lon="1.95472">
        <ele>1611.79</ele>
        <time>2014-03-31T09:10:53Z</time>
      </trkpt>
      <trkpt lat="42.70129" lon="1.95464">
        <ele>1613.71</ele>
        <time>2014-03-31T09:11:22Z</time>
      </trkpt>
      <trkpt lat="42.70127" lon="1.95459">
        <ele>1614.67</ele>
        <time>2014-03-31T09:11:58Z</time>
      </trkpt>
      <trkpt lat="42.70126" lon="1.95466">
        <ele>1609.38</ele>
        <time>2014-03-31T09:12:35Z</time>
      </trkpt>
      <trkpt lat="42.70125" lon="1.95469">
        <ele>1604.1</ele>
        <time>2014-03-31T09:13:12Z</time>
      </trkpt>
      <trkpt lat="42.70125" lon="1.95473">
        <ele>1599.77</ele>
        <time>2014-03-31T09:13:47Z</time>
      </trkpt>
      <trkpt lat="42.70127" lon="1.95473">
        <ele>1602.17</ele>
        <time>2014-03-31T09:14:08Z</time>
      </trkpt>
      <trkpt lat="42.70132" lon="1.95479">
        <ele>1606.5</ele>
        <time>2014-03-31T09:14:33Z</time>
      </trkpt>
      <trkpt lat="42.70131" lon="1.95473">
        <ele>1606.98</ele>
        <time>2014-03-31T09:14:58Z</time>
      </trkpt>
      <trkpt lat="42.70128" lon="1.95471">
        <ele>1607.94</ele>
        <time>2014-03-31T09:15:25Z</time>
      </trkpt>
      <trkpt lat="42.70127" lon="1.95473">
        <ele>1607.94</ele>
        <time>2014-03-31T09:15:42Z</time>
      </trkpt>
      <trkpt lat="42.70129" lon="1.95473">
        <ele>1609.86</ele>
        <time>2014-03-31T09:16:05Z</time>
      </trkpt>
      <trkpt lat="42.70126" lon="1.95476">
        <ele>1608.42</ele>
        <time>2014-03-31T09:16:19Z</time>
      </trkpt>
      <trkpt lat="42.70124" lon="1.95473">
        <ele>1607.94</ele>
        <time>2014-03-31T09:16:33Z</time>
      </trkpt>
      <trkpt lat="42.70122" lon="1.95467">
        <ele>1607.46</ele>
        <time>2014-03-31T09:16:46Z</time>
      </trkpt>
      <trkpt lat="42.70119" lon="1.95463">
        <ele>1606.98</ele>
        <time>2014-03-31T09:16:50Z</time>
      </trkpt>
      <trkpt lat="42.70114" lon="1.95458">
        <ele>1606.5</ele>
        <time>2014-03-31T09:16:56Z</time>
      </trkpt>
      <trkpt lat="42.70103" lon="1.9545">
        <ele>1606.5</ele>
        <time>2014-03-31T09:17:09Z</time>
      </trkpt>
      <trkpt lat="42.70094" lon="1.95444">
        <ele>1605.06</ele>
        <time>2014-03-31T09:17:21Z</time>
      </trkpt>
      <trkpt lat="42.70084" lon="1.95433">
        <ele>1604.58</ele>
        <time>2014-03-31T09:17:32Z</time>
      </trkpt>
      <trkpt lat="42.70083" lon="1.9543">
        <ele>1604.1</ele>
        <time>2014-03-31T09:17:42Z</time>
      </trkpt>
      <trkpt lat="42.70082" lon="1.95434">
        <ele>1603.62</ele>
        <time>2014-03-31T09:17:52Z</time>
      </trkpt>
      <trkpt lat="42.70076" lon="1.95443">
        <ele>1606.02</ele>
        <time>2014-03-31T09:18:04Z</time>
      </trkpt>
      <trkpt lat="42.70072" lon="1.95449">
        <ele>1607.94</ele>
        <time>2014-03-31T09:18:17Z</time>
      </trkpt>
      <trkpt lat="42.70072" lon="1.95457">
        <ele>1608.42</ele>
        <time>2014-03-31T09:18:26Z</time>
      </trkpt>
      <trkpt lat="42.70067" lon="1.95461">
        <ele>1609.86</ele>
        <time>2014-03-31T09:18:36Z</time>
      </trkpt>
      <trkpt lat="42.70063" lon="1.95462">
        <ele>1611.31</ele>
        <time>2014-03-31T09:18:46Z</time>
      </trkpt>
      <trkpt lat="42.70055" lon="1.95468">
        <ele>1612.75</ele>
        <time>2014-03-31T09:18:58Z</time>
      </trkpt>
      <trkpt lat="42.70056" lon="1.95477">
        <ele>1610.83</ele>
        <time>2014-03-31T09:19:08Z</time>
      </trkpt>
      <trkpt lat="42.70053" lon="1.95482">
        <ele>1612.75</ele>
        <time>2014-03-31T09:19:17Z</time>
      </trkpt>
      <trkpt lat="42.70053" lon="1.95493">
        <ele>1614.19</ele>
        <time>2014-03-31T09:19:30Z</time>
      </trkpt>
      <trkpt lat="42.70054" lon="1.95498">
        <ele>1615.15</ele>
        <time>2014-03-31T09:19:38Z</time>
      </trkpt>
      <trkpt lat="42.70055" lon="1.95505">
        <ele>1616.59</ele>
        <time>2014-03-31T09:19:49Z</time>
      </trkpt>
      <trkpt lat="42.70054" lon="1.95507">
        <ele>1617.07</ele>
        <time>2014-03-31T09:20:02Z</time>
      </trkpt>
      <trkpt lat="42.70055" lon="1.95506">
        <ele>1617.07</ele>
        <time>2014-03-31T09:20:23Z</time>
      </trkpt>
      <trkpt lat="42.70055" lon="1.95511">
        <ele>1618.04</ele>
        <time>2014-03-31T09:20:48Z</time>
      </trkpt>
      <trkpt lat="42.70055" lon="1.95517">
        <ele>1619</ele>
        <time>2014-03-31T09:21:03Z</time>
      </trkpt>
      <trkpt lat="42.70053" lon="1.95523">
        <ele>1619.96</ele>
        <time>2014-03-31T09:21:13Z</time>
      </trkpt>
      <trkpt lat="42.70052" lon="1.95525">
        <ele>1621.88</ele>
        <time>2014-03-31T09:21:29Z</time>
      </trkpt>
      <trkpt lat="42.70046" lon="1.95528">
        <ele>1621.4</ele>
        <time>2014-03-31T09:21:38Z</time>
      </trkpt>
      <trkpt lat="42.70039" lon="1.95537">
        <ele>1623.32</ele>
        <time>2014-03-31T09:21:49Z</time>
      </trkpt>
      <trkpt lat="42.70033" lon="1.95543">
        <ele>1624.77</ele>
        <time>2014-03-31T09:21:59Z</time>
      </trkpt>
      <trkpt lat="42.70031" lon="1.95545">
        <ele>1625.25</ele>
        <time>2014-03-31T09:22:02Z</time>
      </trkpt>
      <trkpt lat="42.70026" lon="1.95552">
        <ele>1628.61</ele>
        <time>2014-03-31T09:22:13Z</time>
      </trkpt>
      <trkpt lat="42.70026" lon="1.95557">
        <ele>1632.46</ele>
        <time>2014-03-31T09:22:25Z</time>
      </trkpt>
      <trkpt lat="42.70025" lon="1.95557">
        <ele>1635.34</ele>
        <time>2014-03-31T09:22:38Z</time>
      </trkpt>
      <trkpt lat="42.70026" lon="1.9556">
        <ele>1632.94</ele>
        <time>2014-03-31T09:22:53Z</time>
      </trkpt>
      <trkpt lat="42.70023" lon="1.9556">
        <ele>1629.57</ele>
        <time>2014-03-31T09:23:20Z</time>
      </trkpt>
      <trkpt lat="42.70024" lon="1.95558">
        <ele>1631.49</ele>
        <time>2014-03-31T09:23:45Z</time>
      </trkpt>
      <trkpt lat="42.70022" lon="1.95568">
        <ele>1632.94</ele>
        <time>2014-03-31T09:23:56Z</time>
      </trkpt>
      <trkpt lat="42.70019" lon="1.95574">
        <ele>1633.9</ele>
        <time>2014-03-31T09:24:01Z</time>
      </trkpt>
      <trkpt lat="42.70011" lon="1.95587">
        <ele>1637.26</ele>
        <time>2014-03-31T09:24:14Z</time>
      </trkpt>
      <trkpt lat="42.70006" lon="1.95597">
        <ele>1641.11</ele>
        <time>2014-03-31T09:24:26Z</time>
      </trkpt>
      <trkpt lat="42.69998" lon="1.95605">
        <ele>1642.55</ele>
        <time>2014-03-31T09:24:38Z</time>
      </trkpt>
      <trkpt lat="42.69993" lon="1.95612">
        <ele>1643.99</ele>
        <time>2014-03-31T09:24:50Z</time>
      </trkpt>
      <trkpt lat="42.69987" lon="1.95621">
        <ele>1645.43</ele>
        <time>2014-03-31T09:25:01Z</time>
      </trkpt>
      <trkpt lat="42.6998" lon="1.9563">
        <ele>1646.4</ele>
        <time>2014-03-31T09:25:13Z</time>
      </trkpt>
      <trkpt lat="42.69973" lon="1.95638">
        <ele>1648.8</ele>
        <time>2014-03-31T09:25:25Z</time>
      </trkpt>
      <trkpt lat="42.69967" lon="1.95645">
        <ele>1650.24</ele>
        <time>2014-03-31T09:25:37Z</time>
      </trkpt>
      <trkpt lat="42.69962" lon="1.95649">
        <ele>1652.16</ele>
        <time>2014-03-31T09:25:48Z</time>
      </trkpt>
      <trkpt lat="42.69961" lon="1.9565">
        <ele>1652.16</ele>
        <time>2014-03-31T09:25:49Z</time>
      </trkpt>
      <trkpt lat="42.69956" lon="1.95657">
        <ele>1654.09</ele>
        <time>2014-03-31T09:26:00Z</time>
      </trkpt>
      <trkpt lat="42.69951" lon="1.95665">
        <ele>1655.05</ele>
        <time>2014-03-31T09:26:09Z</time>
      </trkpt>
      <trkpt lat="42.69944" lon="1.9567">
        <ele>1656.49</ele>
        <time>2014-03-31T09:26:22Z</time>
      </trkpt>
      <trkpt lat="42.69936" lon="1.95676">
        <ele>1660.33</ele>
        <time>2014-03-31T09:26:34Z</time>
      </trkpt>
      <trkpt lat="42.69931" lon="1.9568">
        <ele>1661.78</ele>
        <time>2014-03-31T09:26:46Z</time>
      </trkpt>
      <trkpt lat="42.69925" lon="1.95685">
        <ele>1663.22</ele>
        <time>2014-03-31T09:26:57Z</time>
      </trkpt>
      <trkpt lat="42.69921" lon="1.9569">
        <ele>1665.62</ele>
        <time>2014-03-31T09:27:07Z</time>
      </trkpt>
      <trkpt lat="42.69914" lon="1.95697">
        <ele>1666.58</ele>
        <time>2014-03-31T09:27:17Z</time>
      </trkpt>
      <trkpt lat="42.69908" lon="1.95704">
        <ele>1667.06</ele>
        <time>2014-03-31T09:27:29Z</time>
      </trkpt>
      <trkpt lat="42.69903" lon="1.95709">
        <ele>1671.39</ele>
        <time>2014-03-31T09:27:40Z</time>
      </trkpt>
      <trkpt lat="42.699" lon="1.95712">
        <ele>1672.35</ele>
        <time>2014-03-31T09:27:45Z</time>
      </trkpt>
      <trkpt lat="42.69897" lon="1.95719">
        <ele>1676.2</ele>
        <time>2014-03-31T09:27:56Z</time>
      </trkpt>
      <trkpt lat="42.69889" lon="1.95724">
        <ele>1675.23</ele>
        <time>2014-03-31T09:28:10Z</time>
      </trkpt>
      <trkpt lat="42.69884" lon="1.95728">
        <ele>1674.75</ele>
        <time>2014-03-31T09:28:20Z</time>
      </trkpt>
      <trkpt lat="42.69882" lon="1.95729">
        <ele>1674.75</ele>
        <time>2014-03-31T09:28:23Z</time>
      </trkpt>
      <trkpt lat="42.69876" lon="1.95735">
        <ele>1677.16</ele>
        <time>2014-03-31T09:28:33Z</time>
      </trkpt>
      <trkpt lat="42.69876" lon="1.95737">
        <ele>1678.12</ele>
        <time>2014-03-31T09:28:42Z</time>
      </trkpt>
      <trkpt lat="42.69873" lon="1.95745">
        <ele>1678.6</ele>
        <time>2014-03-31T09:28:53Z</time>
      </trkpt>
      <trkpt lat="42.69869" lon="1.95749">
        <ele>1679.56</ele>
        <time>2014-03-31T09:29:02Z</time>
      </trkpt>
      <trkpt lat="42.6986" lon="1.95752">
        <ele>1682.44</ele>
        <time>2014-03-31T09:29:18Z</time>
      </trkpt>
      <trkpt lat="42.6985" lon="1.95752">
        <ele>1683.41</ele>
        <time>2014-03-31T09:29:32Z</time>
      </trkpt>
      <trkpt lat="42.69842" lon="1.95752">
        <ele>1686.29</ele>
        <time>2014-03-31T09:29:44Z</time>
      </trkpt>
      <trkpt lat="42.69841" lon="1.95753">
        <ele>1686.77</ele>
        <time>2014-03-31T09:29:45Z</time>
      </trkpt>
      <trkpt lat="42.69837" lon="1.95762">
        <ele>1686.77</ele>
        <time>2014-03-31T09:29:57Z</time>
      </trkpt>
      <trkpt lat="42.69829" lon="1.95766">
        <ele>1690.14</ele>
        <time>2014-03-31T09:30:11Z</time>
      </trkpt>
      <trkpt lat="42.69823" lon="1.9577">
        <ele>1693.02</ele>
        <time>2014-03-31T09:30:21Z</time>
      </trkpt>
      <trkpt lat="42.69819" lon="1.95775">
        <ele>1695.9</ele>
        <time>2014-03-31T09:30:32Z</time>
      </trkpt>
      <trkpt lat="42.69813" lon="1.95784">
        <ele>1696.38</ele>
        <time>2014-03-31T09:30:44Z</time>
      </trkpt>
      <trkpt lat="42.69805" lon="1.9579">
        <ele>1698.31</ele>
        <time>2014-03-31T09:30:58Z</time>
      </trkpt>
      <trkpt lat="42.698" lon="1.95794">
        <ele>1698.79</ele>
        <time>2014-03-31T09:31:06Z</time>
      </trkpt>
      <trkpt lat="42.69795" lon="1.958">
        <ele>1701.19</ele>
        <time>2014-03-31T09:31:17Z</time>
      </trkpt>
      <trkpt lat="42.69789" lon="1.95803">
        <ele>1704.07</ele>
        <time>2014-03-31T09:31:28Z</time>
      </trkpt>
      <trkpt lat="42.69784" lon="1.95806">
        <ele>1707.44</ele>
        <time>2014-03-31T09:31:40Z</time>
      </trkpt>
      <trkpt lat="42.69777" lon="1.95812">
        <ele>1707.92</ele>
        <time>2014-03-31T09:31:52Z</time>
      </trkpt>
      <trkpt lat="42.69769" lon="1.95817">
        <ele>1710.32</ele>
        <time>2014-03-31T09:32:05Z</time>
      </trkpt>
      <trkpt lat="42.69765" lon="1.95835">
        <ele>1708.4</ele>
        <time>2014-03-31T09:32:24Z</time>
      </trkpt>
      <trkpt lat="42.69764" lon="1.95841">
        <ele>1709.36</ele>
        <time>2014-03-31T09:32:46Z</time>
      </trkpt>
      <trkpt lat="42.69769" lon="1.95826">
        <ele>1710.32</ele>
        <time>2014-03-31T09:33:12Z</time>
      </trkpt>
      <trkpt lat="42.69767" lon="1.95833">
        <ele>1708.4</ele>
        <time>2014-03-31T09:33:27Z</time>
      </trkpt>
      <trkpt lat="42.69765" lon="1.95835">
        <ele>1707.92</ele>
        <time>2014-03-31T09:33:39Z</time>
      </trkpt>
      <trkpt lat="42.69763" lon="1.95836">
        <ele>1708.4</ele>
        <time>2014-03-31T09:33:42Z</time>
      </trkpt>
      <trkpt lat="42.69757" lon="1.95848">
        <ele>1706.96</ele>
        <time>2014-03-31T09:33:54Z</time>
      </trkpt>
      <trkpt lat="42.69752" lon="1.95857">
        <ele>1708.4</ele>
        <time>2014-03-31T09:34:06Z</time>
      </trkpt>
      <trkpt lat="42.69751" lon="1.9586">
        <ele>1708.88</ele>
        <time>2014-03-31T09:34:11Z</time>
      </trkpt>
      <trkpt lat="42.69748" lon="1.95864">
        <ele>1709.36</ele>
        <time>2014-03-31T09:34:15Z</time>
      </trkpt>
      <trkpt lat="42.69747" lon="1.95868">
        <ele>1710.32</ele>
        <time>2014-03-31T09:34:20Z</time>
      </trkpt>
      <trkpt lat="42.69745" lon="1.95876">
        <ele>1712.73</ele>
        <time>2014-03-31T09:34:32Z</time>
      </trkpt>
      <trkpt lat="42.69741" lon="1.95886">
        <ele>1712.25</ele>
        <time>2014-03-31T09:34:43Z</time>
      </trkpt>
      <trkpt lat="42.69737" lon="1.95897">
        <ele>1713.69</ele>
        <time>2014-03-31T09:34:56Z</time>
      </trkpt>
      <trkpt lat="42.69736" lon="1.95898">
        <ele>1713.69</ele>
        <time>2014-03-31T09:34:57Z</time>
      </trkpt>
      <trkpt lat="42.69732" lon="1.959">
        <ele>1717.05</ele>
        <time>2014-03-31T09:35:09Z</time>
      </trkpt>
      <trkpt lat="42.69733" lon="1.95903">
        <ele>1719.46</ele>
        <time>2014-03-31T09:35:30Z</time>
      </trkpt>
      <trkpt lat="42.6973" lon="1.9591">
        <ele>1721.86</ele>
        <time>2014-03-31T09:35:40Z</time>
      </trkpt>
      <trkpt lat="42.69727" lon="1.95911">
        <ele>1722.82</ele>
        <time>2014-03-31T09:35:44Z</time>
      </trkpt>
      <trkpt lat="42.69725" lon="1.95913">
        <ele>1722.82</ele>
        <time>2014-03-31T09:35:54Z</time>
      </trkpt>
      <trkpt lat="42.69726" lon="1.95913">
        <ele>1724.74</ele>
        <time>2014-03-31T09:36:14Z</time>
      </trkpt>
      <trkpt lat="42.69725" lon="1.95917">
        <ele>1723.3</ele>
        <time>2014-03-31T09:36:34Z</time>
      </trkpt>
      <trkpt lat="42.69728" lon="1.95913">
        <ele>1723.78</ele>
        <time>2014-03-31T09:36:54Z</time>
      </trkpt>
      <trkpt lat="42.69725" lon="1.95911">
        <ele>1725.7</ele>
        <time>2014-03-31T09:37:04Z</time>
      </trkpt>
      <trkpt lat="42.69724" lon="1.95913">
        <ele>1722.82</ele>
        <time>2014-03-31T09:37:12Z</time>
      </trkpt>
      <trkpt lat="42.69723" lon="1.95916">
        <ele>1721.86</ele>
        <time>2014-03-31T09:37:16Z</time>
      </trkpt>
      <trkpt lat="42.69723" lon="1.95919">
        <ele>1722.34</ele>
        <time>2014-03-31T09:37:19Z</time>
      </trkpt>
      <trkpt lat="42.69719" lon="1.95924">
        <ele>1724.26</ele>
        <time>2014-03-31T09:37:28Z</time>
      </trkpt>
      <trkpt lat="42.69716" lon="1.95927">
        <ele>1725.22</ele>
        <time>2014-03-31T09:37:33Z</time>
      </trkpt>
      <trkpt lat="42.69715" lon="1.95931">
        <ele>1728.11</ele>
        <time>2014-03-31T09:37:43Z</time>
      </trkpt>
      <trkpt lat="42.69712" lon="1.95935">
        <ele>1730.99</ele>
        <time>2014-03-31T09:37:54Z</time>
      </trkpt>
      <trkpt lat="42.6971" lon="1.95939">
        <ele>1730.99</ele>
        <time>2014-03-31T09:38:00Z</time>
      </trkpt>
      <trkpt lat="42.69705" lon="1.95944">
        <ele>1732.91</ele>
        <time>2014-03-31T09:38:15Z</time>
      </trkpt>
      <trkpt lat="42.69703" lon="1.95948">
        <ele>1732.91</ele>
        <time>2014-03-31T09:38:26Z</time>
      </trkpt>
      <trkpt lat="42.69697" lon="1.95951">
        <ele>1736.76</ele>
        <time>2014-03-31T09:38:40Z</time>
      </trkpt>
      <trkpt lat="42.69691" lon="1.95953">
        <ele>1739.16</ele>
        <time>2014-03-31T09:38:52Z</time>
      </trkpt>
      <trkpt lat="42.69686" lon="1.95952">
        <ele>1744.45</ele>
        <time>2014-03-31T09:39:05Z</time>
      </trkpt>
      <trkpt lat="42.69681" lon="1.95955">
        <ele>1745.89</ele>
        <time>2014-03-31T09:39:17Z</time>
      </trkpt>
      <trkpt lat="42.69677" lon="1.95958">
        <ele>1748.78</ele>
        <time>2014-03-31T09:39:28Z</time>
      </trkpt>
      <trkpt lat="42.69673" lon="1.95965">
        <ele>1751.18</ele>
        <time>2014-03-31T09:39:40Z</time>
      </trkpt>
      <trkpt lat="42.69668" lon="1.95967">
        <ele>1753.1</ele>
        <time>2014-03-31T09:39:54Z</time>
      </trkpt>
      <trkpt lat="42.69667" lon="1.9597">
        <ele>1754.06</ele>
        <time>2014-03-31T09:40:03Z</time>
      </trkpt>
      <trkpt lat="42.69663" lon="1.95979">
        <ele>1755.02</ele>
        <time>2014-03-31T09:40:17Z</time>
      </trkpt>
      <trkpt lat="42.6966" lon="1.95986">
        <ele>1756.95</ele>
        <time>2014-03-31T09:40:29Z</time>
      </trkpt>
      <trkpt lat="42.69659" lon="1.9599">
        <ele>1756.95</ele>
        <time>2014-03-31T09:40:34Z</time>
      </trkpt>
      <trkpt lat="42.69652" lon="1.96003">
        <ele>1755.5</ele>
        <time>2014-03-31T09:40:48Z</time>
      </trkpt>
      <trkpt lat="42.69648" lon="1.96011">
        <ele>1755.99</ele>
        <time>2014-03-31T09:40:57Z</time>
      </trkpt>
      <trkpt lat="42.69645" lon="1.9602">
        <ele>1758.87</ele>
        <time>2014-03-31T09:41:09Z</time>
      </trkpt>
      <trkpt lat="42.69642" lon="1.96026">
        <ele>1759.35</ele>
        <time>2014-03-31T09:41:23Z</time>
      </trkpt>
      <trkpt lat="42.69639" lon="1.96037">
        <ele>1760.31</ele>
        <time>2014-03-31T09:41:34Z</time>
      </trkpt>
      <trkpt lat="42.69636" lon="1.96048">
        <ele>1761.75</ele>
        <time>2014-03-31T09:41:49Z</time>
      </trkpt>
      <trkpt lat="42.69634" lon="1.96059">
        <ele>1763.2</ele>
        <time>2014-03-31T09:41:59Z</time>
      </trkpt>
      <trkpt lat="42.69631" lon="1.96062">
        <ele>1765.12</ele>
        <time>2014-03-31T09:42:10Z</time>
      </trkpt>
      <trkpt lat="42.69628" lon="1.9607">
        <ele>1766.08</ele>
        <time>2014-03-31T09:42:20Z</time>
      </trkpt>
      <trkpt lat="42.69627" lon="1.96077">
        <ele>1768</ele>
        <time>2014-03-31T09:42:30Z</time>
      </trkpt>
      <trkpt lat="42.69624" lon="1.96083">
        <ele>1769.92</ele>
        <time>2014-03-31T09:42:40Z</time>
      </trkpt>
      <trkpt lat="42.69623" lon="1.9609">
        <ele>1772.33</ele>
        <time>2014-03-31T09:42:51Z</time>
      </trkpt>
      <trkpt lat="42.69619" lon="1.96094">
        <ele>1775.21</ele>
        <time>2014-03-31T09:43:01Z</time>
      </trkpt>
      <trkpt lat="42.69615" lon="1.961">
        <ele>1779.06</ele>
        <time>2014-03-31T09:43:13Z</time>
      </trkpt>
      <trkpt lat="42.69612" lon="1.96104">
        <ele>1784.34</ele>
        <time>2014-03-31T09:43:25Z</time>
      </trkpt>
      <trkpt lat="42.69609" lon="1.96109">
        <ele>1788.67</ele>
        <time>2014-03-31T09:43:36Z</time>
      </trkpt>
      <trkpt lat="42.69608" lon="1.96117">
        <ele>1792.52</ele>
        <time>2014-03-31T09:43:48Z</time>
      </trkpt>
      <trkpt lat="42.69602" lon="1.9612">
        <ele>1795.88</ele>
        <time>2014-03-31T09:43:59Z</time>
      </trkpt>
      <trkpt lat="42.69597" lon="1.96128">
        <ele>1795.88</ele>
        <time>2014-03-31T09:44:09Z</time>
      </trkpt>
      <trkpt lat="42.6959" lon="1.96134">
        <ele>1794.44</ele>
        <time>2014-03-31T09:44:25Z</time>
      </trkpt>
      <trkpt lat="42.69586" lon="1.96138">
        <ele>1796.84</ele>
        <time>2014-03-31T09:44:38Z</time>
      </trkpt>
      <trkpt lat="42.69582" lon="1.96143">
        <ele>1797.8</ele>
        <time>2014-03-31T09:44:48Z</time>
      </trkpt>
      <trkpt lat="42.69577" lon="1.96147">
        <ele>1800.69</ele>
        <time>2014-03-31T09:45:04Z</time>
      </trkpt>
      <trkpt lat="42.69572" lon="1.96147">
        <ele>1807.42</ele>
        <time>2014-03-31T09:45:15Z</time>
      </trkpt>
      <trkpt lat="42.69571" lon="1.96148">
        <ele>1808.38</ele>
        <time>2014-03-31T09:45:17Z</time>
      </trkpt>
      <trkpt lat="42.69566" lon="1.96148">
        <ele>1810.3</ele>
        <time>2014-03-31T09:45:27Z</time>
      </trkpt>
      <trkpt lat="42.69564" lon="1.96152">
        <ele>1814.63</ele>
        <time>2014-03-31T09:45:37Z</time>
      </trkpt>
      <trkpt lat="42.69561" lon="1.96163">
        <ele>1815.59</ele>
        <time>2014-03-31T09:45:53Z</time>
      </trkpt>
      <trkpt lat="42.69555" lon="1.96167">
        <ele>1816.07</ele>
        <time>2014-03-31T09:46:08Z</time>
      </trkpt>
      <trkpt lat="42.69548" lon="1.96174">
        <ele>1815.59</ele>
        <time>2014-03-31T09:46:23Z</time>
      </trkpt>
      <trkpt lat="42.69537" lon="1.96177">
        <ele>1816.07</ele>
        <time>2014-03-31T09:46:42Z</time>
      </trkpt>
      <trkpt lat="42.69529" lon="1.96178">
        <ele>1817.51</ele>
        <time>2014-03-31T09:46:53Z</time>
      </trkpt>
      <trkpt lat="42.69521" lon="1.96183">
        <ele>1820.39</ele>
        <time>2014-03-31T09:47:07Z</time>
      </trkpt>
      <trkpt lat="42.69517" lon="1.96186">
        <ele>1830.01</ele>
        <time>2014-03-31T09:47:17Z</time>
      </trkpt>
      <trkpt lat="42.69513" lon="1.96186">
        <ele>1836.26</ele>
        <time>2014-03-31T09:47:28Z</time>
      </trkpt>
      <trkpt lat="42.69505" lon="1.96194">
        <ele>1842.5</ele>
        <time>2014-03-31T09:47:39Z</time>
      </trkpt>
      <trkpt lat="42.69499" lon="1.96197">
        <ele>1847.79</ele>
        <time>2014-03-31T09:47:51Z</time>
      </trkpt>
      <trkpt lat="42.69496" lon="1.96204">
        <ele>1849.71</ele>
        <time>2014-03-31T09:48:02Z</time>
      </trkpt>
      <trkpt lat="42.69495" lon="1.96207">
        <ele>1850.68</ele>
        <time>2014-03-31T09:48:06Z</time>
      </trkpt>
      <trkpt lat="42.69494" lon="1.96216">
        <ele>1854.04</ele>
        <time>2014-03-31T09:48:17Z</time>
      </trkpt>
      <trkpt lat="42.69488" lon="1.96222">
        <ele>1856.92</ele>
        <time>2014-03-31T09:48:29Z</time>
      </trkpt>
      <trkpt lat="42.69482" lon="1.96228">
        <ele>1859.33</ele>
        <time>2014-03-31T09:48:40Z</time>
      </trkpt>
      <trkpt lat="42.69481" lon="1.96239">
        <ele>1862.21</ele>
        <time>2014-03-31T09:48:51Z</time>
      </trkpt>
      <trkpt lat="42.69476" lon="1.96248">
        <ele>1861.73</ele>
        <time>2014-03-31T09:49:03Z</time>
      </trkpt>
      <trkpt lat="42.69472" lon="1.96251">
        <ele>1862.69</ele>
        <time>2014-03-31T09:49:10Z</time>
      </trkpt>
      <trkpt lat="42.69466" lon="1.96258">
        <ele>1865.58</ele>
        <time>2014-03-31T09:49:22Z</time>
      </trkpt>
      <trkpt lat="42.69465" lon="1.96263">
        <ele>1867.02</ele>
        <time>2014-03-31T09:49:27Z</time>
      </trkpt>
      <trkpt lat="42.69458" lon="1.96269">
        <ele>1869.42</ele>
        <time>2014-03-31T09:49:38Z</time>
      </trkpt>
      <trkpt lat="42.69453" lon="1.96277">
        <ele>1871.82</ele>
        <time>2014-03-31T09:49:50Z</time>
      </trkpt>
      <trkpt lat="42.69445" lon="1.96285">
        <ele>1872.79</ele>
        <time>2014-03-31T09:50:02Z</time>
      </trkpt>
      <trkpt lat="42.69441" lon="1.96295">
        <ele>1873.27</ele>
        <time>2014-03-31T09:50:13Z</time>
      </trkpt>
      <trkpt lat="42.69429" lon="1.96302">
        <ele>1873.27</ele>
        <time>2014-03-31T09:50:26Z</time>
      </trkpt>
      <trkpt lat="42.69417" lon="1.96312">
        <ele>1873.27</ele>
        <time>2014-03-31T09:50:38Z</time>
      </trkpt>
      <trkpt lat="42.69411" lon="1.9632">
        <ele>1874.71</ele>
        <time>2014-03-31T09:50:49Z</time>
      </trkpt>
      <trkpt lat="42.69403" lon="1.96324">
        <ele>1876.15</ele>
        <time>2014-03-31T09:51:01Z</time>
      </trkpt>
      <trkpt lat="42.69397" lon="1.96326">
        <ele>1878.07</ele>
        <time>2014-03-31T09:51:11Z</time>
      </trkpt>
      <trkpt lat="42.69388" lon="1.96327">
        <ele>1882.4</ele>
        <time>2014-03-31T09:51:24Z</time>
      </trkpt>
      <trkpt lat="42.69385" lon="1.96326">
        <ele>1883.84</ele>
        <time>2014-03-31T09:51:31Z</time>
      </trkpt>
      <trkpt lat="42.69377" lon="1.96328">
        <ele>1886.24</ele>
        <time>2014-03-31T09:51:42Z</time>
      </trkpt>
      <trkpt lat="42.69369" lon="1.96331">
        <ele>1889.61</ele>
        <time>2014-03-31T09:51:54Z</time>
      </trkpt>
      <trkpt lat="42.69361" lon="1.96333">
        <ele>1892.97</ele>
        <time>2014-03-31T09:52:06Z</time>
      </trkpt>
      <trkpt lat="42.69353" lon="1.96334">
        <ele>1896.82</ele>
        <time>2014-03-31T09:52:17Z</time>
      </trkpt>
      <trkpt lat="42.69348" lon="1.96338">
        <ele>1899.22</ele>
        <time>2014-03-31T09:52:25Z</time>
      </trkpt>
      <trkpt lat="42.69342" lon="1.96344">
        <ele>1901.14</ele>
        <time>2014-03-31T09:52:37Z</time>
      </trkpt>
      <trkpt lat="42.69334" lon="1.96349">
        <ele>1904.99</ele>
        <time>2014-03-31T09:52:49Z</time>
      </trkpt>
      <trkpt lat="42.69331" lon="1.96351">
        <ele>1905.47</ele>
        <time>2014-03-31T09:52:52Z</time>
      </trkpt>
      <trkpt lat="42.69324" lon="1.96357">
        <ele>1906.91</ele>
        <time>2014-03-31T09:53:03Z</time>
      </trkpt>
      <trkpt lat="42.69318" lon="1.96361">
        <ele>1908.35</ele>
        <time>2014-03-31T09:53:16Z</time>
      </trkpt>
      <trkpt lat="42.69318" lon="1.96363">
        <ele>1908.35</ele>
        <time>2014-03-31T09:53:30Z</time>
      </trkpt>
      <trkpt lat="42.69318" lon="1.96366">
        <ele>1906.43</ele>
        <time>2014-03-31T09:53:51Z</time>
      </trkpt>
      <trkpt lat="42.69318" lon="1.96365">
        <ele>1905.47</ele>
        <time>2014-03-31T09:54:09Z</time>
      </trkpt>
      <trkpt lat="42.69302" lon="1.96372">
        <ele>1907.39</ele>
        <time>2014-03-31T09:54:24Z</time>
      </trkpt>
      <trkpt lat="42.69293" lon="1.96376">
        <ele>1909.32</ele>
        <time>2014-03-31T09:54:33Z</time>
      </trkpt>
      <trkpt lat="42.69282" lon="1.96377">
        <ele>1910.76</ele>
        <time>2014-03-31T09:54:45Z</time>
      </trkpt>
      <trkpt lat="42.6928" lon="1.96379">
        <ele>1910.28</ele>
        <time>2014-03-31T09:54:56Z</time>
      </trkpt>
      <trkpt lat="42.69281" lon="1.96381">
        <ele>1910.76</ele>
        <time>2014-03-31T09:55:12Z</time>
      </trkpt>
      <trkpt lat="42.6928" lon="1.96382">
        <ele>1910.76</ele>
        <time>2014-03-31T09:55:21Z</time>
      </trkpt>
      <trkpt lat="42.69279" lon="1.96382">
        <ele>1909.8</ele>
        <time>2014-03-31T09:55:31Z</time>
      </trkpt>
      <trkpt lat="42.69277" lon="1.96382">
        <ele>1910.28</ele>
        <time>2014-03-31T09:55:33Z</time>
      </trkpt>
      <trkpt lat="42.69265" lon="1.96388">
        <ele>1910.76</ele>
        <time>2014-03-31T09:55:46Z</time>
      </trkpt>
      <trkpt lat="42.69265" lon="1.96388">
        <ele>1910.76</ele>
        <time>2014-03-31T09:55:47Z</time>
      </trkpt>
      <trkpt lat="42.69258" lon="1.96392">
        <ele>1911.24</ele>
        <time>2014-03-31T09:55:53Z</time>
      </trkpt>
      <trkpt lat="42.69247" lon="1.96397">
        <ele>1912.2</ele>
        <time>2014-03-31T09:56:03Z</time>
      </trkpt>
      <trkpt lat="42.69242" lon="1.96403">
        <ele>1912.68</ele>
        <time>2014-03-31T09:56:10Z</time>
      </trkpt>
      <trkpt lat="42.69238" lon="1.96415">
        <ele>1914.12</ele>
        <time>2014-03-31T09:56:18Z</time>
      </trkpt>
      <trkpt lat="42.69234" lon="1.9643">
        <ele>1916.04</ele>
        <time>2014-03-31T09:56:29Z</time>
      </trkpt>
      <trkpt lat="42.69228" lon="1.96444">
        <ele>1917.49</ele>
        <time>2014-03-31T09:56:39Z</time>
      </trkpt>
      <trkpt lat="42.69218" lon="1.96455">
        <ele>1917.97</ele>
        <time>2014-03-31T09:56:52Z</time>
      </trkpt>
      <trkpt lat="42.6921" lon="1.96466">
        <ele>1918.45</ele>
        <time>2014-03-31T09:57:05Z</time>
      </trkpt>
      <trkpt lat="42.69205" lon="1.96473">
        <ele>1918.93</ele>
        <time>2014-03-31T09:57:17Z</time>
      </trkpt>
      <trkpt lat="42.69199" lon="1.9648">
        <ele>1920.85</ele>
        <time>2014-03-31T09:57:30Z</time>
      </trkpt>
      <trkpt lat="42.692" lon="1.96479">
        <ele>1915.56</ele>
        <time>2014-03-31T09:58:03Z</time>
      </trkpt>
      <trkpt lat="42.692" lon="1.96479">
        <ele>1916.04</ele>
        <time>2014-03-31T09:58:05Z</time>
      </trkpt>
      <trkpt lat="42.69197" lon="1.96481">
        <ele>1916.53</ele>
        <time>2014-03-31T09:58:07Z</time>
      </trkpt>
      <trkpt lat="42.69195" lon="1.96484">
        <ele>1917.01</ele>
        <time>2014-03-31T09:58:10Z</time>
      </trkpt>
      <trkpt lat="42.69186" lon="1.96494">
        <ele>1919.41</ele>
        <time>2014-03-31T09:58:22Z</time>
      </trkpt>
      <trkpt lat="42.69179" lon="1.96502">
        <ele>1922.77</ele>
        <time>2014-03-31T09:58:32Z</time>
      </trkpt>
      <trkpt lat="42.6917" lon="1.96511">
        <ele>1924.7</ele>
        <time>2014-03-31T09:58:44Z</time>
      </trkpt>
      <trkpt lat="42.69166" lon="1.96514">
        <ele>1925.66</ele>
        <time>2014-03-31T09:58:49Z</time>
      </trkpt>
      <trkpt lat="42.69157" lon="1.96523">
        <ele>1927.58</ele>
        <time>2014-03-31T09:59:02Z</time>
      </trkpt>
      <trkpt lat="42.69148" lon="1.96527">
        <ele>1929.98</ele>
        <time>2014-03-31T09:59:14Z</time>
      </trkpt>
      <trkpt lat="42.69145" lon="1.9653">
        <ele>1930.95</ele>
        <time>2014-03-31T09:59:28Z</time>
      </trkpt>
      <trkpt lat="42.69146" lon="1.96532">
        <ele>1931.91</ele>
        <time>2014-03-31T09:59:57Z</time>
      </trkpt>
      <trkpt lat="42.69143" lon="1.96532">
        <ele>1932.87</ele>
        <time>2014-03-31T09:59:59Z</time>
      </trkpt>
      <trkpt lat="42.69136" lon="1.96534">
        <ele>1933.83</ele>
        <time>2014-03-31T10:00:07Z</time>
      </trkpt>
      <trkpt lat="42.69127" lon="1.96538">
        <ele>1935.27</ele>
        <time>2014-03-31T10:00:17Z</time>
      </trkpt>
      <trkpt lat="42.69122" lon="1.96539">
        <ele>1936.71</ele>
        <time>2014-03-31T10:00:24Z</time>
      </trkpt>
      <trkpt lat="42.69117" lon="1.9654">
        <ele>1936.71</ele>
        <time>2014-03-31T10:00:31Z</time>
      </trkpt>
      <trkpt lat="42.69107" lon="1.96536">
        <ele>1942.48</ele>
        <time>2014-03-31T10:00:42Z</time>
      </trkpt>
      <trkpt lat="42.69104" lon="1.96536">
        <ele>1944.4</ele>
        <time>2014-03-31T10:00:52Z</time>
      </trkpt>
      <trkpt lat="42.69101" lon="1.96542">
        <ele>1947.29</ele>
        <time>2014-03-31T10:01:03Z</time>
      </trkpt>
      <trkpt lat="42.69095" lon="1.9655">
        <ele>1948.73</ele>
        <time>2014-03-31T10:01:13Z</time>
      </trkpt>
      <trkpt lat="42.69091" lon="1.96555">
        <ele>1948.73</ele>
        <time>2014-03-31T10:01:23Z</time>
      </trkpt>
      <trkpt lat="42.69085" lon="1.96561">
        <ele>1949.21</ele>
        <time>2014-03-31T10:01:35Z</time>
      </trkpt>
      <trkpt lat="42.6908" lon="1.96566">
        <ele>1951.13</ele>
        <time>2014-03-31T10:01:45Z</time>
      </trkpt>
      <trkpt lat="42.69074" lon="1.96571">
        <ele>1953.06</ele>
        <time>2014-03-31T10:01:56Z</time>
      </trkpt>
      <trkpt lat="42.69067" lon="1.96577">
        <ele>1954.5</ele>
        <time>2014-03-31T10:02:07Z</time>
      </trkpt>
      <trkpt lat="42.69061" lon="1.96583">
        <ele>1955.46</ele>
        <time>2014-03-31T10:02:18Z</time>
      </trkpt>
      <trkpt lat="42.69056" lon="1.96587">
        <ele>1956.9</ele>
        <time>2014-03-31T10:02:29Z</time>
      </trkpt>
      <trkpt lat="42.69051" lon="1.96593">
        <ele>1958.82</ele>
        <time>2014-03-31T10:02:40Z</time>
      </trkpt>
      <trkpt lat="42.69049" lon="1.96597">
        <ele>1960.75</ele>
        <time>2014-03-31T10:02:52Z</time>
      </trkpt>
      <trkpt lat="42.6905" lon="1.96592">
        <ele>1964.59</ele>
        <time>2014-03-31T10:03:19Z</time>
      </trkpt>
      <trkpt lat="42.69049" lon="1.96596">
        <ele>1965.07</ele>
        <time>2014-03-31T10:03:25Z</time>
      </trkpt>
      <trkpt lat="42.69041" lon="1.96607">
        <ele>1966.51</ele>
        <time>2014-03-31T10:03:37Z</time>
      </trkpt>
      <trkpt lat="42.69036" lon="1.96619">
        <ele>1966.99</ele>
        <time>2014-03-31T10:03:49Z</time>
      </trkpt>
      <trkpt lat="42.69025" lon="1.96631">
        <ele>1968.92</ele>
        <time>2014-03-31T10:04:02Z</time>
      </trkpt>
      <trkpt lat="42.69018" lon="1.96641">
        <ele>1969.4</ele>
        <time>2014-03-31T10:04:14Z</time>
      </trkpt>
      <trkpt lat="42.69011" lon="1.9665">
        <ele>1970.84</ele>
        <time>2014-03-31T10:04:26Z</time>
      </trkpt>
      <trkpt lat="42.69001" lon="1.96655">
        <ele>1973.24</ele>
        <time>2014-03-31T10:04:38Z</time>
      </trkpt>
      <trkpt lat="42.68993" lon="1.9666">
        <ele>1976.13</ele>
        <time>2014-03-31T10:04:50Z</time>
      </trkpt>
      <trkpt lat="42.68986" lon="1.96664">
        <ele>1979.01</ele>
        <time>2014-03-31T10:05:01Z</time>
      </trkpt>
      <trkpt lat="42.6898" lon="1.96673">
        <ele>1980.45</ele>
        <time>2014-03-31T10:05:13Z</time>
      </trkpt>
      <trkpt lat="42.68973" lon="1.96679">
        <ele>1982.38</ele>
        <time>2014-03-31T10:05:25Z</time>
      </trkpt>
      <trkpt lat="42.68967" lon="1.96679">
        <ele>1985.26</ele>
        <time>2014-03-31T10:05:35Z</time>
      </trkpt>
      <trkpt lat="42.68963" lon="1.96686">
        <ele>1986.7</ele>
        <time>2014-03-31T10:05:46Z</time>
      </trkpt>
      <trkpt lat="42.68957" lon="1.96687">
        <ele>1989.1</ele>
        <time>2014-03-31T10:05:57Z</time>
      </trkpt>
      <trkpt lat="42.68953" lon="1.96691">
        <ele>1991.03</ele>
        <time>2014-03-31T10:06:09Z</time>
      </trkpt>
      <trkpt lat="42.68947" lon="1.96698">
        <ele>1997.28</ele>
        <time>2014-03-31T10:06:20Z</time>
      </trkpt>
      <trkpt lat="42.68941" lon="1.96701">
        <ele>2001.12</ele>
        <time>2014-03-31T10:06:31Z</time>
      </trkpt>
      <trkpt lat="42.68938" lon="1.96704">
        <ele>2004.97</ele>
        <time>2014-03-31T10:06:41Z</time>
      </trkpt>
      <trkpt lat="42.68933" lon="1.9671">
        <ele>2004.97</ele>
        <time>2014-03-31T10:06:52Z</time>
      </trkpt>
      <trkpt lat="42.68928" lon="1.96715">
        <ele>2006.41</ele>
        <time>2014-03-31T10:07:03Z</time>
      </trkpt>
      <trkpt lat="42.68924" lon="1.96721">
        <ele>2006.89</ele>
        <time>2014-03-31T10:07:13Z</time>
      </trkpt>
      <trkpt lat="42.68919" lon="1.96728">
        <ele>2007.85</ele>
        <time>2014-03-31T10:07:25Z</time>
      </trkpt>
      <trkpt lat="42.68915" lon="1.96733">
        <ele>2009.29</ele>
        <time>2014-03-31T10:07:36Z</time>
      </trkpt>
      <trkpt lat="42.68914" lon="1.96734">
        <ele>2010.25</ele>
        <time>2014-03-31T10:07:39Z</time>
      </trkpt>
      <trkpt lat="42.68908" lon="1.96741">
        <ele>2011.7</ele>
        <time>2014-03-31T10:07:50Z</time>
      </trkpt>
      <trkpt lat="42.68902" lon="1.96746">
        <ele>2013.14</ele>
        <time>2014-03-31T10:08:01Z</time>
      </trkpt>
      <trkpt lat="42.689" lon="1.96749">
        <ele>2014.58</ele>
        <time>2014-03-31T10:08:08Z</time>
      </trkpt>
      <trkpt lat="42.68893" lon="1.96755">
        <ele>2016.02</ele>
        <time>2014-03-31T10:08:20Z</time>
      </trkpt>
      <trkpt lat="42.68888" lon="1.9676">
        <ele>2018.91</ele>
        <time>2014-03-31T10:08:31Z</time>
      </trkpt>
      <trkpt lat="42.68887" lon="1.96761">
        <ele>2018.91</ele>
        <time>2014-03-31T10:08:32Z</time>
      </trkpt>
      <trkpt lat="42.68881" lon="1.96768">
        <ele>2021.79</ele>
        <time>2014-03-31T10:08:44Z</time>
      </trkpt>
      <trkpt lat="42.68878" lon="1.96771">
        <ele>2022.27</ele>
        <time>2014-03-31T10:08:49Z</time>
      </trkpt>
      <trkpt lat="42.68873" lon="1.96776">
        <ele>2024.19</ele>
        <time>2014-03-31T10:08:58Z</time>
      </trkpt>
      <trkpt lat="42.68867" lon="1.9678">
        <ele>2025.64</ele>
        <time>2014-03-31T10:09:09Z</time>
      </trkpt>
      <trkpt lat="42.68861" lon="1.96784">
        <ele>2028.04</ele>
        <time>2014-03-31T10:09:20Z</time>
      </trkpt>
      <trkpt lat="42.68855" lon="1.96789">
        <ele>2031.4</ele>
        <time>2014-03-31T10:09:31Z</time>
      </trkpt>
      <trkpt lat="42.68848" lon="1.96793">
        <ele>2034.29</ele>
        <time>2014-03-31T10:09:42Z</time>
      </trkpt>
      <trkpt lat="42.68842" lon="1.96797">
        <ele>2035.73</ele>
        <time>2014-03-31T10:09:51Z</time>
      </trkpt>
      <trkpt lat="42.68832" lon="1.96803">
        <ele>2037.65</ele>
        <time>2014-03-31T10:10:04Z</time>
      </trkpt>
      <trkpt lat="42.68831" lon="1.96804">
        <ele>2037.65</ele>
        <time>2014-03-31T10:10:06Z</time>
      </trkpt>
      <trkpt lat="42.68822" lon="1.96812">
        <ele>2040.05</ele>
        <time>2014-03-31T10:10:19Z</time>
      </trkpt>
      <trkpt lat="42.68815" lon="1.96818">
        <ele>2041.5</ele>
        <time>2014-03-31T10:10:30Z</time>
      </trkpt>
      <trkpt lat="42.68808" lon="1.96823">
        <ele>2043.42</ele>
        <time>2014-03-31T10:10:41Z</time>
      </trkpt>
      <trkpt lat="42.68803" lon="1.9683">
        <ele>2046.3</ele>
        <time>2014-03-31T10:10:52Z</time>
      </trkpt>
      <trkpt lat="42.68797" lon="1.96837">
        <ele>2048.71</ele>
        <time>2014-03-31T10:11:03Z</time>
      </trkpt>
      <trkpt lat="42.68795" lon="1.96841">
        <ele>2050.15</ele>
        <time>2014-03-31T10:11:08Z</time>
      </trkpt>
      <trkpt lat="42.68791" lon="1.96849">
        <ele>2052.55</ele>
        <time>2014-03-31T10:11:20Z</time>
      </trkpt>
      <trkpt lat="42.68785" lon="1.96856">
        <ele>2054.47</ele>
        <time>2014-03-31T10:11:32Z</time>
      </trkpt>
      <trkpt lat="42.68781" lon="1.96863">
        <ele>2056.4</ele>
        <time>2014-03-31T10:11:42Z</time>
      </trkpt>
      <trkpt lat="42.68774" lon="1.96868">
        <ele>2059.28</ele>
        <time>2014-03-31T10:11:54Z</time>
      </trkpt>
      <trkpt lat="42.68771" lon="1.96873">
        <ele>2061.2</ele>
        <time>2014-03-31T10:12:02Z</time>
      </trkpt>
      <trkpt lat="42.68767" lon="1.96878">
        <ele>2062.65</ele>
        <time>2014-03-31T10:12:09Z</time>
      </trkpt>
      <trkpt lat="42.68765" lon="1.96881">
        <ele>2063.13</ele>
        <time>2014-03-31T10:12:13Z</time>
      </trkpt>
      <trkpt lat="42.68761" lon="1.96886">
        <ele>2064.09</ele>
        <time>2014-03-31T10:12:20Z</time>
      </trkpt>
      <trkpt lat="42.68758" lon="1.96888">
        <ele>2064.57</ele>
        <time>2014-03-31T10:12:24Z</time>
      </trkpt>
      <trkpt lat="42.68756" lon="1.96891">
        <ele>2065.05</ele>
        <time>2014-03-31T10:12:28Z</time>
      </trkpt>
      <trkpt lat="42.68751" lon="1.96899">
        <ele>2067.45</ele>
        <time>2014-03-31T10:12:40Z</time>
      </trkpt>
      <trkpt lat="42.68747" lon="1.96904">
        <ele>2070.82</ele>
        <time>2014-03-31T10:12:51Z</time>
      </trkpt>
      <trkpt lat="42.68745" lon="1.96906">
        <ele>2071.78</ele>
        <time>2014-03-31T10:12:55Z</time>
      </trkpt>
      <trkpt lat="42.68742" lon="1.96908">
        <ele>2072.74</ele>
        <time>2014-03-31T10:12:59Z</time>
      </trkpt>
      <trkpt lat="42.68736" lon="1.96914">
        <ele>2076.59</ele>
        <time>2014-03-31T10:13:10Z</time>
      </trkpt>
      <trkpt lat="42.68733" lon="1.96917">
        <ele>2078.51</ele>
        <time>2014-03-31T10:13:16Z</time>
      </trkpt>
      <trkpt lat="42.6873" lon="1.96918">
        <ele>2078.99</ele>
        <time>2014-03-31T10:13:20Z</time>
      </trkpt>
      <trkpt lat="42.68724" lon="1.96927">
        <ele>2081.39</ele>
        <time>2014-03-31T10:13:32Z</time>
      </trkpt>
      <trkpt lat="42.6872" lon="1.96933">
        <ele>2084.76</ele>
        <time>2014-03-31T10:13:45Z</time>
      </trkpt>
      <trkpt lat="42.68715" lon="1.96935">
        <ele>2085.72</ele>
        <time>2014-03-31T10:13:53Z</time>
      </trkpt>
      <trkpt lat="42.68713" lon="1.96944">
        <ele>2087.64</ele>
        <time>2014-03-31T10:14:02Z</time>
      </trkpt>
      <trkpt lat="42.68712" lon="1.96949">
        <ele>2088.12</ele>
        <time>2014-03-31T10:14:06Z</time>
      </trkpt>
      <trkpt lat="42.68708" lon="1.96959">
        <ele>2089.56</ele>
        <time>2014-03-31T10:14:18Z</time>
      </trkpt>
      <trkpt lat="42.68707" lon="1.96961">
        <ele>2090.52</ele>
        <time>2014-03-31T10:14:36Z</time>
      </trkpt>
      <trkpt lat="42.68709" lon="1.9696">
        <ele>2090.52</ele>
        <time>2014-03-31T10:14:48Z</time>
      </trkpt>
      <trkpt lat="42.6871" lon="1.9696">
        <ele>2091.97</ele>
        <time>2014-03-31T10:15:18Z</time>
      </trkpt>
      <trkpt lat="42.68709" lon="1.9696">
        <ele>2092.45</ele>
        <time>2014-03-31T10:15:35Z</time>
      </trkpt>
      <trkpt lat="42.68708" lon="1.9696">
        <ele>2093.41</ele>
        <time>2014-03-31T10:16:05Z</time>
      </trkpt>
      <trkpt lat="42.6871" lon="1.96958">
        <ele>2093.41</ele>
        <time>2014-03-31T10:16:18Z</time>
      </trkpt>
      <trkpt lat="42.68711" lon="1.96957">
        <ele>2095.81</ele>
        <time>2014-03-31T10:16:47Z</time>
      </trkpt>
      <trkpt lat="42.6871" lon="1.96957">
        <ele>2096.77</ele>
        <time>2014-03-31T10:17:13Z</time>
      </trkpt>
      <trkpt lat="42.6871" lon="1.96956">
        <ele>2097.25</ele>
        <time>2014-03-31T10:17:43Z</time>
      </trkpt>
      <trkpt lat="42.68708" lon="1.96957">
        <ele>2095.33</ele>
        <time>2014-03-31T10:18:09Z</time>
      </trkpt>
      <trkpt lat="42.6871" lon="1.96957">
        <ele>2097.25</ele>
        <time>2014-03-31T10:18:38Z</time>
      </trkpt>
      <trkpt lat="42.68709" lon="1.96957">
        <ele>2096.77</ele>
        <time>2014-03-31T10:18:53Z</time>
      </trkpt>
      <trkpt lat="42.68709" lon="1.96956">
        <ele>2097.73</ele>
        <time>2014-03-31T10:19:14Z</time>
      </trkpt>
      <trkpt lat="42.6871" lon="1.96957">
        <ele>2096.77</ele>
        <time>2014-03-31T10:19:37Z</time>
      </trkpt>
      <trkpt lat="42.6871" lon="1.96958">
        <ele>2096.77</ele>
        <time>2014-03-31T10:20:01Z</time>
      </trkpt>
      <trkpt lat="42.68711" lon="1.96958">
        <ele>2095.33</ele>
        <time>2014-03-31T10:20:12Z</time>
      </trkpt>
      <trkpt lat="42.6871" lon="1.96958">
        <ele>2094.37</ele>
        <time>2014-03-31T10:20:37Z</time>
      </trkpt>
      <trkpt lat="42.68711" lon="1.96959">
        <ele>2094.85</ele>
        <time>2014-03-31T10:21:00Z</time>
      </trkpt>
      <trkpt lat="42.6871" lon="1.96957">
        <ele>2094.85</ele>
        <time>2014-03-31T10:21:32Z</time>
      </trkpt>
      <trkpt lat="42.68709" lon="1.96955">
        <ele>2095.81</ele>
        <time>2014-03-31T10:22:05Z</time>
      </trkpt>
      <trkpt lat="42.6871" lon="1.96958">
        <ele>2094.85</ele>
        <time>2014-03-31T10:22:39Z</time>
      </trkpt>
      <trkpt lat="42.6871" lon="1.96959">
        <ele>2092.45</ele>
        <time>2014-03-31T10:23:00Z</time>
      </trkpt>
      <trkpt lat="42.68709" lon="1.9696">
        <ele>2092.93</ele>
        <time>2014-03-31T10:23:22Z</time>
      </trkpt>
      <trkpt lat="42.68711" lon="1.9696">
        <ele>2092.93</ele>
        <time>2014-03-31T10:23:36Z</time>
      </trkpt>
      <trkpt lat="42.68711" lon="1.96961">
        <ele>2091.97</ele>
        <time>2014-03-31T10:23:52Z</time>
      </trkpt>
      <trkpt lat="42.68711" lon="1.9696">
        <ele>2093.41</ele>
        <time>2014-03-31T10:24:16Z</time>
      </trkpt>
      <trkpt lat="42.68712" lon="1.9696">
        <ele>2093.89</ele>
        <time>2014-03-31T10:24:39Z</time>
      </trkpt>
      <trkpt lat="42.68712" lon="1.96958">
        <ele>2097.73</ele>
        <time>2014-03-31T10:25:03Z</time>
      </trkpt>
      <trkpt lat="42.68712" lon="1.96959">
        <ele>2097.25</ele>
        <time>2014-03-31T10:25:16Z</time>
      </trkpt>
      <trkpt lat="42.6871" lon="1.96961">
        <ele>2094.37</ele>
        <time>2014-03-31T10:25:35Z</time>
      </trkpt>
      <trkpt lat="42.6871" lon="1.96959">
        <ele>2093.41</ele>
        <time>2014-03-31T10:26:06Z</time>
      </trkpt>
      <trkpt lat="42.68711" lon="1.9696">
        <ele>2093.89</ele>
        <time>2014-03-31T10:26:33Z</time>
      </trkpt>
      <trkpt lat="42.68711" lon="1.9696">
        <ele>2092.93</ele>
        <time>2014-03-31T10:27:17Z</time>
      </trkpt>
      <trkpt lat="42.68709" lon="1.96962">
        <ele>2093.41</ele>
        <time>2014-03-31T10:28:04Z</time>
      </trkpt>
      <trkpt lat="42.68707" lon="1.96963">
        <ele>2095.81</ele>
        <time>2014-03-31T10:28:47Z</time>
      </trkpt>
      <trkpt lat="42.68708" lon="1.96962">
        <ele>2095.81</ele>
        <time>2014-03-31T10:29:24Z</time>
      </trkpt>
      <trkpt lat="42.68709" lon="1.96963">
        <ele>2093.41</ele>
        <time>2014-03-31T10:30:05Z</time>
      </trkpt>
      <trkpt lat="42.6871" lon="1.96959">
        <ele>2095.81</ele>
        <time>2014-03-31T10:30:48Z</time>
      </trkpt>
      <trkpt lat="42.6871" lon="1.96961">
        <ele>2094.37</ele>
        <time>2014-03-31T10:31:41Z</time>
      </trkpt>
      <trkpt lat="42.68711" lon="1.96961">
        <ele>2092.93</ele>
        <time>2014-03-31T10:32:20Z</time>
      </trkpt>
      <trkpt lat="42.6871" lon="1.96962">
        <ele>2095.81</ele>
        <time>2014-03-31T10:33:04Z</time>
      </trkpt>
      <trkpt lat="42.68711" lon="1.96962">
        <ele>2093.41</ele>
        <time>2014-03-31T10:33:45Z</time>
      </trkpt>
      <trkpt lat="42.6871" lon="1.9696">
        <ele>2096.29</ele>
        <time>2014-03-31T10:34:23Z</time>
      </trkpt>
      <trkpt lat="42.68711" lon="1.96958">
        <ele>2095.33</ele>
        <time>2014-03-31T10:34:37Z</time>
      </trkpt>
      <trkpt lat="42.68708" lon="1.96962">
        <ele>2094.37</ele>
        <time>2014-03-31T10:34:51Z</time>
      </trkpt>
      <trkpt lat="42.68694" lon="1.96978">
        <ele>2092.45</ele>
        <time>2014-03-31T10:35:05Z</time>
      </trkpt>
      <trkpt lat="42.68681" lon="1.96987">
        <ele>2091.49</ele>
        <time>2014-03-31T10:35:19Z</time>
      </trkpt>
      <trkpt lat="42.68668" lon="1.96996">
        <ele>2091</ele>
        <time>2014-03-31T10:35:33Z</time>
      </trkpt>
      <trkpt lat="42.68657" lon="1.97003">
        <ele>2089.08</ele>
        <time>2014-03-31T10:35:47Z</time>
      </trkpt>
      <trkpt lat="42.6864" lon="1.97009">
        <ele>2083.79</ele>
        <time>2014-03-31T10:35:58Z</time>
      </trkpt>
      <trkpt lat="42.68633" lon="1.97014">
        <ele>2081.39</ele>
        <time>2014-03-31T10:36:00Z</time>
      </trkpt>
      <trkpt lat="42.68625" lon="1.97019">
        <ele>2079.47</ele>
        <time>2014-03-31T10:36:10Z</time>
      </trkpt>
      <trkpt lat="42.68624" lon="1.97019">
        <ele>2079.47</ele>
        <time>2014-03-31T10:36:11Z</time>
      </trkpt>
      <trkpt lat="42.68618" lon="1.97021">
        <ele>2078.99</ele>
        <time>2014-03-31T10:36:17Z</time>
      </trkpt>
      <trkpt lat="42.68613" lon="1.97024">
        <ele>2078.51</ele>
        <time>2014-03-31T10:36:22Z</time>
      </trkpt>
      <trkpt lat="42.68601" lon="1.97031">
        <ele>2077.07</ele>
        <time>2014-03-31T10:36:35Z</time>
      </trkpt>
      <trkpt lat="42.686" lon="1.97031">
        <ele>2076.59</ele>
        <time>2014-03-31T10:36:36Z</time>
      </trkpt>
      <trkpt lat="42.68587" lon="1.97035">
        <ele>2076.1</ele>
        <time>2014-03-31T10:36:49Z</time>
      </trkpt>
      <trkpt lat="42.68581" lon="1.97037">
        <ele>2076.1</ele>
        <time>2014-03-31T10:36:56Z</time>
      </trkpt>
      <trkpt lat="42.68569" lon="1.9704">
        <ele>2076.59</ele>
        <time>2014-03-31T10:37:10Z</time>
      </trkpt>
      <trkpt lat="42.68565" lon="1.97041">
        <ele>2076.59</ele>
        <time>2014-03-31T10:37:15Z</time>
      </trkpt>
      <trkpt lat="42.68554" lon="1.97044">
        <ele>2076.59</ele>
        <time>2014-03-31T10:37:29Z</time>
      </trkpt>
      <trkpt lat="42.68544" lon="1.97044">
        <ele>2077.55</ele>
        <time>2014-03-31T10:37:41Z</time>
      </trkpt>
      <trkpt lat="42.68533" lon="1.97044">
        <ele>2077.55</ele>
        <time>2014-03-31T10:37:54Z</time>
      </trkpt>
      <trkpt lat="42.68523" lon="1.97045">
        <ele>2077.55</ele>
        <time>2014-03-31T10:38:09Z</time>
      </trkpt>
      <trkpt lat="42.68514" lon="1.97045">
        <ele>2078.03</ele>
        <time>2014-03-31T10:38:23Z</time>
      </trkpt>
      <trkpt lat="42.68507" lon="1.97043">
        <ele>2078.51</ele>
        <time>2014-03-31T10:38:35Z</time>
      </trkpt>
      <trkpt lat="42.68502" lon="1.97042">
        <ele>2079.95</ele>
        <time>2014-03-31T10:38:46Z</time>
      </trkpt>
      <trkpt lat="42.68498" lon="1.9704">
        <ele>2079.95</ele>
        <time>2014-03-31T10:38:58Z</time>
      </trkpt>
      <trkpt lat="42.68493" lon="1.97039">
        <ele>2081.87</ele>
        <time>2014-03-31T10:39:09Z</time>
      </trkpt>
      <trkpt lat="42.68481" lon="1.97038">
        <ele>2080.43</ele>
        <time>2014-03-31T10:39:25Z</time>
      </trkpt>
      <trkpt lat="42.68475" lon="1.97036">
        <ele>2082.35</ele>
        <time>2014-03-31T10:39:37Z</time>
      </trkpt>
      <trkpt lat="42.68468" lon="1.97034">
        <ele>2085.24</ele>
        <time>2014-03-31T10:39:48Z</time>
      </trkpt>
      <trkpt lat="42.68462" lon="1.9703">
        <ele>2088.12</ele>
        <time>2014-03-31T10:40:01Z</time>
      </trkpt>
      <trkpt lat="42.68455" lon="1.97027">
        <ele>2088.6</ele>
        <time>2014-03-31T10:40:13Z</time>
      </trkpt>
      <trkpt lat="42.68449" lon="1.97026">
        <ele>2088.6</ele>
        <time>2014-03-31T10:40:29Z</time>
      </trkpt>
      <trkpt lat="42.68441" lon="1.97024">
        <ele>2088.12</ele>
        <time>2014-03-31T10:40:40Z</time>
      </trkpt>
      <trkpt lat="42.68436" lon="1.9703">
        <ele>2088.6</ele>
        <time>2014-03-31T10:40:51Z</time>
      </trkpt>
      <trkpt lat="42.68434" lon="1.97041">
        <ele>2089.56</ele>
        <time>2014-03-31T10:41:03Z</time>
      </trkpt>
      <trkpt lat="42.68433" lon="1.97047">
        <ele>2090.52</ele>
        <time>2014-03-31T10:41:12Z</time>
      </trkpt>
      <trkpt lat="42.68431" lon="1.97056">
        <ele>2091.97</ele>
        <time>2014-03-31T10:41:21Z</time>
      </trkpt>
      <trkpt lat="42.68429" lon="1.97067">
        <ele>2093.41</ele>
        <time>2014-03-31T10:41:33Z</time>
      </trkpt>
      <trkpt lat="42.68429" lon="1.97072">
        <ele>2093.41</ele>
        <time>2014-03-31T10:41:47Z</time>
      </trkpt>
      <trkpt lat="42.68424" lon="1.97086">
        <ele>2093.89</ele>
        <time>2014-03-31T10:42:02Z</time>
      </trkpt>
      <trkpt lat="42.68423" lon="1.97086">
        <ele>2094.37</ele>
        <time>2014-03-31T10:42:25Z</time>
      </trkpt>
      <trkpt lat="42.68424" lon="1.97087">
        <ele>2095.33</ele>
        <time>2014-03-31T10:42:47Z</time>
      </trkpt>
      <trkpt lat="42.68425" lon="1.97086">
        <ele>2095.33</ele>
        <time>2014-03-31T10:43:03Z</time>
      </trkpt>
      <trkpt lat="42.68425" lon="1.97088">
        <ele>2095.33</ele>
        <time>2014-03-31T10:43:28Z</time>
      </trkpt>
      <trkpt lat="42.68425" lon="1.97088">
        <ele>2094.37</ele>
        <time>2014-03-31T10:43:39Z</time>
      </trkpt>
      <trkpt lat="42.68424" lon="1.97088">
        <ele>2094.85</ele>
        <time>2014-03-31T10:43:59Z</time>
      </trkpt>
      <trkpt lat="42.68424" lon="1.97086">
        <ele>2096.29</ele>
        <time>2014-03-31T10:44:18Z</time>
      </trkpt>
      <trkpt lat="42.68425" lon="1.9709">
        <ele>2094.85</ele>
        <time>2014-03-31T10:44:44Z</time>
      </trkpt>
      <trkpt lat="42.68423" lon="1.97091">
        <ele>2094.85</ele>
        <time>2014-03-31T10:45:04Z</time>
      </trkpt>
      <trkpt lat="42.68423" lon="1.97094">
        <ele>2094.37</ele>
        <time>2014-03-31T10:45:06Z</time>
      </trkpt>
      <trkpt lat="42.6842" lon="1.97104">
        <ele>2094.37</ele>
        <time>2014-03-31T10:45:19Z</time>
      </trkpt>
      <trkpt lat="42.68418" lon="1.97115">
        <ele>2094.37</ele>
        <time>2014-03-31T10:45:32Z</time>
      </trkpt>
      <trkpt lat="42.68416" lon="1.97123">
        <ele>2093.41</ele>
        <time>2014-03-31T10:45:50Z</time>
      </trkpt>
      <trkpt lat="42.68414" lon="1.97144">
        <ele>2092.45</ele>
        <time>2014-03-31T10:46:04Z</time>
      </trkpt>
      <trkpt lat="42.68414" lon="1.97163">
        <ele>2092.93</ele>
        <time>2014-03-31T10:46:17Z</time>
      </trkpt>
      <trkpt lat="42.68412" lon="1.97179">
        <ele>2092.45</ele>
        <time>2014-03-31T10:46:33Z</time>
      </trkpt>
      <trkpt lat="42.68411" lon="1.9719">
        <ele>2092.45</ele>
        <time>2014-03-31T10:46:45Z</time>
      </trkpt>
      <trkpt lat="42.68408" lon="1.97201">
        <ele>2091</ele>
        <time>2014-03-31T10:46:59Z</time>
      </trkpt>
      <trkpt lat="42.68406" lon="1.97214">
        <ele>2091.49</ele>
        <time>2014-03-31T10:47:10Z</time>
      </trkpt>
      <trkpt lat="42.68402" lon="1.97229">
        <ele>2091</ele>
        <time>2014-03-31T10:47:23Z</time>
      </trkpt>
      <trkpt lat="42.68399" lon="1.97243">
        <ele>2090.52</ele>
        <time>2014-03-31T10:47:37Z</time>
      </trkpt>
      <trkpt lat="42.68396" lon="1.97255">
        <ele>2091.49</ele>
        <time>2014-03-31T10:47:49Z</time>
      </trkpt>
      <trkpt lat="42.68393" lon="1.97264">
        <ele>2092.93</ele>
        <time>2014-03-31T10:48:01Z</time>
      </trkpt>
      <trkpt lat="42.68388" lon="1.97284">
        <ele>2091.49</ele>
        <time>2014-03-31T10:48:20Z</time>
      </trkpt>
      <trkpt lat="42.68387" lon="1.97288">
        <ele>2091.97</ele>
        <time>2014-03-31T10:48:24Z</time>
      </trkpt>
      <trkpt lat="42.68384" lon="1.97298">
        <ele>2092.93</ele>
        <time>2014-03-31T10:48:37Z</time>
      </trkpt>
      <trkpt lat="42.68381" lon="1.97307">
        <ele>2095.81</ele>
        <time>2014-03-31T10:48:49Z</time>
      </trkpt>
      <trkpt lat="42.68374" lon="1.9732">
        <ele>2095.81</ele>
        <time>2014-03-31T10:49:03Z</time>
      </trkpt>
      <trkpt lat="42.68371" lon="1.97327">
        <ele>2097.25</ele>
        <time>2014-03-31T10:49:15Z</time>
      </trkpt>
      <trkpt lat="42.6837" lon="1.97331">
        <ele>2097.25</ele>
        <time>2014-03-31T10:49:18Z</time>
      </trkpt>
      <trkpt lat="42.68365" lon="1.97342">
        <ele>2099.18</ele>
        <time>2014-03-31T10:49:31Z</time>
      </trkpt>
      <trkpt lat="42.6836" lon="1.97352">
        <ele>2098.21</ele>
        <time>2014-03-31T10:49:39Z</time>
      </trkpt>
      <trkpt lat="42.68356" lon="1.97367">
        <ele>2099.66</ele>
        <time>2014-03-31T10:49:52Z</time>
      </trkpt>
      <trkpt lat="42.68352" lon="1.97379">
        <ele>2098.7</ele>
        <time>2014-03-31T10:50:06Z</time>
      </trkpt>
      <trkpt lat="42.68349" lon="1.97385">
        <ele>2097.73</ele>
        <time>2014-03-31T10:50:16Z</time>
      </trkpt>
      <trkpt lat="42.68349" lon="1.97393">
        <ele>2098.21</ele>
        <time>2014-03-31T10:50:28Z</time>
      </trkpt>
      <trkpt lat="42.68351" lon="1.97398">
        <ele>2099.18</ele>
        <time>2014-03-31T10:50:39Z</time>
      </trkpt>
      <trkpt lat="42.6835" lon="1.97401">
        <ele>2099.66</ele>
        <time>2014-03-31T10:50:51Z</time>
      </trkpt>
      <trkpt lat="42.6835" lon="1.97397">
        <ele>2099.18</ele>
        <time>2014-03-31T10:51:04Z</time>
      </trkpt>
      <trkpt lat="42.68352" lon="1.97396">
        <ele>2099.66</ele>
        <time>2014-03-31T10:51:15Z</time>
      </trkpt>
      <trkpt lat="42.6835" lon="1.97396">
        <ele>2097.73</ele>
        <time>2014-03-31T10:51:27Z</time>
      </trkpt>
      <trkpt lat="42.68351" lon="1.97392">
        <ele>2097.25</ele>
        <time>2014-03-31T10:51:37Z</time>
      </trkpt>
      <trkpt lat="42.68349" lon="1.97386">
        <ele>2095.81</ele>
        <time>2014-03-31T10:51:43Z</time>
      </trkpt>
      <trkpt lat="42.68347" lon="1.97369">
        <ele>2093.41</ele>
        <time>2014-03-31T10:51:56Z</time>
      </trkpt>
      <trkpt lat="42.68345" lon="1.97349">
        <ele>2089.08</ele>
        <time>2014-03-31T10:52:09Z</time>
      </trkpt>
      <trkpt lat="42.68343" lon="1.97335">
        <ele>2085.72</ele>
        <time>2014-03-31T10:52:20Z</time>
      </trkpt>
      <trkpt lat="42.68343" lon="1.9732">
        <ele>2084.76</ele>
        <time>2014-03-31T10:52:31Z</time>
      </trkpt>
      <trkpt lat="42.68343" lon="1.97317">
        <ele>2082.83</ele>
        <time>2014-03-31T10:52:42Z</time>
      </trkpt>
      <trkpt lat="42.68343" lon="1.97319">
        <ele>2082.35</ele>
        <time>2014-03-31T10:52:46Z</time>
      </trkpt>
      <trkpt lat="42.68336" lon="1.97338">
        <ele>2079.95</ele>
        <time>2014-03-31T10:53:00Z</time>
      </trkpt>
      <trkpt lat="42.68335" lon="1.9734">
        <ele>2079.95</ele>
        <time>2014-03-31T10:53:01Z</time>
      </trkpt>
      <trkpt lat="42.68331" lon="1.97352">
        <ele>2078.03</ele>
        <time>2014-03-31T10:53:11Z</time>
      </trkpt>
      <trkpt lat="42.6833" lon="1.97362">
        <ele>2077.07</ele>
        <time>2014-03-31T10:53:16Z</time>
      </trkpt>
      <trkpt lat="42.68329" lon="1.97365">
        <ele>2076.59</ele>
        <time>2014-03-31T10:53:19Z</time>
      </trkpt>
      <trkpt lat="42.6833" lon="1.97369">
        <ele>2076.59</ele>
        <time>2014-03-31T10:53:22Z</time>
      </trkpt>
      <trkpt lat="42.68324" lon="1.97383">
        <ele>2075.62</ele>
        <time>2014-03-31T10:53:34Z</time>
      </trkpt>
      <trkpt lat="42.68322" lon="1.97392">
        <ele>2073.7</ele>
        <time>2014-03-31T10:53:46Z</time>
      </trkpt>
      <trkpt lat="42.68321" lon="1.97393">
        <ele>2073.22</ele>
        <time>2014-03-31T10:53:47Z</time>
      </trkpt>
      <trkpt lat="42.68321" lon="1.97403">
        <ele>2069.38</ele>
        <time>2014-03-31T10:53:55Z</time>
      </trkpt>
      <trkpt lat="42.68318" lon="1.97411">
        <ele>2068.89</ele>
        <time>2014-03-31T10:54:05Z</time>
      </trkpt>
      <trkpt lat="42.68318" lon="1.97413">
        <ele>2069.38</ele>
        <time>2014-03-31T10:54:06Z</time>
      </trkpt>
      <trkpt lat="42.68315" lon="1.97425">
        <ele>2071.3</ele>
        <time>2014-03-31T10:54:17Z</time>
      </trkpt>
      <trkpt lat="42.68308" lon="1.97437">
        <ele>2072.26</ele>
        <time>2014-03-31T10:54:31Z</time>
      </trkpt>
      <trkpt lat="42.68304" lon="1.97445">
        <ele>2072.74</ele>
        <time>2014-03-31T10:54:44Z</time>
      </trkpt>
      <trkpt lat="42.68302" lon="1.97453">
        <ele>2073.22</ele>
        <time>2014-03-31T10:54:56Z</time>
      </trkpt>
      <trkpt lat="42.68297" lon="1.97462">
        <ele>2072.74</ele>
        <time>2014-03-31T10:55:10Z</time>
      </trkpt>
      <trkpt lat="42.68289" lon="1.97476">
        <ele>2073.7</ele>
        <time>2014-03-31T10:55:24Z</time>
      </trkpt>
      <trkpt lat="42.68286" lon="1.9748">
        <ele>2073.7</ele>
        <time>2014-03-31T10:55:28Z</time>
      </trkpt>
      <trkpt lat="42.6828" lon="1.97494">
        <ele>2074.66</ele>
        <time>2014-03-31T10:55:43Z</time>
      </trkpt>
      <trkpt lat="42.68274" lon="1.97505">
        <ele>2075.14</ele>
        <time>2014-03-31T10:55:56Z</time>
      </trkpt>
      <trkpt lat="42.68271" lon="1.97515">
        <ele>2077.07</ele>
        <time>2014-03-31T10:56:07Z</time>
      </trkpt>
      <trkpt lat="42.68267" lon="1.9752">
        <ele>2076.59</ele>
        <time>2014-03-31T10:56:14Z</time>
      </trkpt>
      <trkpt lat="42.68264" lon="1.97526">
        <ele>2076.59</ele>
        <time>2014-03-31T10:56:20Z</time>
      </trkpt>
      <trkpt lat="42.68258" lon="1.97539">
        <ele>2077.55</ele>
        <time>2014-03-31T10:56:34Z</time>
      </trkpt>
      <trkpt lat="42.68256" lon="1.97551">
        <ele>2077.55</ele>
        <time>2014-03-31T10:56:47Z</time>
      </trkpt>
      <trkpt lat="42.68249" lon="1.97565">
        <ele>2078.51</ele>
        <time>2014-03-31T10:57:01Z</time>
      </trkpt>
      <trkpt lat="42.68245" lon="1.97575">
        <ele>2080.91</ele>
        <time>2014-03-31T10:57:11Z</time>
      </trkpt>
      <trkpt lat="42.68241" lon="1.97585">
        <ele>2080.91</ele>
        <time>2014-03-31T10:57:20Z</time>
      </trkpt>
      <trkpt lat="42.68239" lon="1.97593">
        <ele>2080.91</ele>
        <time>2014-03-31T10:57:27Z</time>
      </trkpt>
      <trkpt lat="42.68235" lon="1.97607">
        <ele>2081.87</ele>
        <time>2014-03-31T10:57:40Z</time>
      </trkpt>
      <trkpt lat="42.68232" lon="1.97619">
        <ele>2084.76</ele>
        <time>2014-03-31T10:57:54Z</time>
      </trkpt>
      <trkpt lat="42.68227" lon="1.9763">
        <ele>2084.28</ele>
        <time>2014-03-31T10:58:06Z</time>
      </trkpt>
      <trkpt lat="42.68224" lon="1.9764">
        <ele>2084.28</ele>
        <time>2014-03-31T10:58:16Z</time>
      </trkpt>
      <trkpt lat="42.6822" lon="1.97652">
        <ele>2084.76</ele>
        <time>2014-03-31T10:58:29Z</time>
      </trkpt>
      <trkpt lat="42.6822" lon="1.97653">
        <ele>2084.76</ele>
        <time>2014-03-31T10:58:30Z</time>
      </trkpt>
      <trkpt lat="42.68217" lon="1.97662">
        <ele>2085.24</ele>
        <time>2014-03-31T10:58:38Z</time>
      </trkpt>
      <trkpt lat="42.68213" lon="1.97673">
        <ele>2085.72</ele>
        <time>2014-03-31T10:58:50Z</time>
      </trkpt>
      <trkpt lat="42.68213" lon="1.97676">
        <ele>2085.72</ele>
        <time>2014-03-31T10:58:52Z</time>
      </trkpt>
      <trkpt lat="42.68209" lon="1.97687">
        <ele>2087.16</ele>
        <time>2014-03-31T10:59:05Z</time>
      </trkpt>
      <trkpt lat="42.68207" lon="1.97691">
        <ele>2086.68</ele>
        <time>2014-03-31T10:59:09Z</time>
      </trkpt>
      <trkpt lat="42.68204" lon="1.977">
        <ele>2087.64</ele>
        <time>2014-03-31T10:59:20Z</time>
      </trkpt>
      <trkpt lat="42.68201" lon="1.97708">
        <ele>2087.16</ele>
        <time>2014-03-31T10:59:29Z</time>
      </trkpt>
      <trkpt lat="42.68198" lon="1.97716">
        <ele>2089.56</ele>
        <time>2014-03-31T10:59:41Z</time>
      </trkpt>
      <trkpt lat="42.68194" lon="1.97727">
        <ele>2090.04</ele>
        <time>2014-03-31T10:59:54Z</time>
      </trkpt>
      <trkpt lat="42.68192" lon="1.97735">
        <ele>2090.52</ele>
        <time>2014-03-31T11:00:03Z</time>
      </trkpt>
      <trkpt lat="42.68188" lon="1.97746">
        <ele>2091.49</ele>
        <time>2014-03-31T11:00:17Z</time>
      </trkpt>
      <trkpt lat="42.68184" lon="1.97757">
        <ele>2091.49</ele>
        <time>2014-03-31T11:00:30Z</time>
      </trkpt>
      <trkpt lat="42.68182" lon="1.97765">
        <ele>2092.93</ele>
        <time>2014-03-31T11:00:41Z</time>
      </trkpt>
      <trkpt lat="42.68182" lon="1.97766">
        <ele>2092.93</ele>
        <time>2014-03-31T11:00:42Z</time>
      </trkpt>
      <trkpt lat="42.68179" lon="1.97777">
        <ele>2094.37</ele>
        <time>2014-03-31T11:00:54Z</time>
      </trkpt>
      <trkpt lat="42.68178" lon="1.97779">
        <ele>2094.37</ele>
        <time>2014-03-31T11:00:56Z</time>
      </trkpt>
      <trkpt lat="42.68177" lon="1.97786">
        <ele>2096.29</ele>
        <time>2014-03-31T11:01:06Z</time>
      </trkpt>
      <trkpt lat="42.68175" lon="1.97797">
        <ele>2098.7</ele>
        <time>2014-03-31T11:01:17Z</time>
      </trkpt>
      <trkpt lat="42.68176" lon="1.97802">
        <ele>2099.66</ele>
        <time>2014-03-31T11:01:26Z</time>
      </trkpt>
      <trkpt lat="42.68176" lon="1.97798">
        <ele>2098.7</ele>
        <time>2014-03-31T11:01:46Z</time>
      </trkpt>
      <trkpt lat="42.68176" lon="1.97799">
        <ele>2100.14</ele>
        <time>2014-03-31T11:02:15Z</time>
      </trkpt>
      <trkpt lat="42.68174" lon="1.97812">
        <ele>2100.14</ele>
        <time>2014-03-31T11:02:32Z</time>
      </trkpt>
      <trkpt lat="42.6817" lon="1.97837">
        <ele>2102.54</ele>
        <time>2014-03-31T11:02:44Z</time>
      </trkpt>
      <trkpt lat="42.68171" lon="1.9784">
        <ele>2103.98</ele>
        <time>2014-03-31T11:02:54Z</time>
      </trkpt>
      <trkpt lat="42.68171" lon="1.97839">
        <ele>2103.98</ele>
        <time>2014-03-31T11:03:08Z</time>
      </trkpt>
      <trkpt lat="42.68171" lon="1.9784">
        <ele>2103.5</ele>
        <time>2014-03-31T11:03:26Z</time>
      </trkpt>
      <trkpt lat="42.6817" lon="1.97841">
        <ele>2102.54</ele>
        <time>2014-03-31T11:03:46Z</time>
      </trkpt>
      <trkpt lat="42.6817" lon="1.97838">
        <ele>2103.98</ele>
        <time>2014-03-31T11:04:04Z</time>
      </trkpt>
      <trkpt lat="42.6817" lon="1.9784">
        <ele>2105.42</ele>
        <time>2014-03-31T11:04:27Z</time>
      </trkpt>
      <trkpt lat="42.68168" lon="1.97843">
        <ele>2105.42</ele>
        <time>2014-03-31T11:04:30Z</time>
      </trkpt>
      <trkpt lat="42.68158" lon="1.97865">
        <ele>2104.46</ele>
        <time>2014-03-31T11:04:46Z</time>
      </trkpt>
      <trkpt lat="42.68151" lon="1.97878">
        <ele>2105.42</ele>
        <time>2014-03-31T11:05:00Z</time>
      </trkpt>
      <trkpt lat="42.68146" lon="1.97886">
        <ele>2108.31</ele>
        <time>2014-03-31T11:05:13Z</time>
      </trkpt>
      <trkpt lat="42.68142" lon="1.97894">
        <ele>2110.71</ele>
        <time>2014-03-31T11:05:25Z</time>
      </trkpt>
      <trkpt lat="42.68139" lon="1.97899">
        <ele>2112.15</ele>
        <time>2014-03-31T11:05:38Z</time>
      </trkpt>
      <trkpt lat="42.68138" lon="1.97904">
        <ele>2112.15</ele>
        <time>2014-03-31T11:05:51Z</time>
      </trkpt>
      <trkpt lat="42.68136" lon="1.97906">
        <ele>2112.15</ele>
        <time>2014-03-31T11:05:56Z</time>
      </trkpt>
      <trkpt lat="42.6814" lon="1.97906">
        <ele>2110.71</ele>
        <time>2014-03-31T11:06:10Z</time>
      </trkpt>
      <trkpt lat="42.6814" lon="1.97905">
        <ele>2112.63</ele>
        <time>2014-03-31T11:06:26Z</time>
      </trkpt>
      <trkpt lat="42.68143" lon="1.97906">
        <ele>2112.63</ele>
        <time>2014-03-31T11:06:45Z</time>
      </trkpt>
      <trkpt lat="42.68142" lon="1.97911">
        <ele>2116</ele>
        <time>2014-03-31T11:06:54Z</time>
      </trkpt>
      <trkpt lat="42.68139" lon="1.97917">
        <ele>2118.88</ele>
        <time>2014-03-31T11:07:08Z</time>
      </trkpt>
      <trkpt lat="42.68139" lon="1.97922">
        <ele>2119.84</ele>
        <time>2014-03-31T11:07:19Z</time>
      </trkpt>
      <trkpt lat="42.68138" lon="1.97928">
        <ele>2122.25</ele>
        <time>2014-03-31T11:07:30Z</time>
      </trkpt>
      <trkpt lat="42.68136" lon="1.97933">
        <ele>2123.21</ele>
        <time>2014-03-31T11:07:42Z</time>
      </trkpt>
      <trkpt lat="42.68136" lon="1.97938">
        <ele>2123.69</ele>
        <time>2014-03-31T11:07:53Z</time>
      </trkpt>
      <trkpt lat="42.68133" lon="1.97943">
        <ele>2125.61</ele>
        <time>2014-03-31T11:08:05Z</time>
      </trkpt>
      <trkpt lat="42.68132" lon="1.97949">
        <ele>2127.53</ele>
        <time>2014-03-31T11:08:16Z</time>
      </trkpt>
      <trkpt lat="42.68131" lon="1.97954">
        <ele>2128.98</ele>
        <time>2014-03-31T11:08:28Z</time>
      </trkpt>
      <trkpt lat="42.6813" lon="1.97958">
        <ele>2129.46</ele>
        <time>2014-03-31T11:08:37Z</time>
      </trkpt>
      <trkpt lat="42.68125" lon="1.97967">
        <ele>2131.38</ele>
        <time>2014-03-31T11:08:52Z</time>
      </trkpt>
      <trkpt lat="42.68122" lon="1.97973">
        <ele>2132.82</ele>
        <time>2014-03-31T11:09:04Z</time>
      </trkpt>
      <trkpt lat="42.68118" lon="1.97981">
        <ele>2134.26</ele>
        <time>2014-03-31T11:09:17Z</time>
      </trkpt>
      <trkpt lat="42.68114" lon="1.97988">
        <ele>2136.19</ele>
        <time>2014-03-31T11:09:32Z</time>
      </trkpt>
      <trkpt lat="42.68111" lon="1.97995">
        <ele>2137.15</ele>
        <time>2014-03-31T11:09:45Z</time>
      </trkpt>
      <trkpt lat="42.68108" lon="1.98003">
        <ele>2138.11</ele>
        <time>2014-03-31T11:09:56Z</time>
      </trkpt>
      <trkpt lat="42.68104" lon="1.9801">
        <ele>2140.03</ele>
        <time>2014-03-31T11:10:10Z</time>
      </trkpt>
      <trkpt lat="42.68101" lon="1.98016">
        <ele>2140.51</ele>
        <time>2014-03-31T11:10:20Z</time>
      </trkpt>
      <trkpt lat="42.68098" lon="1.98022">
        <ele>2141.95</ele>
        <time>2014-03-31T11:10:32Z</time>
      </trkpt>
      <trkpt lat="42.68095" lon="1.98029">
        <ele>2140.51</ele>
        <time>2014-03-31T11:10:44Z</time>
      </trkpt>
      <trkpt lat="42.68095" lon="1.98029">
        <ele>2143.88</ele>
        <time>2014-03-31T11:11:09Z</time>
      </trkpt>
      <trkpt lat="42.68097" lon="1.98032">
        <ele>2141.95</ele>
        <time>2014-03-31T11:11:29Z</time>
      </trkpt>
      <trkpt lat="42.68094" lon="1.98034">
        <ele>2142.44</ele>
        <time>2014-03-31T11:11:44Z</time>
      </trkpt>
      <trkpt lat="42.68091" lon="1.98041">
        <ele>2144.84</ele>
        <time>2014-03-31T11:11:55Z</time>
      </trkpt>
      <trkpt lat="42.68093" lon="1.98043">
        <ele>2144.36</ele>
        <time>2014-03-31T11:12:06Z</time>
      </trkpt>
      <trkpt lat="42.68095" lon="1.98041">
        <ele>2146.76</ele>
        <time>2014-03-31T11:12:20Z</time>
      </trkpt>
      <trkpt lat="42.68099" lon="1.98039">
        <ele>2144.84</ele>
        <time>2014-03-31T11:12:40Z</time>
      </trkpt>
      <trkpt lat="42.68105" lon="1.98042">
        <ele>2146.76</ele>
        <time>2014-03-31T11:12:51Z</time>
      </trkpt>
      <trkpt lat="42.68107" lon="1.98043">
        <ele>2148.68</ele>
        <time>2014-03-31T11:13:01Z</time>
      </trkpt>
      <trkpt lat="42.68104" lon="1.9805">
        <ele>2152.05</ele>
        <time>2014-03-31T11:13:12Z</time>
      </trkpt>
      <trkpt lat="42.68104" lon="1.98051">
        <ele>2152.05</ele>
        <time>2014-03-31T11:13:13Z</time>
      </trkpt>
      <trkpt lat="42.68102" lon="1.98057">
        <ele>2153.97</ele>
        <time>2014-03-31T11:13:23Z</time>
      </trkpt>
      <trkpt lat="42.68108" lon="1.98057">
        <ele>2155.89</ele>
        <time>2014-03-31T11:13:32Z</time>
      </trkpt>
      <trkpt lat="42.68111" lon="1.98056">
        <ele>2156.37</ele>
        <time>2014-03-31T11:13:36Z</time>
      </trkpt>
      <trkpt lat="42.68113" lon="1.98057">
        <ele>2155.41</ele>
        <time>2014-03-31T11:13:41Z</time>
      </trkpt>
      <trkpt lat="42.6811" lon="1.98062">
        <ele>2158.3</ele>
        <time>2014-03-31T11:13:52Z</time>
      </trkpt>
      <trkpt lat="42.68106" lon="1.98067">
        <ele>2160.7</ele>
        <time>2014-03-31T11:14:03Z</time>
      </trkpt>
      <trkpt lat="42.68106" lon="1.98069">
        <ele>2161.18</ele>
        <time>2014-03-31T11:14:09Z</time>
      </trkpt>
      <trkpt lat="42.68111" lon="1.98068">
        <ele>2161.18</ele>
        <time>2014-03-31T11:14:19Z</time>
      </trkpt>
      <trkpt lat="42.68115" lon="1.9807">
        <ele>2160.7</ele>
        <time>2014-03-31T11:14:31Z</time>
      </trkpt>
      <trkpt lat="42.68114" lon="1.98073">
        <ele>2163.58</ele>
        <time>2014-03-31T11:14:41Z</time>
      </trkpt>
      <trkpt lat="42.68109" lon="1.98082">
        <ele>2164.55</ele>
        <time>2014-03-31T11:14:56Z</time>
      </trkpt>
      <trkpt lat="42.68107" lon="1.98087">
        <ele>2167.43</ele>
        <time>2014-03-31T11:15:10Z</time>
      </trkpt>
      <trkpt lat="42.68111" lon="1.98092">
        <ele>2168.39</ele>
        <time>2014-03-31T11:15:20Z</time>
      </trkpt>
      <trkpt lat="42.68117" lon="1.98091">
        <ele>2168.39</ele>
        <time>2014-03-31T11:15:31Z</time>
      </trkpt>
      <trkpt lat="42.68119" lon="1.98091">
        <ele>2170.79</ele>
        <time>2014-03-31T11:15:42Z</time>
      </trkpt>
      <trkpt lat="42.68116" lon="1.98095">
        <ele>2171.27</ele>
        <time>2014-03-31T11:15:55Z</time>
      </trkpt>
      <trkpt lat="42.68115" lon="1.98098">
        <ele>2172.24</ele>
        <time>2014-03-31T11:15:59Z</time>
      </trkpt>
      <trkpt lat="42.68111" lon="1.98106">
        <ele>2172.72</ele>
        <time>2014-03-31T11:16:14Z</time>
      </trkpt>
      <trkpt lat="42.68105" lon="1.98111">
        <ele>2174.64</ele>
        <time>2014-03-31T11:16:26Z</time>
      </trkpt>
      <trkpt lat="42.68106" lon="1.98114">
        <ele>2176.08</ele>
        <time>2014-03-31T11:16:38Z</time>
      </trkpt>
      <trkpt lat="42.68107" lon="1.98113">
        <ele>2177.04</ele>
        <time>2014-03-31T11:16:46Z</time>
      </trkpt>
      <trkpt lat="42.68114" lon="1.98117">
        <ele>2178.48</ele>
        <time>2014-03-31T11:16:59Z</time>
      </trkpt>
      <trkpt lat="42.68116" lon="1.98117">
        <ele>2181.37</ele>
        <time>2014-03-31T11:17:11Z</time>
      </trkpt>
      <trkpt lat="42.68118" lon="1.98115">
        <ele>2181.37</ele>
        <time>2014-03-31T11:17:21Z</time>
      </trkpt>
      <trkpt lat="42.6812" lon="1.98117">
        <ele>2181.85</ele>
        <time>2014-03-31T11:17:26Z</time>
      </trkpt>
      <trkpt lat="42.68117" lon="1.98121">
        <ele>2183.29</ele>
        <time>2014-03-31T11:17:35Z</time>
      </trkpt>
      <trkpt lat="42.68113" lon="1.98127">
        <ele>2185.21</ele>
        <time>2014-03-31T11:17:49Z</time>
      </trkpt>
      <trkpt lat="42.6811" lon="1.98129">
        <ele>2185.69</ele>
        <time>2014-03-31T11:18:02Z</time>
      </trkpt>
      <trkpt lat="42.6811" lon="1.98131">
        <ele>2184.73</ele>
        <time>2014-03-31T11:18:29Z</time>
      </trkpt>
      <trkpt lat="42.68108" lon="1.98132">
        <ele>2186.18</ele>
        <time>2014-03-31T11:18:54Z</time>
      </trkpt>
      <trkpt lat="42.68105" lon="1.98134">
        <ele>2188.1</ele>
        <time>2014-03-31T11:18:59Z</time>
      </trkpt>
      <trkpt lat="42.68099" lon="1.98139">
        <ele>2190.98</ele>
        <time>2014-03-31T11:19:12Z</time>
      </trkpt>
      <trkpt lat="42.68099" lon="1.98142">
        <ele>2192.42</ele>
        <time>2014-03-31T11:19:21Z</time>
      </trkpt>
      <trkpt lat="42.68104" lon="1.98147">
        <ele>2195.79</ele>
        <time>2014-03-31T11:19:32Z</time>
      </trkpt>
      <trkpt lat="42.68109" lon="1.98151">
        <ele>2197.71</ele>
        <time>2014-03-31T11:19:41Z</time>
      </trkpt>
      <trkpt lat="42.68114" lon="1.98152">
        <ele>2198.19</ele>
        <time>2014-03-31T11:19:54Z</time>
      </trkpt>
      <trkpt lat="42.68116" lon="1.98154">
        <ele>2199.15</ele>
        <time>2014-03-31T11:20:03Z</time>
      </trkpt>
      <trkpt lat="42.68113" lon="1.98156">
        <ele>2199.63</ele>
        <time>2014-03-31T11:20:14Z</time>
      </trkpt>
      <trkpt lat="42.68108" lon="1.98161">
        <ele>2202.04</ele>
        <time>2014-03-31T11:20:26Z</time>
      </trkpt>
      <trkpt lat="42.68105" lon="1.98165">
        <ele>2203.96</ele>
        <time>2014-03-31T11:20:39Z</time>
      </trkpt>
      <trkpt lat="42.68103" lon="1.98167">
        <ele>2204.44</ele>
        <time>2014-03-31T11:20:52Z</time>
      </trkpt>
      <trkpt lat="42.68104" lon="1.98168">
        <ele>2204.44</ele>
        <time>2014-03-31T11:21:07Z</time>
      </trkpt>
      <trkpt lat="42.68108" lon="1.98172">
        <ele>2205.88</ele>
        <time>2014-03-31T11:21:19Z</time>
      </trkpt>
      <trkpt lat="42.68107" lon="1.98172">
        <ele>2205.4</ele>
        <time>2014-03-31T11:21:37Z</time>
      </trkpt>
      <trkpt lat="42.68107" lon="1.98169">
        <ele>2204.44</ele>
        <time>2014-03-31T11:21:56Z</time>
      </trkpt>
      <trkpt lat="42.68107" lon="1.9817">
        <ele>2204.92</ele>
        <time>2014-03-31T11:22:30Z</time>
      </trkpt>
      <trkpt lat="42.68108" lon="1.98175">
        <ele>2208.77</ele>
        <time>2014-03-31T11:22:52Z</time>
      </trkpt>
      <trkpt lat="42.68111" lon="1.98172">
        <ele>2208.77</ele>
        <time>2014-03-31T11:22:59Z</time>
      </trkpt>
      <trkpt lat="42.68123" lon="1.98171">
        <ele>2207.81</ele>
        <time>2014-03-31T11:23:12Z</time>
      </trkpt>
      <trkpt lat="42.68126" lon="1.98171">
        <ele>2207.32</ele>
        <time>2014-03-31T11:23:26Z</time>
      </trkpt>
      <trkpt lat="42.68134" lon="1.98169">
        <ele>2209.73</ele>
        <time>2014-03-31T11:23:38Z</time>
      </trkpt>
      <trkpt lat="42.68139" lon="1.98168">
        <ele>2210.21</ele>
        <time>2014-03-31T11:23:45Z</time>
      </trkpt>
      <trkpt lat="42.68149" lon="1.98167">
        <ele>2210.69</ele>
        <time>2014-03-31T11:23:58Z</time>
      </trkpt>
      <trkpt lat="42.68153" lon="1.98166">
        <ele>2212.61</ele>
        <time>2014-03-31T11:24:08Z</time>
      </trkpt>
      <trkpt lat="42.68157" lon="1.98165">
        <ele>2214.53</ele>
        <time>2014-03-31T11:24:19Z</time>
      </trkpt>
      <trkpt lat="42.68163" lon="1.98164">
        <ele>2215.98</ele>
        <time>2014-03-31T11:24:30Z</time>
      </trkpt>
      <trkpt lat="42.68167" lon="1.98162">
        <ele>2218.86</ele>
        <time>2014-03-31T11:24:42Z</time>
      </trkpt>
      <trkpt lat="42.6817" lon="1.98161">
        <ele>2219.82</ele>
        <time>2014-03-31T11:24:47Z</time>
      </trkpt>
      <trkpt lat="42.68177" lon="1.98159">
        <ele>2220.78</ele>
        <time>2014-03-31T11:24:59Z</time>
      </trkpt>
      <trkpt lat="42.68183" lon="1.98157">
        <ele>2222.22</ele>
        <time>2014-03-31T11:25:10Z</time>
      </trkpt>
      <trkpt lat="42.68186" lon="1.98157">
        <ele>2225.11</ele>
        <time>2014-03-31T11:25:18Z</time>
      </trkpt>
      <trkpt lat="42.68192" lon="1.98157">
        <ele>2226.55</ele>
        <time>2014-03-31T11:25:30Z</time>
      </trkpt>
      <trkpt lat="42.68195" lon="1.98158">
        <ele>2230.4</ele>
        <time>2014-03-31T11:25:43Z</time>
      </trkpt>
      <trkpt lat="42.68201" lon="1.98157">
        <ele>2231.36</ele>
        <time>2014-03-31T11:25:53Z</time>
      </trkpt>
      <trkpt lat="42.68205" lon="1.98158">
        <ele>2233.76</ele>
        <time>2014-03-31T11:26:05Z</time>
      </trkpt>
      <trkpt lat="42.68205" lon="1.98158">
        <ele>2234.24</ele>
        <time>2014-03-31T11:26:16Z</time>
      </trkpt>
      <trkpt lat="42.68205" lon="1.98158">
        <ele>2233.76</ele>
        <time>2014-03-31T11:26:34Z</time>
      </trkpt>
      <trkpt lat="42.68203" lon="1.98159">
        <ele>2237.61</ele>
        <time>2014-03-31T11:27:06Z</time>
      </trkpt>
      <trkpt lat="42.68206" lon="1.98161">
        <ele>2236.16</ele>
        <time>2014-03-31T11:27:21Z</time>
      </trkpt>
      <trkpt lat="42.68207" lon="1.98159">
        <ele>2236.16</ele>
        <time>2014-03-31T11:27:32Z</time>
      </trkpt>
      <trkpt lat="42.68208" lon="1.98154">
        <ele>2238.09</ele>
        <time>2014-03-31T11:27:43Z</time>
      </trkpt>
      <trkpt lat="42.68209" lon="1.98152">
        <ele>2238.57</ele>
        <time>2014-03-31T11:27:45Z</time>
      </trkpt>
      <trkpt lat="42.68216" lon="1.98146">
        <ele>2239.05</ele>
        <time>2014-03-31T11:27:55Z</time>
      </trkpt>
      <trkpt lat="42.68214" lon="1.98147">
        <ele>2239.53</ele>
        <time>2014-03-31T11:28:07Z</time>
      </trkpt>
      <trkpt lat="42.68215" lon="1.98151">
        <ele>2240.49</ele>
        <time>2014-03-31T11:28:16Z</time>
      </trkpt>
      <trkpt lat="42.68214" lon="1.98154">
        <ele>2241.45</ele>
        <time>2014-03-31T11:28:27Z</time>
      </trkpt>
      <trkpt lat="42.68216" lon="1.98153">
        <ele>2241.45</ele>
        <time>2014-03-31T11:28:36Z</time>
      </trkpt>
      <trkpt lat="42.68216" lon="1.98151">
        <ele>2243.37</ele>
        <time>2014-03-31T11:28:47Z</time>
      </trkpt>
      <trkpt lat="42.68217" lon="1.98148">
        <ele>2244.82</ele>
        <time>2014-03-31T11:28:58Z</time>
      </trkpt>
      <trkpt lat="42.68217" lon="1.98147">
        <ele>2244.82</ele>
        <time>2014-03-31T11:29:01Z</time>
      </trkpt>
      <trkpt lat="42.68221" lon="1.98141">
        <ele>2244.82</ele>
        <time>2014-03-31T11:29:13Z</time>
      </trkpt>
      <trkpt lat="42.68228" lon="1.98139">
        <ele>2246.26</ele>
        <time>2014-03-31T11:29:24Z</time>
      </trkpt>
      <trkpt lat="42.68234" lon="1.98136">
        <ele>2248.18</ele>
        <time>2014-03-31T11:29:35Z</time>
      </trkpt>
      <trkpt lat="42.68238" lon="1.98134">
        <ele>2252.51</ele>
        <time>2014-03-31T11:29:50Z</time>
      </trkpt>
      <trkpt lat="42.68241" lon="1.98133">
        <ele>2253.47</ele>
        <time>2014-03-31T11:29:55Z</time>
      </trkpt>
      <trkpt lat="42.68247" lon="1.98134">
        <ele>2255.87</ele>
        <time>2014-03-31T11:30:09Z</time>
      </trkpt>
      <trkpt lat="42.68252" lon="1.98134">
        <ele>2257.31</ele>
        <time>2014-03-31T11:30:21Z</time>
      </trkpt>
      <trkpt lat="42.68254" lon="1.98134">
        <ele>2257.79</ele>
        <time>2014-03-31T11:30:24Z</time>
      </trkpt>
      <trkpt lat="42.6826" lon="1.98136">
        <ele>2259.24</ele>
        <time>2014-03-31T11:30:37Z</time>
      </trkpt>
      <trkpt lat="42.68266" lon="1.98139">
        <ele>2261.64</ele>
        <time>2014-03-31T11:30:48Z</time>
      </trkpt>
      <trkpt lat="42.68269" lon="1.98142">
        <ele>2262.6</ele>
        <time>2014-03-31T11:31:00Z</time>
      </trkpt>
      <trkpt lat="42.68272" lon="1.98144">
        <ele>2263.08</ele>
        <time>2014-03-31T11:31:10Z</time>
      </trkpt>
      <trkpt lat="42.68273" lon="1.98146">
        <ele>2263.08</ele>
        <time>2014-03-31T11:31:21Z</time>
      </trkpt>
      <trkpt lat="42.68275" lon="1.98146">
        <ele>2261.64</ele>
        <time>2014-03-31T11:31:32Z</time>
      </trkpt>
      <trkpt lat="42.68278" lon="1.98147">
        <ele>2264.04</ele>
        <time>2014-03-31T11:31:41Z</time>
      </trkpt>
      <trkpt lat="42.68281" lon="1.98146">
        <ele>2267.89</ele>
        <time>2014-03-31T11:31:53Z</time>
      </trkpt>
      <trkpt lat="42.68286" lon="1.98145">
        <ele>2268.37</ele>
        <time>2014-03-31T11:32:03Z</time>
      </trkpt>
      <trkpt lat="42.68289" lon="1.98148">
        <ele>2270.29</ele>
        <time>2014-03-31T11:32:15Z</time>
      </trkpt>
      <trkpt lat="42.68298" lon="1.98148">
        <ele>2271.25</ele>
        <time>2014-03-31T11:32:30Z</time>
      </trkpt>
      <trkpt lat="42.68302" lon="1.98149">
        <ele>2273.17</ele>
        <time>2014-03-31T11:32:41Z</time>
      </trkpt>
      <trkpt lat="42.68308" lon="1.9815">
        <ele>2274.62</ele>
        <time>2014-03-31T11:32:53Z</time>
      </trkpt>
      <trkpt lat="42.68312" lon="1.98156">
        <ele>2277.02</ele>
        <time>2014-03-31T11:33:04Z</time>
      </trkpt>
      <trkpt lat="42.68317" lon="1.98156">
        <ele>2279.42</ele>
        <time>2014-03-31T11:33:16Z</time>
      </trkpt>
      <trkpt lat="42.68322" lon="1.98157">
        <ele>2280.87</ele>
        <time>2014-03-31T11:33:29Z</time>
      </trkpt>
      <trkpt lat="42.68324" lon="1.98159">
        <ele>2282.31</ele>
        <time>2014-03-31T11:33:34Z</time>
      </trkpt>
      <trkpt lat="42.68329" lon="1.98162">
        <ele>2284.71</ele>
        <time>2014-03-31T11:33:46Z</time>
      </trkpt>
      <trkpt lat="42.68334" lon="1.98167">
        <ele>2286.63</ele>
        <time>2014-03-31T11:34:00Z</time>
      </trkpt>
      <trkpt lat="42.68338" lon="1.98169">
        <ele>2289.04</ele>
        <time>2014-03-31T11:34:11Z</time>
      </trkpt>
      <trkpt lat="42.68339" lon="1.98169">
        <ele>2290.48</ele>
        <time>2014-03-31T11:34:18Z</time>
      </trkpt>
      <trkpt lat="42.68345" lon="1.98164">
        <ele>2292.4</ele>
        <time>2014-03-31T11:34:31Z</time>
      </trkpt>
      <trkpt lat="42.68346" lon="1.98162">
        <ele>2293.36</ele>
        <time>2014-03-31T11:34:41Z</time>
      </trkpt>
      <trkpt lat="42.68347" lon="1.98164">
        <ele>2292.88</ele>
        <time>2014-03-31T11:34:51Z</time>
      </trkpt>
      <trkpt lat="42.68348" lon="1.98168">
        <ele>2294.32</ele>
        <time>2014-03-31T11:35:02Z</time>
      </trkpt>
      <trkpt lat="42.68349" lon="1.98169">
        <ele>2294.32</ele>
        <time>2014-03-31T11:35:12Z</time>
      </trkpt>
      <trkpt lat="42.68351" lon="1.98173">
        <ele>2295.28</ele>
        <time>2014-03-31T11:35:22Z</time>
      </trkpt>
      <trkpt lat="42.68353" lon="1.98176">
        <ele>2297.69</ele>
        <time>2014-03-31T11:35:31Z</time>
      </trkpt>
      <trkpt lat="42.68356" lon="1.98177">
        <ele>2299.61</ele>
        <time>2014-03-31T11:35:43Z</time>
      </trkpt>
      <trkpt lat="42.68358" lon="1.98176">
        <ele>2300.09</ele>
        <time>2014-03-31T11:35:53Z</time>
      </trkpt>
      <trkpt lat="42.6836" lon="1.98172">
        <ele>2302.01</ele>
        <time>2014-03-31T11:36:01Z</time>
      </trkpt>
      <trkpt lat="42.68361" lon="1.98167">
        <ele>2303.46</ele>
        <time>2014-03-31T11:36:11Z</time>
      </trkpt>
      <trkpt lat="42.68363" lon="1.98163">
        <ele>2305.38</ele>
        <time>2014-03-31T11:36:20Z</time>
      </trkpt>
      <trkpt lat="42.68366" lon="1.98159">
        <ele>2306.82</ele>
        <time>2014-03-31T11:36:30Z</time>
      </trkpt>
      <trkpt lat="42.68369" lon="1.98158">
        <ele>2308.26</ele>
        <time>2014-03-31T11:36:42Z</time>
      </trkpt>
      <trkpt lat="42.68369" lon="1.98158">
        <ele>2308.74</ele>
        <time>2014-03-31T11:36:54Z</time>
      </trkpt>
      <trkpt lat="42.68367" lon="1.98159">
        <ele>2307.78</ele>
        <time>2014-03-31T11:37:01Z</time>
      </trkpt>
      <trkpt lat="42.68366" lon="1.98158">
        <ele>2306.82</ele>
        <time>2014-03-31T11:37:24Z</time>
      </trkpt>
      <trkpt lat="42.68367" lon="1.98158">
        <ele>2306.82</ele>
        <time>2014-03-31T11:37:53Z</time>
      </trkpt>
      <trkpt lat="42.68367" lon="1.98158">
        <ele>2307.78</ele>
        <time>2014-03-31T11:38:22Z</time>
      </trkpt>
      <trkpt lat="42.68367" lon="1.98158">
        <ele>2307.3</ele>
        <time>2014-03-31T11:38:48Z</time>
      </trkpt>
      <trkpt lat="42.68367" lon="1.98158">
        <ele>2307.3</ele>
        <time>2014-03-31T11:39:23Z</time>
      </trkpt>
      <trkpt lat="42.68367" lon="1.98158">
        <ele>2308.26</ele>
        <time>2014-03-31T11:39:49Z</time>
      </trkpt>
      <trkpt lat="42.68369" lon="1.98159">
        <ele>2308.26</ele>
        <time>2014-03-31T11:40:03Z</time>
      </trkpt>
      <trkpt lat="42.68374" lon="1.98157">
        <ele>2307.78</ele>
        <time>2014-03-31T11:40:16Z</time>
      </trkpt>
      <trkpt lat="42.68378" lon="1.98157">
        <ele>2308.26</ele>
        <time>2014-03-31T11:40:21Z</time>
      </trkpt>
      <trkpt lat="42.68386" lon="1.98153">
        <ele>2310.19</ele>
        <time>2014-03-31T11:40:33Z</time>
      </trkpt>
      <trkpt lat="42.68389" lon="1.98153">
        <ele>2310.19</ele>
        <time>2014-03-31T11:40:42Z</time>
      </trkpt>
      <trkpt lat="42.68388" lon="1.98153">
        <ele>2308.74</ele>
        <time>2014-03-31T11:40:57Z</time>
      </trkpt>
      <trkpt lat="42.68388" lon="1.98153">
        <ele>2308.74</ele>
        <time>2014-03-31T11:41:10Z</time>
      </trkpt>
      <trkpt lat="42.68389" lon="1.98153">
        <ele>2308.74</ele>
        <time>2014-03-31T11:41:23Z</time>
      </trkpt>
      <trkpt lat="42.6839" lon="1.98153">
        <ele>2309.22</ele>
        <time>2014-03-31T11:41:41Z</time>
      </trkpt>
      <trkpt lat="42.68389" lon="1.98153">
        <ele>2309.22</ele>
        <time>2014-03-31T11:42:05Z</time>
      </trkpt>
      <trkpt lat="42.68389" lon="1.98153">
        <ele>2309.7</ele>
        <time>2014-03-31T11:42:23Z</time>
      </trkpt>
      <trkpt lat="42.68389" lon="1.98153">
        <ele>2309.7</ele>
        <time>2014-03-31T11:42:36Z</time>
      </trkpt>
      <trkpt lat="42.68388" lon="1.98153">
        <ele>2310.19</ele>
        <time>2014-03-31T11:42:47Z</time>
      </trkpt>
      <trkpt lat="42.68389" lon="1.98154">
        <ele>2309.7</ele>
        <time>2014-03-31T11:43:01Z</time>
      </trkpt>
      <trkpt lat="42.68391" lon="1.9815">
        <ele>2309.22</ele>
        <time>2014-03-31T11:43:12Z</time>
      </trkpt>
      <trkpt lat="42.68391" lon="1.98151">
        <ele>2311.15</ele>
        <time>2014-03-31T11:43:32Z</time>
      </trkpt>
      <trkpt lat="42.68391" lon="1.9815">
        <ele>2311.15</ele>
        <time>2014-03-31T11:43:51Z</time>
      </trkpt>
      <trkpt lat="42.68389" lon="1.9815">
        <ele>2310.67</ele>
        <time>2014-03-31T11:44:02Z</time>
      </trkpt>
      <trkpt lat="42.6839" lon="1.98152">
        <ele>2311.15</ele>
        <time>2014-03-31T11:44:16Z</time>
      </trkpt>
      <trkpt lat="42.6839" lon="1.9815">
        <ele>2311.63</ele>
        <time>2014-03-31T11:44:34Z</time>
      </trkpt>
      <trkpt lat="42.68389" lon="1.98148">
        <ele>2311.15</ele>
        <time>2014-03-31T11:45:16Z</time>
      </trkpt>
      <trkpt lat="42.68389" lon="1.98149">
        <ele>2312.11</ele>
        <time>2014-03-31T11:46:00Z</time>
      </trkpt>
      <trkpt lat="42.68391" lon="1.98147">
        <ele>2313.55</ele>
        <time>2014-03-31T11:46:35Z</time>
      </trkpt>
      <trkpt lat="42.6839" lon="1.98148">
        <ele>2312.11</ele>
        <time>2014-03-31T11:47:15Z</time>
      </trkpt>
      <trkpt lat="42.68391" lon="1.98149">
        <ele>2305.86</ele>
        <time>2014-03-31T11:48:04Z</time>
      </trkpt>
      <trkpt lat="42.68391" lon="1.98151">
        <ele>2303.46</ele>
        <time>2014-03-31T11:48:48Z</time>
      </trkpt>
      <trkpt lat="42.6839" lon="1.98151">
        <ele>2302.01</ele>
        <time>2014-03-31T11:49:19Z</time>
      </trkpt>
      <trkpt lat="42.68391" lon="1.98153">
        <ele>2302.98</ele>
        <time>2014-03-31T11:49:39Z</time>
      </trkpt>
      <trkpt lat="42.68392" lon="1.98154">
        <ele>2306.34</ele>
        <time>2014-03-31T11:49:59Z</time>
      </trkpt>
      <trkpt lat="42.68392" lon="1.98154">
        <ele>2307.3</ele>
        <time>2014-03-31T11:50:17Z</time>
      </trkpt>
      <trkpt lat="42.6839" lon="1.98153">
        <ele>2308.74</ele>
        <time>2014-03-31T11:50:41Z</time>
      </trkpt>
      <trkpt lat="42.6839" lon="1.98154">
        <ele>2309.22</ele>
        <time>2014-03-31T11:51:09Z</time>
      </trkpt>
      <trkpt lat="42.68389" lon="1.98155">
        <ele>2312.11</ele>
        <time>2014-03-31T11:51:48Z</time>
      </trkpt>
      <trkpt lat="42.6839" lon="1.98153">
        <ele>2311.63</ele>
        <time>2014-03-31T11:52:20Z</time>
      </trkpt>
      <trkpt lat="42.68388" lon="1.98151">
        <ele>2311.63</ele>
        <time>2014-03-31T11:52:53Z</time>
      </trkpt>
      <trkpt lat="42.68389" lon="1.98149">
        <ele>2313.55</ele>
        <time>2014-03-31T11:53:28Z</time>
      </trkpt>
      <trkpt lat="42.68388" lon="1.98147">
        <ele>2314.99</ele>
        <time>2014-03-31T11:54:07Z</time>
      </trkpt>
      <trkpt lat="42.68388" lon="1.98147">
        <ele>2314.99</ele>
        <time>2014-03-31T11:54:32Z</time>
      </trkpt>
      <trkpt lat="42.68388" lon="1.9815">
        <ele>2314.03</ele>
        <time>2014-03-31T11:55:06Z</time>
      </trkpt>
      <trkpt lat="42.68389" lon="1.9815">
        <ele>2313.07</ele>
        <time>2014-03-31T11:55:38Z</time>
      </trkpt>
      <trkpt lat="42.6839" lon="1.98148">
        <ele>2312.59</ele>
        <time>2014-03-31T11:56:07Z</time>
      </trkpt>
      <trkpt lat="42.68389" lon="1.9815">
        <ele>2312.11</ele>
        <time>2014-03-31T11:56:45Z</time>
      </trkpt>
      <trkpt lat="42.68388" lon="1.98151">
        <ele>2312.11</ele>
        <time>2014-03-31T11:57:17Z</time>
      </trkpt>
      <trkpt lat="42.68388" lon="1.98152">
        <ele>2313.07</ele>
        <time>2014-03-31T11:57:48Z</time>
      </trkpt>
      <trkpt lat="42.68388" lon="1.98154">
        <ele>2311.63</ele>
        <time>2014-03-31T11:58:23Z</time>
      </trkpt>
      <trkpt lat="42.68388" lon="1.98152">
        <ele>2311.63</ele>
        <time>2014-03-31T11:58:58Z</time>
      </trkpt>
      <trkpt lat="42.68387" lon="1.98152">
        <ele>2313.55</ele>
        <time>2014-03-31T11:59:35Z</time>
      </trkpt>
      <trkpt lat="42.68387" lon="1.98152">
        <ele>2314.99</ele>
        <time>2014-03-31T12:00:12Z</time>
      </trkpt>
      <trkpt lat="42.68386" lon="1.98152">
        <ele>2314.99</ele>
        <time>2014-03-31T12:00:41Z</time>
      </trkpt>
      <trkpt lat="42.68387" lon="1.98151">
        <ele>2314.99</ele>
        <time>2014-03-31T12:01:14Z</time>
      </trkpt>
      <trkpt lat="42.68387" lon="1.9815">
        <ele>2315.47</ele>
        <time>2014-03-31T12:01:54Z</time>
      </trkpt>
      <trkpt lat="42.68386" lon="1.98149">
        <ele>2317.4</ele>
        <time>2014-03-31T12:02:25Z</time>
      </trkpt>
      <trkpt lat="42.68386" lon="1.9815">
        <ele>2317.88</ele>
        <time>2014-03-31T12:02:55Z</time>
      </trkpt>
      <trkpt lat="42.68386" lon="1.98152">
        <ele>2319.32</ele>
        <time>2014-03-31T12:03:23Z</time>
      </trkpt>
      <trkpt lat="42.68387" lon="1.98149">
        <ele>2316.91</ele>
        <time>2014-03-31T12:04:01Z</time>
      </trkpt>
      <trkpt lat="42.68387" lon="1.9815">
        <ele>2315.95</ele>
        <time>2014-03-31T12:04:32Z</time>
      </trkpt>
      <trkpt lat="42.68386" lon="1.98152">
        <ele>2317.88</ele>
        <time>2014-03-31T12:05:06Z</time>
      </trkpt>
      <trkpt lat="42.68386" lon="1.9815">
        <ele>2320.76</ele>
        <time>2014-03-31T12:05:39Z</time>
      </trkpt>
      <trkpt lat="42.68385" lon="1.9815">
        <ele>2323.16</ele>
        <time>2014-03-31T12:06:16Z</time>
      </trkpt>
      <trkpt lat="42.68386" lon="1.98147">
        <ele>2322.68</ele>
        <time>2014-03-31T12:06:53Z</time>
      </trkpt>
      <trkpt lat="42.68385" lon="1.98148">
        <ele>2323.16</ele>
        <time>2014-03-31T12:07:26Z</time>
      </trkpt>
      <trkpt lat="42.68385" lon="1.9815">
        <ele>2324.12</ele>
        <time>2014-03-31T12:08:03Z</time>
      </trkpt>
      <trkpt lat="42.68384" lon="1.9815">
        <ele>2325.57</ele>
        <time>2014-03-31T12:08:45Z</time>
      </trkpt>
      <trkpt lat="42.68387" lon="1.9815">
        <ele>2323.64</ele>
        <time>2014-03-31T12:09:21Z</time>
      </trkpt>
      <trkpt lat="42.68388" lon="1.98148">
        <ele>2318.84</ele>
        <time>2014-03-31T12:09:52Z</time>
      </trkpt>
      <trkpt lat="42.68386" lon="1.98152">
        <ele>2320.76</ele>
        <time>2014-03-31T12:10:32Z</time>
      </trkpt>
      <trkpt lat="42.68386" lon="1.98152">
        <ele>2320.28</ele>
        <time>2014-03-31T12:11:02Z</time>
      </trkpt>
      <trkpt lat="42.68388" lon="1.98152">
        <ele>2319.32</ele>
        <time>2014-03-31T12:11:32Z</time>
      </trkpt>
      <trkpt lat="42.6839" lon="1.98153">
        <ele>2314.51</ele>
        <time>2014-03-31T12:12:12Z</time>
      </trkpt>
      <trkpt lat="42.6839" lon="1.98149">
        <ele>2312.59</ele>
        <time>2014-03-31T12:12:53Z</time>
      </trkpt>
      <trkpt lat="42.68388" lon="1.98147">
        <ele>2310.19</ele>
        <time>2014-03-31T12:13:30Z</time>
      </trkpt>
      <trkpt lat="42.68388" lon="1.98147">
        <ele>2310.19</ele>
        <time>2014-03-31T12:14:02Z</time>
      </trkpt>
      <trkpt lat="42.68388" lon="1.98146">
        <ele>2310.19</ele>
        <time>2014-03-31T12:14:44Z</time>
      </trkpt>
      <trkpt lat="42.68388" lon="1.98144">
        <ele>2308.74</ele>
        <time>2014-03-31T12:15:15Z</time>
      </trkpt>
      <trkpt lat="42.68388" lon="1.98146">
        <ele>2309.22</ele>
        <time>2014-03-31T12:15:50Z</time>
      </trkpt>
      <trkpt lat="42.68388" lon="1.98147">
        <ele>2308.26</ele>
        <time>2014-03-31T12:16:21Z</time>
      </trkpt>
      <trkpt lat="42.68389" lon="1.98148">
        <ele>2309.22</ele>
        <time>2014-03-31T12:16:58Z</time>
      </trkpt>
      <trkpt lat="42.68389" lon="1.98147">
        <ele>2307.78</ele>
        <time>2014-03-31T12:17:33Z</time>
      </trkpt>
      <trkpt lat="42.68389" lon="1.98148">
        <ele>2308.74</ele>
        <time>2014-03-31T12:18:05Z</time>
      </trkpt>
      <trkpt lat="42.68391" lon="1.98151">
        <ele>2311.15</ele>
        <time>2014-03-31T12:18:24Z</time>
      </trkpt>
      <trkpt lat="42.68393" lon="1.98156">
        <ele>2310.19</ele>
        <time>2014-03-31T12:18:48Z</time>
      </trkpt>
      <trkpt lat="42.68392" lon="1.98156">
        <ele>2308.74</ele>
        <time>2014-03-31T12:19:30Z</time>
      </trkpt>
      <trkpt lat="42.68392" lon="1.98156">
        <ele>2309.22</ele>
        <time>2014-03-31T12:20:00Z</time>
      </trkpt>
      <trkpt lat="42.68392" lon="1.98157">
        <ele>2309.22</ele>
        <time>2014-03-31T12:20:34Z</time>
      </trkpt>
      <trkpt lat="42.68392" lon="1.98155">
        <ele>2307.78</ele>
        <time>2014-03-31T12:21:11Z</time>
      </trkpt>
      <trkpt lat="42.68389" lon="1.98152">
        <ele>2307.78</ele>
        <time>2014-03-31T12:21:45Z</time>
      </trkpt>
      <trkpt lat="42.68392" lon="1.98153">
        <ele>2308.74</ele>
        <time>2014-03-31T12:22:04Z</time>
      </trkpt>
      <trkpt lat="42.6839" lon="1.98152">
        <ele>2308.74</ele>
        <time>2014-03-31T12:22:24Z</time>
      </trkpt>
      <trkpt lat="42.68389" lon="1.98151">
        <ele>2308.74</ele>
        <time>2014-03-31T12:22:47Z</time>
      </trkpt>
      <trkpt lat="42.68391" lon="1.98151">
        <ele>2308.26</ele>
        <time>2014-03-31T12:23:07Z</time>
      </trkpt>
      <trkpt lat="42.68392" lon="1.98151">
        <ele>2307.78</ele>
        <time>2014-03-31T12:23:34Z</time>
      </trkpt>
      <trkpt lat="42.68393" lon="1.98152">
        <ele>2307.3</ele>
        <time>2014-03-31T12:24:17Z</time>
      </trkpt>
      <trkpt lat="42.68391" lon="1.98151">
        <ele>2306.82</ele>
        <time>2014-03-31T12:24:51Z</time>
      </trkpt>
      <trkpt lat="42.68391" lon="1.98149">
        <ele>2305.86</ele>
        <time>2014-03-31T12:25:30Z</time>
      </trkpt>
      <trkpt lat="42.6839" lon="1.9815">
        <ele>2308.26</ele>
        <time>2014-03-31T12:25:53Z</time>
      </trkpt>
      <trkpt lat="42.68388" lon="1.98149">
        <ele>2308.74</ele>
        <time>2014-03-31T12:26:12Z</time>
      </trkpt>
      <trkpt lat="42.68387" lon="1.9815">
        <ele>2310.19</ele>
        <time>2014-03-31T12:26:22Z</time>
      </trkpt>
      <trkpt lat="42.68383" lon="1.98152">
        <ele>2310.19</ele>
        <time>2014-03-31T12:26:31Z</time>
      </trkpt>
      <trkpt lat="42.68384" lon="1.9815">
        <ele>2309.7</ele>
        <time>2014-03-31T12:26:45Z</time>
      </trkpt>
      <trkpt lat="42.68384" lon="1.98152">
        <ele>2310.67</ele>
        <time>2014-03-31T12:26:57Z</time>
      </trkpt>
      <trkpt lat="42.68384" lon="1.98152">
        <ele>2311.15</ele>
        <time>2014-03-31T12:27:18Z</time>
      </trkpt>
      <trkpt lat="42.68378" lon="1.98154">
        <ele>2309.7</ele>
        <time>2014-03-31T12:27:25Z</time>
      </trkpt>
      <trkpt lat="42.68372" lon="1.98151">
        <ele>2308.26</ele>
        <time>2014-03-31T12:27:28Z</time>
      </trkpt>
      <trkpt lat="42.68371" lon="1.98132">
        <ele>2302.98</ele>
        <time>2014-03-31T12:27:35Z</time>
      </trkpt>
      <trkpt lat="42.68375" lon="1.9813">
        <ele>2302.01</ele>
        <time>2014-03-31T12:27:41Z</time>
      </trkpt>
      <trkpt lat="42.68376" lon="1.98122">
        <ele>2298.17</ele>
        <time>2014-03-31T12:27:48Z</time>
      </trkpt>
      <trkpt lat="42.68377" lon="1.98119">
        <ele>2296.25</ele>
        <time>2014-03-31T12:27:50Z</time>
      </trkpt>
      <trkpt lat="42.68379" lon="1.98117">
        <ele>2292.4</ele>
        <time>2014-03-31T12:27:53Z</time>
      </trkpt>
      <trkpt lat="42.68381" lon="1.98114">
        <ele>2290</ele>
        <time>2014-03-31T12:27:57Z</time>
      </trkpt>
      <trkpt lat="42.68382" lon="1.98111">
        <ele>2287.11</ele>
        <time>2014-03-31T12:28:02Z</time>
      </trkpt>
      <trkpt lat="42.68381" lon="1.98105">
        <ele>2285.19</ele>
        <time>2014-03-31T12:28:12Z</time>
      </trkpt>
      <trkpt lat="42.68382" lon="1.98104">
        <ele>2284.71</ele>
        <time>2014-03-31T12:28:18Z</time>
      </trkpt>
      <trkpt lat="42.68388" lon="1.98104">
        <ele>2281.35</ele>
        <time>2014-03-31T12:28:26Z</time>
      </trkpt>
      <trkpt lat="42.68389" lon="1.98104">
        <ele>2280.87</ele>
        <time>2014-03-31T12:28:27Z</time>
      </trkpt>
      <trkpt lat="42.68389" lon="1.98095">
        <ele>2278.46</ele>
        <time>2014-03-31T12:28:33Z</time>
      </trkpt>
      <trkpt lat="42.68391" lon="1.9809">
        <ele>2274.14</ele>
        <time>2014-03-31T12:28:39Z</time>
      </trkpt>
      <trkpt lat="42.68391" lon="1.98088">
        <ele>2274.14</ele>
        <time>2014-03-31T12:28:57Z</time>
      </trkpt>
      <trkpt lat="42.68391" lon="1.98089">
        <ele>2275.1</ele>
        <time>2014-03-31T12:29:16Z</time>
      </trkpt>
      <trkpt lat="42.68392" lon="1.98089">
        <ele>2274.62</ele>
        <time>2014-03-31T12:29:38Z</time>
      </trkpt>
      <trkpt lat="42.68391" lon="1.9809">
        <ele>2277.02</ele>
        <time>2014-03-31T12:30:08Z</time>
      </trkpt>
      <trkpt lat="42.68391" lon="1.98089">
        <ele>2277.02</ele>
        <time>2014-03-31T12:30:30Z</time>
      </trkpt>
      <trkpt lat="42.68391" lon="1.98089">
        <ele>2275.58</ele>
        <time>2014-03-31T12:30:55Z</time>
      </trkpt>
      <trkpt lat="42.68391" lon="1.98091">
        <ele>2276.06</ele>
        <time>2014-03-31T12:31:15Z</time>
      </trkpt>
      <trkpt lat="42.68389" lon="1.9809">
        <ele>2276.54</ele>
        <time>2014-03-31T12:31:33Z</time>
      </trkpt>
      <trkpt lat="42.68391" lon="1.98088">
        <ele>2276.54</ele>
        <time>2014-03-31T12:31:53Z</time>
      </trkpt>
      <trkpt lat="42.68393" lon="1.98088">
        <ele>2276.06</ele>
        <time>2014-03-31T12:32:09Z</time>
      </trkpt>
      <trkpt lat="42.68394" lon="1.98091">
        <ele>2277.02</ele>
        <time>2014-03-31T12:32:25Z</time>
      </trkpt>
      <trkpt lat="42.68398" lon="1.98093">
        <ele>2274.62</ele>
        <time>2014-03-31T12:32:29Z</time>
      </trkpt>
      <trkpt lat="42.68398" lon="1.98083">
        <ele>2271.25</ele>
        <time>2014-03-31T12:32:33Z</time>
      </trkpt>
      <trkpt lat="42.68404" lon="1.98076">
        <ele>2263.56</ele>
        <time>2014-03-31T12:32:40Z</time>
      </trkpt>
      <trkpt lat="42.68411" lon="1.98074">
        <ele>2257.79</ele>
        <time>2014-03-31T12:32:45Z</time>
      </trkpt>
      <trkpt lat="42.68417" lon="1.98072">
        <ele>2251.06</ele>
        <time>2014-03-31T12:32:49Z</time>
      </trkpt>
      <trkpt lat="42.6842" lon="1.98068">
        <ele>2243.85</ele>
        <time>2014-03-31T12:32:58Z</time>
      </trkpt>
      <trkpt lat="42.68421" lon="1.9807">
        <ele>2243.37</ele>
        <time>2014-03-31T12:33:15Z</time>
      </trkpt>
      <trkpt lat="42.6842" lon="1.9807">
        <ele>2244.82</ele>
        <time>2014-03-31T12:33:21Z</time>
      </trkpt>
      <trkpt lat="42.68427" lon="1.98067">
        <ele>2241.45</ele>
        <time>2014-03-31T12:33:24Z</time>
      </trkpt>
      <trkpt lat="42.68432" lon="1.98056">
        <ele>2233.28</ele>
        <time>2014-03-31T12:33:30Z</time>
      </trkpt>
      <trkpt lat="42.68437" lon="1.98049">
        <ele>2226.07</ele>
        <time>2014-03-31T12:33:35Z</time>
      </trkpt>
      <trkpt lat="42.68442" lon="1.98043">
        <ele>2215.01</ele>
        <time>2014-03-31T12:33:41Z</time>
      </trkpt>
      <trkpt lat="42.68441" lon="1.98026">
        <ele>2207.32</ele>
        <time>2014-03-31T12:33:46Z</time>
      </trkpt>
      <trkpt lat="42.6846" lon="1.98023">
        <ele>2205.4</ele>
        <time>2014-03-31T12:33:50Z</time>
      </trkpt>
      <trkpt lat="42.68466" lon="1.98016">
        <ele>2200.11</ele>
        <time>2014-03-31T12:33:55Z</time>
      </trkpt>
      <trkpt lat="42.68457" lon="1.97994">
        <ele>2194.83</ele>
        <time>2014-03-31T12:34:05Z</time>
      </trkpt>
      <trkpt lat="42.68454" lon="1.97991">
        <ele>2194.83</ele>
        <time>2014-03-31T12:34:22Z</time>
      </trkpt>
      <trkpt lat="42.68453" lon="1.97991">
        <ele>2194.35</ele>
        <time>2014-03-31T12:34:29Z</time>
      </trkpt>
      <trkpt lat="42.68463" lon="1.97982">
        <ele>2187.62</ele>
        <time>2014-03-31T12:34:36Z</time>
      </trkpt>
      <trkpt lat="42.68467" lon="1.97987">
        <ele>2186.18</ele>
        <time>2014-03-31T12:34:37Z</time>
      </trkpt>
      <trkpt lat="42.68473" lon="1.97995">
        <ele>2183.77</ele>
        <time>2014-03-31T12:34:39Z</time>
      </trkpt>
      <trkpt lat="42.68484" lon="1.97977">
        <ele>2173.2</ele>
        <time>2014-03-31T12:34:45Z</time>
      </trkpt>
      <trkpt lat="42.68498" lon="1.97966">
        <ele>2164.06</ele>
        <time>2014-03-31T12:34:49Z</time>
      </trkpt>
      <trkpt lat="42.68495" lon="1.97954">
        <ele>2161.18</ele>
        <time>2014-03-31T12:34:51Z</time>
      </trkpt>
      <trkpt lat="42.68489" lon="1.97934">
        <ele>2158.3</ele>
        <time>2014-03-31T12:34:54Z</time>
      </trkpt>
      <trkpt lat="42.68497" lon="1.9793">
        <ele>2154.45</ele>
        <time>2014-03-31T12:34:57Z</time>
      </trkpt>
      <trkpt lat="42.685" lon="1.97899">
        <ele>2143.88</ele>
        <time>2014-03-31T12:35:02Z</time>
      </trkpt>
      <trkpt lat="42.68518" lon="1.97885">
        <ele>2134.26</ele>
        <time>2014-03-31T12:35:06Z</time>
      </trkpt>
      <trkpt lat="42.68527" lon="1.97863">
        <ele>2128.02</ele>
        <time>2014-03-31T12:35:08Z</time>
      </trkpt>
      <trkpt lat="42.68535" lon="1.97811">
        <ele>2116.96</ele>
        <time>2014-03-31T12:35:14Z</time>
      </trkpt>
      <trkpt lat="42.68538" lon="1.97806">
        <ele>2115.04</ele>
        <time>2014-03-31T12:35:16Z</time>
      </trkpt>
      <trkpt lat="42.68552" lon="1.97799">
        <ele>2112.63</ele>
        <time>2014-03-31T12:35:27Z</time>
      </trkpt>
      <trkpt lat="42.68553" lon="1.97797">
        <ele>2112.63</ele>
        <time>2014-03-31T12:35:37Z</time>
      </trkpt>
      <trkpt lat="42.68552" lon="1.97798">
        <ele>2113.6</ele>
        <time>2014-03-31T12:36:00Z</time>
      </trkpt>
      <trkpt lat="42.68553" lon="1.978">
        <ele>2114.08</ele>
        <time>2014-03-31T12:36:11Z</time>
      </trkpt>
      <trkpt lat="42.68572" lon="1.97824">
        <ele>2106.87</ele>
        <time>2014-03-31T12:36:18Z</time>
      </trkpt>
      <trkpt lat="42.68581" lon="1.97821">
        <ele>2105.42</ele>
        <time>2014-03-31T12:36:22Z</time>
      </trkpt>
      <trkpt lat="42.686" lon="1.9779">
        <ele>2099.66</ele>
        <time>2014-03-31T12:36:35Z</time>
      </trkpt>
      <trkpt lat="42.68602" lon="1.97784">
        <ele>2099.18</ele>
        <time>2014-03-31T12:36:38Z</time>
      </trkpt>
      <trkpt lat="42.68594" lon="1.97763">
        <ele>2097.73</ele>
        <time>2014-03-31T12:36:46Z</time>
      </trkpt>
      <trkpt lat="42.6859" lon="1.9773">
        <ele>2092.93</ele>
        <time>2014-03-31T12:36:51Z</time>
      </trkpt>
      <trkpt lat="42.686" lon="1.97712">
        <ele>2088.6</ele>
        <time>2014-03-31T12:36:56Z</time>
      </trkpt>
      <trkpt lat="42.68607" lon="1.97695">
        <ele>2083.79</ele>
        <time>2014-03-31T12:36:59Z</time>
      </trkpt>
      <trkpt lat="42.68621" lon="1.9766">
        <ele>2075.62</ele>
        <time>2014-03-31T12:37:09Z</time>
      </trkpt>
      <trkpt lat="42.68629" lon="1.97638">
        <ele>2071.78</ele>
        <time>2014-03-31T12:37:19Z</time>
      </trkpt>
      <trkpt lat="42.68637" lon="1.97608">
        <ele>2065.05</ele>
        <time>2014-03-31T12:37:27Z</time>
      </trkpt>
      <trkpt lat="42.6864" lon="1.97598">
        <ele>2064.09</ele>
        <time>2014-03-31T12:37:29Z</time>
      </trkpt>
      <trkpt lat="42.68642" lon="1.97583">
        <ele>2065.05</ele>
        <time>2014-03-31T12:37:39Z</time>
      </trkpt>
      <trkpt lat="42.68642" lon="1.97583">
        <ele>2065.53</ele>
        <time>2014-03-31T12:37:57Z</time>
      </trkpt>
      <trkpt lat="42.68642" lon="1.97582">
        <ele>2066.49</ele>
        <time>2014-03-31T12:38:11Z</time>
      </trkpt>
      <trkpt lat="42.68636" lon="1.97573">
        <ele>2064.09</ele>
        <time>2014-03-31T12:38:21Z</time>
      </trkpt>
      <trkpt lat="42.68635" lon="1.97573">
        <ele>2064.09</ele>
        <time>2014-03-31T12:38:28Z</time>
      </trkpt>
      <trkpt lat="42.68634" lon="1.97574">
        <ele>2065.05</ele>
        <time>2014-03-31T12:38:36Z</time>
      </trkpt>
      <trkpt lat="42.68634" lon="1.97573">
        <ele>2066.01</ele>
        <time>2014-03-31T12:38:42Z</time>
      </trkpt>
      <trkpt lat="42.68633" lon="1.97575">
        <ele>2066.97</ele>
        <time>2014-03-31T12:38:51Z</time>
      </trkpt>
      <trkpt lat="42.68631" lon="1.97576">
        <ele>2067.45</ele>
        <time>2014-03-31T12:38:59Z</time>
      </trkpt>
      <trkpt lat="42.68629" lon="1.97579">
        <ele>2067.93</ele>
        <time>2014-03-31T12:39:02Z</time>
      </trkpt>
      <trkpt lat="42.68619" lon="1.97579">
        <ele>2065.05</ele>
        <time>2014-03-31T12:39:14Z</time>
      </trkpt>
      <trkpt lat="42.68617" lon="1.9758">
        <ele>2065.05</ele>
        <time>2014-03-31T12:39:31Z</time>
      </trkpt>
      <trkpt lat="42.68601" lon="1.97553">
        <ele>2061.68</ele>
        <time>2014-03-31T12:39:38Z</time>
      </trkpt>
      <trkpt lat="42.68601" lon="1.9753">
        <ele>2059.76</ele>
        <time>2014-03-31T12:39:48Z</time>
      </trkpt>
      <trkpt lat="42.68602" lon="1.97526">
        <ele>2059.28</ele>
        <time>2014-03-31T12:39:52Z</time>
      </trkpt>
      <trkpt lat="42.68605" lon="1.97522">
        <ele>2059.76</ele>
        <time>2014-03-31T12:40:03Z</time>
      </trkpt>
      <trkpt lat="42.68604" lon="1.97523">
        <ele>2061.2</ele>
        <time>2014-03-31T12:40:16Z</time>
      </trkpt>
      <trkpt lat="42.68604" lon="1.97523">
        <ele>2060.72</ele>
        <time>2014-03-31T12:40:28Z</time>
      </trkpt>
      <trkpt lat="42.68601" lon="1.97525">
        <ele>2061.2</ele>
        <time>2014-03-31T12:40:47Z</time>
      </trkpt>
      <trkpt lat="42.68601" lon="1.97526">
        <ele>2063.61</ele>
        <time>2014-03-31T12:41:22Z</time>
      </trkpt>
      <trkpt lat="42.68604" lon="1.97526">
        <ele>2065.53</ele>
        <time>2014-03-31T12:41:52Z</time>
      </trkpt>
      <trkpt lat="42.68601" lon="1.97525">
        <ele>2062.17</ele>
        <time>2014-03-31T12:42:15Z</time>
      </trkpt>
      <trkpt lat="42.68605" lon="1.97518">
        <ele>2056.4</ele>
        <time>2014-03-31T12:42:50Z</time>
      </trkpt>
      <trkpt lat="42.68609" lon="1.97521">
        <ele>2064.57</ele>
        <time>2014-03-31T12:43:31Z</time>
      </trkpt>
      <trkpt lat="42.68614" lon="1.97517">
        <ele>2072.26</ele>
        <time>2014-03-31T12:44:07Z</time>
      </trkpt>
      <trkpt lat="42.68615" lon="1.97521">
        <ele>2077.07</ele>
        <time>2014-03-31T12:44:32Z</time>
      </trkpt>
      <trkpt lat="42.68613" lon="1.97519">
        <ele>2079.47</ele>
        <time>2014-03-31T12:45:12Z</time>
      </trkpt>
      <trkpt lat="42.68611" lon="1.97516">
        <ele>2078.51</ele>
        <time>2014-03-31T12:45:37Z</time>
      </trkpt>
      <trkpt lat="42.68605" lon="1.97512">
        <ele>2077.55</ele>
        <time>2014-03-31T12:46:00Z</time>
      </trkpt>
      <trkpt lat="42.68603" lon="1.97516">
        <ele>2071.78</ele>
        <time>2014-03-31T12:46:17Z</time>
      </trkpt>
      <trkpt lat="42.68602" lon="1.97515">
        <ele>2070.82</ele>
        <time>2014-03-31T12:46:39Z</time>
      </trkpt>
      <trkpt lat="42.68601" lon="1.97515">
        <ele>2071.78</ele>
        <time>2014-03-31T12:47:11Z</time>
      </trkpt>
      <trkpt lat="42.68601" lon="1.97515">
        <ele>2067.93</ele>
        <time>2014-03-31T12:47:41Z</time>
      </trkpt>
      <trkpt lat="42.68602" lon="1.97524">
        <ele>2060.24</ele>
        <time>2014-03-31T12:48:11Z</time>
      </trkpt>
      <trkpt lat="42.68601" lon="1.97526">
        <ele>2056.88</ele>
        <time>2014-03-31T12:48:55Z</time>
      </trkpt>
      <trkpt lat="42.68601" lon="1.97526">
        <ele>2054.47</ele>
        <time>2014-03-31T12:49:35Z</time>
      </trkpt>
      <trkpt lat="42.68602" lon="1.97524">
        <ele>2056.4</ele>
        <time>2014-03-31T12:50:02Z</time>
      </trkpt>
      <trkpt lat="42.68601" lon="1.97524">
        <ele>2058.8</ele>
        <time>2014-03-31T12:50:12Z</time>
      </trkpt>
      <trkpt lat="42.68602" lon="1.97524">
        <ele>2061.2</ele>
        <time>2014-03-31T12:50:27Z</time>
      </trkpt>
      <trkpt lat="42.68603" lon="1.97521">
        <ele>2062.65</ele>
        <time>2014-03-31T12:50:44Z</time>
      </trkpt>
      <trkpt lat="42.68603" lon="1.97522">
        <ele>2062.17</ele>
        <time>2014-03-31T12:50:59Z</time>
      </trkpt>
      <trkpt lat="42.686" lon="1.97518">
        <ele>2064.57</ele>
        <time>2014-03-31T12:51:15Z</time>
      </trkpt>
      <trkpt lat="42.686" lon="1.97515">
        <ele>2064.09</ele>
        <time>2014-03-31T12:51:25Z</time>
      </trkpt>
      <trkpt lat="42.68599" lon="1.97513">
        <ele>2063.61</ele>
        <time>2014-03-31T12:51:27Z</time>
      </trkpt>
      <trkpt lat="42.68597" lon="1.97507">
        <ele>2064.57</ele>
        <time>2014-03-31T12:51:39Z</time>
      </trkpt>
      <trkpt lat="42.68593" lon="1.97497">
        <ele>2066.01</ele>
        <time>2014-03-31T12:51:50Z</time>
      </trkpt>
      <trkpt lat="42.6859" lon="1.97488">
        <ele>2067.93</ele>
        <time>2014-03-31T12:52:01Z</time>
      </trkpt>
      <trkpt lat="42.68588" lon="1.97483">
        <ele>2070.34</ele>
        <time>2014-03-31T12:52:14Z</time>
      </trkpt>
      <trkpt lat="42.68587" lon="1.97478">
        <ele>2072.26</ele>
        <time>2014-03-31T12:52:27Z</time>
      </trkpt>
      <trkpt lat="42.68587" lon="1.97478">
        <ele>2072.26</ele>
        <time>2014-03-31T12:52:28Z</time>
      </trkpt>
      <trkpt lat="42.68585" lon="1.97477">
        <ele>2070.34</ele>
        <time>2014-03-31T12:52:39Z</time>
      </trkpt>
      <trkpt lat="42.68586" lon="1.97479">
        <ele>2072.26</ele>
        <time>2014-03-31T12:52:50Z</time>
      </trkpt>
      <trkpt lat="42.68585" lon="1.97479">
        <ele>2070.82</ele>
        <time>2014-03-31T12:53:06Z</time>
      </trkpt>
      <trkpt lat="42.68585" lon="1.97477">
        <ele>2067.45</ele>
        <time>2014-03-31T12:53:22Z</time>
      </trkpt>
      <trkpt lat="42.68585" lon="1.97476">
        <ele>2068.89</ele>
        <time>2014-03-31T12:53:27Z</time>
      </trkpt>
      <trkpt lat="42.68579" lon="1.9747">
        <ele>2071.78</ele>
        <time>2014-03-31T12:53:37Z</time>
      </trkpt>
      <trkpt lat="42.68578" lon="1.97463">
        <ele>2074.66</ele>
        <time>2014-03-31T12:53:47Z</time>
      </trkpt>
      <trkpt lat="42.68584" lon="1.97455">
        <ele>2076.59</ele>
        <time>2014-03-31T12:53:58Z</time>
      </trkpt>
      <trkpt lat="42.68587" lon="1.97453">
        <ele>2077.55</ele>
        <time>2014-03-31T12:54:03Z</time>
      </trkpt>
      <trkpt lat="42.68594" lon="1.97447">
        <ele>2078.99</ele>
        <time>2014-03-31T12:54:15Z</time>
      </trkpt>
      <trkpt lat="42.68599" lon="1.97438">
        <ele>2081.39</ele>
        <time>2014-03-31T12:54:25Z</time>
      </trkpt>
      <trkpt lat="42.68601" lon="1.97434">
        <ele>2082.83</ele>
        <time>2014-03-31T12:54:37Z</time>
      </trkpt>
      <trkpt lat="42.68603" lon="1.97426">
        <ele>2082.83</ele>
        <time>2014-03-31T12:54:48Z</time>
      </trkpt>
      <trkpt lat="42.68609" lon="1.97415">
        <ele>2082.83</ele>
        <time>2014-03-31T12:55:00Z</time>
      </trkpt>
      <trkpt lat="42.68613" lon="1.97409">
        <ele>2082.83</ele>
        <time>2014-03-31T12:55:07Z</time>
      </trkpt>
      <trkpt lat="42.68617" lon="1.97403">
        <ele>2081.87</ele>
        <time>2014-03-31T12:55:20Z</time>
      </trkpt>
      <trkpt lat="42.68624" lon="1.97394">
        <ele>2083.31</ele>
        <time>2014-03-31T12:55:33Z</time>
      </trkpt>
      <trkpt lat="42.68632" lon="1.97387">
        <ele>2084.28</ele>
        <time>2014-03-31T12:55:45Z</time>
      </trkpt>
      <trkpt lat="42.68639" lon="1.97379">
        <ele>2085.24</ele>
        <time>2014-03-31T12:55:57Z</time>
      </trkpt>
      <trkpt lat="42.68644" lon="1.97374">
        <ele>2085.72</ele>
        <time>2014-03-31T12:56:05Z</time>
      </trkpt>
      <trkpt lat="42.68648" lon="1.97371">
        <ele>2086.2</ele>
        <time>2014-03-31T12:56:11Z</time>
      </trkpt>
      <trkpt lat="42.68659" lon="1.97364">
        <ele>2087.64</ele>
        <time>2014-03-31T12:56:25Z</time>
      </trkpt>
      <trkpt lat="42.68667" lon="1.97359">
        <ele>2089.56</ele>
        <time>2014-03-31T12:56:39Z</time>
      </trkpt>
      <trkpt lat="42.68671" lon="1.97355">
        <ele>2090.52</ele>
        <time>2014-03-31T12:56:53Z</time>
      </trkpt>
      <trkpt lat="42.6868" lon="1.97351">
        <ele>2091.49</ele>
        <time>2014-03-31T12:57:05Z</time>
      </trkpt>
      <trkpt lat="42.68687" lon="1.97348">
        <ele>2092.45</ele>
        <time>2014-03-31T12:57:17Z</time>
      </trkpt>
      <trkpt lat="42.68696" lon="1.97343">
        <ele>2093.89</ele>
        <time>2014-03-31T12:57:30Z</time>
      </trkpt>
      <trkpt lat="42.68694" lon="1.97344">
        <ele>2093.89</ele>
        <time>2014-03-31T12:57:45Z</time>
      </trkpt>
      <trkpt lat="42.68696" lon="1.97345">
        <ele>2096.29</ele>
        <time>2014-03-31T12:58:10Z</time>
      </trkpt>
      <trkpt lat="42.68696" lon="1.97345">
        <ele>2097.25</ele>
        <time>2014-03-31T12:58:38Z</time>
      </trkpt>
      <trkpt lat="42.68699" lon="1.97345">
        <ele>2096.29</ele>
        <time>2014-03-31T12:58:57Z</time>
      </trkpt>
      <trkpt lat="42.68698" lon="1.97343">
        <ele>2095.81</ele>
        <time>2014-03-31T12:59:20Z</time>
      </trkpt>
      <trkpt lat="42.68696" lon="1.97344">
        <ele>2097.25</ele>
        <time>2014-03-31T12:59:48Z</time>
      </trkpt>
      <trkpt lat="42.68698" lon="1.97345">
        <ele>2094.85</ele>
        <time>2014-03-31T13:00:03Z</time>
      </trkpt>
      <trkpt lat="42.68699" lon="1.9734">
        <ele>2091.49</ele>
        <time>2014-03-31T13:00:16Z</time>
      </trkpt>
      <trkpt lat="42.68697" lon="1.97342">
        <ele>2092.45</ele>
        <time>2014-03-31T13:00:38Z</time>
      </trkpt>
      <trkpt lat="42.68694" lon="1.97336">
        <ele>2094.37</ele>
        <time>2014-03-31T13:00:48Z</time>
      </trkpt>
      <trkpt lat="42.68691" lon="1.97334">
        <ele>2097.25</ele>
        <time>2014-03-31T13:01:01Z</time>
      </trkpt>
      <trkpt lat="42.68687" lon="1.97332">
        <ele>2099.18</ele>
        <time>2014-03-31T13:01:15Z</time>
      </trkpt>
      <trkpt lat="42.68686" lon="1.9733">
        <ele>2099.66</ele>
        <time>2014-03-31T13:01:20Z</time>
      </trkpt>
      <trkpt lat="42.68682" lon="1.97324">
        <ele>2102.54</ele>
        <time>2014-03-31T13:01:32Z</time>
      </trkpt>
      <trkpt lat="42.68679" lon="1.97319">
        <ele>2104.94</ele>
        <time>2014-03-31T13:01:42Z</time>
      </trkpt>
      <trkpt lat="42.68676" lon="1.97313">
        <ele>2107.35</ele>
        <time>2014-03-31T13:01:53Z</time>
      </trkpt>
      <trkpt lat="42.68677" lon="1.97311">
        <ele>2108.31</ele>
        <time>2014-03-31T13:02:02Z</time>
      </trkpt>
      <trkpt lat="42.68683" lon="1.97306">
        <ele>2107.83</ele>
        <time>2014-03-31T13:02:18Z</time>
      </trkpt>
      <trkpt lat="42.68687" lon="1.97301">
        <ele>2110.71</ele>
        <time>2014-03-31T13:02:31Z</time>
      </trkpt>
      <trkpt lat="42.68691" lon="1.97294">
        <ele>2113.12</ele>
        <time>2014-03-31T13:02:41Z</time>
      </trkpt>
      <trkpt lat="42.68693" lon="1.97289">
        <ele>2114.56</ele>
        <time>2014-03-31T13:02:53Z</time>
      </trkpt>
      <trkpt lat="42.68694" lon="1.97291">
        <ele>2115.52</ele>
        <time>2014-03-31T13:03:09Z</time>
      </trkpt>
      <trkpt lat="42.68691" lon="1.97289">
        <ele>2116.96</ele>
        <time>2014-03-31T13:03:31Z</time>
      </trkpt>
      <trkpt lat="42.68697" lon="1.97283">
        <ele>2118.88</ele>
        <time>2014-03-31T13:03:44Z</time>
      </trkpt>
      <trkpt lat="42.68703" lon="1.97271">
        <ele>2118.4</ele>
        <time>2014-03-31T13:03:57Z</time>
      </trkpt>
      <trkpt lat="42.68711" lon="1.97258">
        <ele>2117.92</ele>
        <time>2014-03-31T13:04:13Z</time>
      </trkpt>
      <trkpt lat="42.68717" lon="1.97249">
        <ele>2120.32</ele>
        <time>2014-03-31T13:04:25Z</time>
      </trkpt>
      <trkpt lat="42.68721" lon="1.97243">
        <ele>2120.32</ele>
        <time>2014-03-31T13:04:36Z</time>
      </trkpt>
      <trkpt lat="42.68725" lon="1.97238">
        <ele>2122.73</ele>
        <time>2014-03-31T13:04:48Z</time>
      </trkpt>
      <trkpt lat="42.68727" lon="1.97235">
        <ele>2122.73</ele>
        <time>2014-03-31T13:04:58Z</time>
      </trkpt>
      <trkpt lat="42.6873" lon="1.97231">
        <ele>2123.69</ele>
        <time>2014-03-31T13:05:12Z</time>
      </trkpt>
      <trkpt lat="42.68731" lon="1.97231">
        <ele>2123.21</ele>
        <time>2014-03-31T13:05:27Z</time>
      </trkpt>
      <trkpt lat="42.68732" lon="1.97226">
        <ele>2122.73</ele>
        <time>2014-03-31T13:05:38Z</time>
      </trkpt>
      <trkpt lat="42.68735" lon="1.97225">
        <ele>2123.21</ele>
        <time>2014-03-31T13:05:55Z</time>
      </trkpt>
      <trkpt lat="42.68738" lon="1.9722">
        <ele>2122.73</ele>
        <time>2014-03-31T13:06:07Z</time>
      </trkpt>
      <trkpt lat="42.6874" lon="1.97215">
        <ele>2123.69</ele>
        <time>2014-03-31T13:06:22Z</time>
      </trkpt>
      <trkpt lat="42.68743" lon="1.97213">
        <ele>2124.17</ele>
        <time>2014-03-31T13:06:37Z</time>
      </trkpt>
      <trkpt lat="42.68746" lon="1.97209">
        <ele>2122.73</ele>
        <time>2014-03-31T13:06:49Z</time>
      </trkpt>
      <trkpt lat="42.6875" lon="1.97204">
        <ele>2123.21</ele>
        <time>2014-03-31T13:07:01Z</time>
      </trkpt>
      <trkpt lat="42.68753" lon="1.97202">
        <ele>2121.77</ele>
        <time>2014-03-31T13:07:13Z</time>
      </trkpt>
      <trkpt lat="42.68756" lon="1.97197">
        <ele>2120.81</ele>
        <time>2014-03-31T13:07:24Z</time>
      </trkpt>
      <trkpt lat="42.68759" lon="1.97195">
        <ele>2121.29</ele>
        <time>2014-03-31T13:07:35Z</time>
      </trkpt>
      <trkpt lat="42.68763" lon="1.97192">
        <ele>2121.77</ele>
        <time>2014-03-31T13:07:47Z</time>
      </trkpt>
      <trkpt lat="42.68763" lon="1.97192">
        <ele>2121.29</ele>
        <time>2014-03-31T13:07:48Z</time>
      </trkpt>
      <trkpt lat="42.68767" lon="1.97189">
        <ele>2120.32</ele>
        <time>2014-03-31T13:07:58Z</time>
      </trkpt>
      <trkpt lat="42.68771" lon="1.97185">
        <ele>2118.88</ele>
        <time>2014-03-31T13:08:11Z</time>
      </trkpt>
      <trkpt lat="42.68773" lon="1.97182">
        <ele>2117.92</ele>
        <time>2014-03-31T13:08:21Z</time>
      </trkpt>
      <trkpt lat="42.68774" lon="1.9718">
        <ele>2117.44</ele>
        <time>2014-03-31T13:08:24Z</time>
      </trkpt>
      <trkpt lat="42.68773" lon="1.97168">
        <ele>2115.52</ele>
        <time>2014-03-31T13:08:34Z</time>
      </trkpt>
      <trkpt lat="42.6877" lon="1.97158">
        <ele>2115.52</ele>
        <time>2014-03-31T13:08:44Z</time>
      </trkpt>
      <trkpt lat="42.68767" lon="1.97148">
        <ele>2117.44</ele>
        <time>2014-03-31T13:08:58Z</time>
      </trkpt>
      <trkpt lat="42.68765" lon="1.97142">
        <ele>2117.92</ele>
        <time>2014-03-31T13:09:10Z</time>
      </trkpt>
      <trkpt lat="42.68762" lon="1.97132">
        <ele>2118.88</ele>
        <time>2014-03-31T13:09:21Z</time>
      </trkpt>
      <trkpt lat="42.68762" lon="1.97131">
        <ele>2118.88</ele>
        <time>2014-03-31T13:09:25Z</time>
      </trkpt>
      <trkpt lat="42.68759" lon="1.97125">
        <ele>2119.36</ele>
        <time>2014-03-31T13:09:33Z</time>
      </trkpt>
      <trkpt lat="42.68753" lon="1.97113">
        <ele>2120.81</ele>
        <time>2014-03-31T13:09:46Z</time>
      </trkpt>
      <trkpt lat="42.68748" lon="1.97103">
        <ele>2122.73</ele>
        <time>2014-03-31T13:09:58Z</time>
      </trkpt>
      <trkpt lat="42.68747" lon="1.97102">
        <ele>2122.73</ele>
        <time>2014-03-31T13:10:00Z</time>
      </trkpt>
      <trkpt lat="42.68745" lon="1.97102">
        <ele>2123.21</ele>
        <time>2014-03-31T13:10:10Z</time>
      </trkpt>
      <trkpt lat="42.68746" lon="1.97103">
        <ele>2125.13</ele>
        <time>2014-03-31T13:10:44Z</time>
      </trkpt>
      <trkpt lat="42.68741" lon="1.97095">
        <ele>2123.69</ele>
        <time>2014-03-31T13:10:57Z</time>
      </trkpt>
      <trkpt lat="42.68741" lon="1.97095">
        <ele>2123.69</ele>
        <time>2014-03-31T13:11:07Z</time>
      </trkpt>
      <trkpt lat="42.68739" lon="1.97075">
        <ele>2122.25</ele>
        <time>2014-03-31T13:11:20Z</time>
      </trkpt>
      <trkpt lat="42.6874" lon="1.97059">
        <ele>2122.73</ele>
        <time>2014-03-31T13:11:32Z</time>
      </trkpt>
      <trkpt lat="42.6874" lon="1.97056">
        <ele>2121.77</ele>
        <time>2014-03-31T13:11:41Z</time>
      </trkpt>
      <trkpt lat="42.68738" lon="1.97056">
        <ele>2120.81</ele>
        <time>2014-03-31T13:11:52Z</time>
      </trkpt>
      <trkpt lat="42.68738" lon="1.97056">
        <ele>2120.32</ele>
        <time>2014-03-31T13:12:02Z</time>
      </trkpt>
      <trkpt lat="42.6874" lon="1.97056">
        <ele>2121.77</ele>
        <time>2014-03-31T13:12:26Z</time>
      </trkpt>
      <trkpt lat="42.68741" lon="1.97058">
        <ele>2120.81</ele>
        <time>2014-03-31T13:12:47Z</time>
      </trkpt>
      <trkpt lat="42.68741" lon="1.97055">
        <ele>2118.88</ele>
        <time>2014-03-31T13:13:15Z</time>
      </trkpt>
      <trkpt lat="42.6874" lon="1.97056">
        <ele>2117.44</ele>
        <time>2014-03-31T13:13:34Z</time>
      </trkpt>
      <trkpt lat="42.68738" lon="1.97058">
        <ele>2116</ele>
        <time>2014-03-31T13:13:57Z</time>
      </trkpt>
      <trkpt lat="42.68736" lon="1.97059">
        <ele>2115.52</ele>
        <time>2014-03-31T13:14:22Z</time>
      </trkpt>
      <trkpt lat="42.68736" lon="1.97057">
        <ele>2116</ele>
        <time>2014-03-31T13:14:47Z</time>
      </trkpt>
      <trkpt lat="42.68741" lon="1.97057">
        <ele>2117.44</ele>
        <time>2014-03-31T13:15:21Z</time>
      </trkpt>
      <trkpt lat="42.68741" lon="1.97056">
        <ele>2118.4</ele>
        <time>2014-03-31T13:15:41Z</time>
      </trkpt>
      <trkpt lat="42.68741" lon="1.97057">
        <ele>2120.32</ele>
        <time>2014-03-31T13:16:14Z</time>
      </trkpt>
      <trkpt lat="42.68741" lon="1.97055">
        <ele>2120.32</ele>
        <time>2014-03-31T13:16:43Z</time>
      </trkpt>
      <trkpt lat="42.6874" lon="1.97056">
        <ele>2118.88</ele>
        <time>2014-03-31T13:17:02Z</time>
      </trkpt>
      <trkpt lat="42.68741" lon="1.97056">
        <ele>2119.84</ele>
        <time>2014-03-31T13:17:24Z</time>
      </trkpt>
      <trkpt lat="42.68743" lon="1.97055">
        <ele>2119.84</ele>
        <time>2014-03-31T13:17:44Z</time>
      </trkpt>
      <trkpt lat="42.68741" lon="1.97054">
        <ele>2118.88</ele>
        <time>2014-03-31T13:18:02Z</time>
      </trkpt>
      <trkpt lat="42.68742" lon="1.97054">
        <ele>2117.44</ele>
        <time>2014-03-31T13:18:24Z</time>
      </trkpt>
      <trkpt lat="42.68742" lon="1.97054">
        <ele>2118.88</ele>
        <time>2014-03-31T13:18:54Z</time>
      </trkpt>
      <trkpt lat="42.68739" lon="1.97058">
        <ele>2118.88</ele>
        <time>2014-03-31T13:19:20Z</time>
      </trkpt>
      <trkpt lat="42.68737" lon="1.97056">
        <ele>2118.4</ele>
        <time>2014-03-31T13:19:51Z</time>
      </trkpt>
      <trkpt lat="42.68736" lon="1.9706">
        <ele>2112.15</ele>
        <time>2014-03-31T13:20:18Z</time>
      </trkpt>
      <trkpt lat="42.68735" lon="1.97059">
        <ele>2112.15</ele>
        <time>2014-03-31T13:20:27Z</time>
      </trkpt>
      <trkpt lat="42.68737" lon="1.97059">
        <ele>2115.04</ele>
        <time>2014-03-31T13:20:38Z</time>
      </trkpt>
      <trkpt lat="42.68739" lon="1.97058">
        <ele>2117.44</ele>
        <time>2014-03-31T13:20:58Z</time>
      </trkpt>
      <trkpt lat="42.68738" lon="1.97057">
        <ele>2120.32</ele>
        <time>2014-03-31T13:21:24Z</time>
      </trkpt>
      <trkpt lat="42.68739" lon="1.97052">
        <ele>2120.81</ele>
        <time>2014-03-31T13:21:40Z</time>
      </trkpt>
      <trkpt lat="42.6874" lon="1.97042">
        <ele>2119.36</ele>
        <time>2014-03-31T13:21:45Z</time>
      </trkpt>
      <trkpt lat="42.68733" lon="1.97026">
        <ele>2113.6</ele>
        <time>2014-03-31T13:21:52Z</time>
      </trkpt>
      <trkpt lat="42.68731" lon="1.97011">
        <ele>2108.79</ele>
        <time>2014-03-31T13:21:56Z</time>
      </trkpt>
      <trkpt lat="42.68721" lon="1.96981">
        <ele>2095.81</ele>
        <time>2014-03-31T13:22:02Z</time>
      </trkpt>
      <trkpt lat="42.68712" lon="1.96958">
        <ele>2089.08</ele>
        <time>2014-03-31T13:22:08Z</time>
      </trkpt>
      <trkpt lat="42.68712" lon="1.96957">
        <ele>2090.52</ele>
        <time>2014-03-31T13:22:19Z</time>
      </trkpt>
      <trkpt lat="42.68716" lon="1.96941">
        <ele>2090.04</ele>
        <time>2014-03-31T13:22:25Z</time>
      </trkpt>
      <trkpt lat="42.68725" lon="1.96895">
        <ele>2086.2</ele>
        <time>2014-03-31T13:22:37Z</time>
      </trkpt>
      <trkpt lat="42.68738" lon="1.96853">
        <ele>2081.87</ele>
        <time>2014-03-31T13:22:49Z</time>
      </trkpt>
      <trkpt lat="42.68758" lon="1.96804">
        <ele>2073.22</ele>
        <time>2014-03-31T13:22:59Z</time>
      </trkpt>
      <trkpt lat="42.68779" lon="1.9676">
        <ele>2066.01</ele>
        <time>2014-03-31T13:23:04Z</time>
      </trkpt>
      <trkpt lat="42.68801" lon="1.96736">
        <ele>2063.61</ele>
        <time>2014-03-31T13:23:13Z</time>
      </trkpt>
      <trkpt lat="42.68818" lon="1.9671">
        <ele>2058.32</ele>
        <time>2014-03-31T13:23:25Z</time>
      </trkpt>
      <trkpt lat="42.68823" lon="1.96703">
        <ele>2057.36</ele>
        <time>2014-03-31T13:23:27Z</time>
      </trkpt>
      <trkpt lat="42.68836" lon="1.96705">
        <ele>2049.19</ele>
        <time>2014-03-31T13:23:32Z</time>
      </trkpt>
      <trkpt lat="42.68839" lon="1.96699">
        <ele>2046.3</ele>
        <time>2014-03-31T13:23:34Z</time>
      </trkpt>
      <trkpt lat="42.68865" lon="1.96676">
        <ele>2045.34</ele>
        <time>2014-03-31T13:23:48Z</time>
      </trkpt>
      <trkpt lat="42.68867" lon="1.96677">
        <ele>2046.3</ele>
        <time>2014-03-31T13:24:02Z</time>
      </trkpt>
      <trkpt lat="42.68866" lon="1.96679">
        <ele>2048.71</ele>
        <time>2014-03-31T13:24:23Z</time>
      </trkpt>
      <trkpt lat="42.68878" lon="1.96669">
        <ele>2044.86</ele>
        <time>2014-03-31T13:24:31Z</time>
      </trkpt>
      <trkpt lat="42.68883" lon="1.96665">
        <ele>2042.94</ele>
        <time>2014-03-31T13:24:34Z</time>
      </trkpt>
      <trkpt lat="42.68888" lon="1.96668">
        <ele>2040.54</ele>
        <time>2014-03-31T13:24:37Z</time>
      </trkpt>
      <trkpt lat="42.68895" lon="1.96663">
        <ele>2035.73</ele>
        <time>2014-03-31T13:24:43Z</time>
      </trkpt>
      <trkpt lat="42.68905" lon="1.96664">
        <ele>2027.56</ele>
        <time>2014-03-31T13:24:49Z</time>
      </trkpt>
      <trkpt lat="42.68905" lon="1.96666">
        <ele>2025.64</ele>
        <time>2014-03-31T13:24:54Z</time>
      </trkpt>
      <trkpt lat="42.68912" lon="1.9666">
        <ele>2023.23</ele>
        <time>2014-03-31T13:25:02Z</time>
      </trkpt>
      <trkpt lat="42.68914" lon="1.96659">
        <ele>2021.31</ele>
        <time>2014-03-31T13:25:06Z</time>
      </trkpt>
      <trkpt lat="42.68922" lon="1.96679">
        <ele>2018.43</ele>
        <time>2014-03-31T13:25:12Z</time>
      </trkpt>
      <trkpt lat="42.6892" lon="1.96686">
        <ele>2016.98</ele>
        <time>2014-03-31T13:25:14Z</time>
      </trkpt>
      <trkpt lat="42.68925" lon="1.96686">
        <ele>2013.14</ele>
        <time>2014-03-31T13:25:18Z</time>
      </trkpt>
      <trkpt lat="42.6893" lon="1.96674">
        <ele>2010.25</ele>
        <time>2014-03-31T13:25:21Z</time>
      </trkpt>
      <trkpt lat="42.68931" lon="1.96667">
        <ele>2009.29</ele>
        <time>2014-03-31T13:25:23Z</time>
      </trkpt>
      <trkpt lat="42.68943" lon="1.96656">
        <ele>2002.56</ele>
        <time>2014-03-31T13:25:31Z</time>
      </trkpt>
      <trkpt lat="42.68961" lon="1.96643">
        <ele>2002.08</ele>
        <time>2014-03-31T13:25:34Z</time>
      </trkpt>
      <trkpt lat="42.68978" lon="1.96616">
        <ele>2001.6</ele>
        <time>2014-03-31T13:25:37Z</time>
      </trkpt>
      <trkpt lat="42.68987" lon="1.96604">
        <ele>1999.68</ele>
        <time>2014-03-31T13:25:39Z</time>
      </trkpt>
      <trkpt lat="42.68993" lon="1.96591">
        <ele>1995.83</ele>
        <time>2014-03-31T13:25:42Z</time>
      </trkpt>
      <trkpt lat="42.69012" lon="1.9654">
        <ele>1983.82</ele>
        <time>2014-03-31T13:25:55Z</time>
      </trkpt>
      <trkpt lat="42.69031" lon="1.96505">
        <ele>1977.09</ele>
        <time>2014-03-31T13:26:08Z</time>
      </trkpt>
      <trkpt lat="42.69043" lon="1.96483">
        <ele>1972.28</ele>
        <time>2014-03-31T13:26:15Z</time>
      </trkpt>
      <trkpt lat="42.69068" lon="1.96456">
        <ele>1964.59</ele>
        <time>2014-03-31T13:26:26Z</time>
      </trkpt>
      <trkpt lat="42.69074" lon="1.96454">
        <ele>1964.11</ele>
        <time>2014-03-31T13:26:29Z</time>
      </trkpt>
      <trkpt lat="42.69079" lon="1.96451">
        <ele>1964.11</ele>
        <time>2014-03-31T13:26:35Z</time>
      </trkpt>
      <trkpt lat="42.69094" lon="1.9643">
        <ele>1959.78</ele>
        <time>2014-03-31T13:26:46Z</time>
      </trkpt>
      <trkpt lat="42.69099" lon="1.96421">
        <ele>1957.86</ele>
        <time>2014-03-31T13:26:49Z</time>
      </trkpt>
      <trkpt lat="42.69104" lon="1.96413">
        <ele>1958.82</ele>
        <time>2014-03-31T13:27:00Z</time>
      </trkpt>
      <trkpt lat="42.69105" lon="1.96412">
        <ele>1954.02</ele>
        <time>2014-03-31T13:27:23Z</time>
      </trkpt>
      <trkpt lat="42.69107" lon="1.96411">
        <ele>1953.06</ele>
        <time>2014-03-31T13:27:27Z</time>
      </trkpt>
      <trkpt lat="42.69108" lon="1.96424">
        <ele>1948.25</ele>
        <time>2014-03-31T13:27:35Z</time>
      </trkpt>
      <trkpt lat="42.69107" lon="1.96427">
        <ele>1946.81</ele>
        <time>2014-03-31T13:27:45Z</time>
      </trkpt>
      <trkpt lat="42.69108" lon="1.96428">
        <ele>1946.33</ele>
        <time>2014-03-31T13:27:50Z</time>
      </trkpt>
      <trkpt lat="42.69116" lon="1.96419">
        <ele>1943.44</ele>
        <time>2014-03-31T13:27:54Z</time>
      </trkpt>
      <trkpt lat="42.69151" lon="1.96377">
        <ele>1933.83</ele>
        <time>2014-03-31T13:28:03Z</time>
      </trkpt>
      <trkpt lat="42.69157" lon="1.96375">
        <ele>1933.35</ele>
        <time>2014-03-31T13:28:04Z</time>
      </trkpt>
      <trkpt lat="42.69204" lon="1.96363">
        <ele>1924.7</ele>
        <time>2014-03-31T13:28:13Z</time>
      </trkpt>
      <trkpt lat="42.69269" lon="1.96365">
        <ele>1914.6</ele>
        <time>2014-03-31T13:28:26Z</time>
      </trkpt>
      <trkpt lat="42.69301" lon="1.96351">
        <ele>1910.28</ele>
        <time>2014-03-31T13:28:38Z</time>
      </trkpt>
      <trkpt lat="42.69326" lon="1.96328">
        <ele>1904.99</ele>
        <time>2014-03-31T13:28:48Z</time>
      </trkpt>
      <trkpt lat="42.69325" lon="1.9633">
        <ele>1906.91</ele>
        <time>2014-03-31T13:29:03Z</time>
      </trkpt>
      <trkpt lat="42.69326" lon="1.96332">
        <ele>1907.39</ele>
        <time>2014-03-31T13:29:23Z</time>
      </trkpt>
      <trkpt lat="42.69326" lon="1.96331">
        <ele>1906.91</ele>
        <time>2014-03-31T13:29:48Z</time>
      </trkpt>
      <trkpt lat="42.69327" lon="1.9633">
        <ele>1907.39</ele>
        <time>2014-03-31T13:29:59Z</time>
      </trkpt>
      <trkpt lat="42.69344" lon="1.96332">
        <ele>1900.18</ele>
        <time>2014-03-31T13:30:06Z</time>
      </trkpt>
      <trkpt lat="42.69366" lon="1.96332">
        <ele>1890.57</ele>
        <time>2014-03-31T13:30:11Z</time>
      </trkpt>
      <trkpt lat="42.69371" lon="1.9632">
        <ele>1887.21</ele>
        <time>2014-03-31T13:30:13Z</time>
      </trkpt>
      <trkpt lat="42.69376" lon="1.96304">
        <ele>1885.28</ele>
        <time>2014-03-31T13:30:16Z</time>
      </trkpt>
      <trkpt lat="42.69382" lon="1.96296">
        <ele>1883.84</ele>
        <time>2014-03-31T13:30:18Z</time>
      </trkpt>
      <trkpt lat="42.69402" lon="1.96299">
        <ele>1877.11</ele>
        <time>2014-03-31T13:30:23Z</time>
      </trkpt>
      <trkpt lat="42.69415" lon="1.96294">
        <ele>1870.38</ele>
        <time>2014-03-31T13:30:28Z</time>
      </trkpt>
      <trkpt lat="42.69437" lon="1.96292">
        <ele>1863.65</ele>
        <time>2014-03-31T13:30:33Z</time>
      </trkpt>
      <trkpt lat="42.69437" lon="1.9629">
        <ele>1864.61</ele>
        <time>2014-03-31T13:30:45Z</time>
      </trkpt>
      <trkpt lat="42.69437" lon="1.96291">
        <ele>1866.54</ele>
        <time>2014-03-31T13:31:07Z</time>
      </trkpt>
      <trkpt lat="42.69437" lon="1.96291">
        <ele>1867.98</ele>
        <time>2014-03-31T13:31:28Z</time>
      </trkpt>
      <trkpt lat="42.69452" lon="1.9628">
        <ele>1865.58</ele>
        <time>2014-03-31T13:31:43Z</time>
      </trkpt>
      <trkpt lat="42.69472" lon="1.96277">
        <ele>1862.21</ele>
        <time>2014-03-31T13:31:48Z</time>
      </trkpt>
      <trkpt lat="42.69476" lon="1.96279">
        <ele>1861.73</ele>
        <time>2014-03-31T13:32:00Z</time>
      </trkpt>
      <trkpt lat="42.69477" lon="1.96277">
        <ele>1861.25</ele>
        <time>2014-03-31T13:32:09Z</time>
      </trkpt>
      <trkpt lat="42.69483" lon="1.96273">
        <ele>1859.81</ele>
        <time>2014-03-31T13:32:12Z</time>
      </trkpt>
      <trkpt lat="42.69499" lon="1.96241">
        <ele>1848.75</ele>
        <time>2014-03-31T13:32:18Z</time>
      </trkpt>
      <trkpt lat="42.69511" lon="1.96216">
        <ele>1838.66</ele>
        <time>2014-03-31T13:32:23Z</time>
      </trkpt>
      <trkpt lat="42.69515" lon="1.96214">
        <ele>1836.74</ele>
        <time>2014-03-31T13:32:24Z</time>
      </trkpt>
      <trkpt lat="42.69539" lon="1.96216">
        <ele>1830.01</ele>
        <time>2014-03-31T13:32:28Z</time>
      </trkpt>
      <trkpt lat="42.69538" lon="1.96192">
        <ele>1821.84</ele>
        <time>2014-03-31T13:32:33Z</time>
      </trkpt>
      <trkpt lat="42.69534" lon="1.96178">
        <ele>1819.43</ele>
        <time>2014-03-31T13:32:35Z</time>
      </trkpt>
      <trkpt lat="42.69528" lon="1.96167">
        <ele>1818.95</ele>
        <time>2014-03-31T13:32:43Z</time>
      </trkpt>
      <trkpt lat="42.69529" lon="1.96166">
        <ele>1820.39</ele>
        <time>2014-03-31T13:32:49Z</time>
      </trkpt>
      <trkpt lat="42.69549" lon="1.96152">
        <ele>1812.22</ele>
        <time>2014-03-31T13:32:55Z</time>
      </trkpt>
      <trkpt lat="42.69574" lon="1.96126">
        <ele>1797.8</ele>
        <time>2014-03-31T13:33:00Z</time>
      </trkpt>
      <trkpt lat="42.69581" lon="1.96122">
        <ele>1794.92</ele>
        <time>2014-03-31T13:33:01Z</time>
      </trkpt>
      <trkpt lat="42.69621" lon="1.96085">
        <ele>1777.61</ele>
        <time>2014-03-31T13:33:07Z</time>
      </trkpt>
      <trkpt lat="42.69659" lon="1.96001">
        <ele>1760.31</ele>
        <time>2014-03-31T13:33:18Z</time>
      </trkpt>
      <trkpt lat="42.69664" lon="1.95987">
        <ele>1759.35</ele>
        <time>2014-03-31T13:33:23Z</time>
      </trkpt>
      <trkpt lat="42.69662" lon="1.95979">
        <ele>1758.87</ele>
        <time>2014-03-31T13:33:26Z</time>
      </trkpt>
      <trkpt lat="42.69657" lon="1.95979">
        <ele>1757.43</ele>
        <time>2014-03-31T13:33:38Z</time>
      </trkpt>
      <trkpt lat="42.69656" lon="1.95979">
        <ele>1755.99</ele>
        <time>2014-03-31T13:33:57Z</time>
      </trkpt>
      <trkpt lat="42.69654" lon="1.95968">
        <ele>1755.02</ele>
        <time>2014-03-31T13:34:05Z</time>
      </trkpt>
      <trkpt lat="42.6967" lon="1.95958">
        <ele>1751.66</ele>
        <time>2014-03-31T13:34:13Z</time>
      </trkpt>
      <trkpt lat="42.69674" lon="1.95936">
        <ele>1743.97</ele>
        <time>2014-03-31T13:34:19Z</time>
      </trkpt>
      <trkpt lat="42.69684" lon="1.95929">
        <ele>1738.2</ele>
        <time>2014-03-31T13:34:23Z</time>
      </trkpt>
      <trkpt lat="42.69696" lon="1.95925">
        <ele>1734.84</ele>
        <time>2014-03-31T13:34:26Z</time>
      </trkpt>
      <trkpt lat="42.69699" lon="1.95925">
        <ele>1734.36</ele>
        <time>2014-03-31T13:34:35Z</time>
      </trkpt>
      <trkpt lat="42.697" lon="1.95924">
        <ele>1734.84</ele>
        <time>2014-03-31T13:34:44Z</time>
      </trkpt>
      <trkpt lat="42.69724" lon="1.95887">
        <ele>1724.74</ele>
        <time>2014-03-31T13:34:52Z</time>
      </trkpt>
      <trkpt lat="42.69734" lon="1.95865">
        <ele>1719.46</ele>
        <time>2014-03-31T13:34:54Z</time>
      </trkpt>
      <trkpt lat="42.69755" lon="1.9584">
        <ele>1714.65</ele>
        <time>2014-03-31T13:34:58Z</time>
      </trkpt>
      <trkpt lat="42.6976" lon="1.95836">
        <ele>1712.73</ele>
        <time>2014-03-31T13:35:09Z</time>
      </trkpt>
      <trkpt lat="42.69761" lon="1.95835">
        <ele>1713.21</ele>
        <time>2014-03-31T13:35:13Z</time>
      </trkpt>
      <trkpt lat="42.69764" lon="1.95828">
        <ele>1712.73</ele>
        <time>2014-03-31T13:35:25Z</time>
      </trkpt>
      <trkpt lat="42.69767" lon="1.95825">
        <ele>1713.21</ele>
        <time>2014-03-31T13:35:39Z</time>
      </trkpt>
      <trkpt lat="42.69772" lon="1.95822">
        <ele>1712.73</ele>
        <time>2014-03-31T13:35:50Z</time>
      </trkpt>
      <trkpt lat="42.69773" lon="1.95821">
        <ele>1712.73</ele>
        <time>2014-03-31T13:35:51Z</time>
      </trkpt>
      <trkpt lat="42.69778" lon="1.95815">
        <ele>1712.25</ele>
        <time>2014-03-31T13:35:54Z</time>
      </trkpt>
      <trkpt lat="42.69805" lon="1.95791">
        <ele>1706.96</ele>
        <time>2014-03-31T13:36:01Z</time>
      </trkpt>
      <trkpt lat="42.69817" lon="1.95782">
        <ele>1704.07</ele>
        <time>2014-03-31T13:36:05Z</time>
      </trkpt>
      <trkpt lat="42.69831" lon="1.95762">
        <ele>1698.31</ele>
        <time>2014-03-31T13:36:10Z</time>
      </trkpt>
      <trkpt lat="42.69851" lon="1.95747">
        <ele>1691.58</ele>
        <time>2014-03-31T13:36:18Z</time>
      </trkpt>
      <trkpt lat="42.69854" lon="1.95747">
        <ele>1691.1</ele>
        <time>2014-03-31T13:36:19Z</time>
      </trkpt>
      <trkpt lat="42.69878" lon="1.95736">
        <ele>1688.21</ele>
        <time>2014-03-31T13:36:30Z</time>
      </trkpt>
      <trkpt lat="42.6988" lon="1.95732">
        <ele>1687.25</ele>
        <time>2014-03-31T13:36:31Z</time>
      </trkpt>
      <trkpt lat="42.69903" lon="1.9572">
        <ele>1682.93</ele>
        <time>2014-03-31T13:36:42Z</time>
      </trkpt>
      <trkpt lat="42.69915" lon="1.95715">
        <ele>1679.08</ele>
        <time>2014-03-31T13:36:55Z</time>
      </trkpt>
      <trkpt lat="42.69932" lon="1.95699">
        <ele>1673.31</ele>
        <time>2014-03-31T13:37:01Z</time>
      </trkpt>
      <trkpt lat="42.6995" lon="1.95685">
        <ele>1668.02</ele>
        <time>2014-03-31T13:37:05Z</time>
      </trkpt>
      <trkpt lat="42.69966" lon="1.95667">
        <ele>1663.7</ele>
        <time>2014-03-31T13:37:09Z</time>
      </trkpt>
      <trkpt lat="42.69996" lon="1.95639">
        <ele>1656.49</ele>
        <time>2014-03-31T13:37:16Z</time>
      </trkpt>
      <trkpt lat="42.7001" lon="1.95619">
        <ele>1652.16</ele>
        <time>2014-03-31T13:37:20Z</time>
      </trkpt>
      <trkpt lat="42.70038" lon="1.95585">
        <ele>1645.43</ele>
        <time>2014-03-31T13:37:31Z</time>
      </trkpt>
      <trkpt lat="42.70052" lon="1.95543">
        <ele>1637.74</ele>
        <time>2014-03-31T13:37:42Z</time>
      </trkpt>
      <trkpt lat="42.70054" lon="1.95539">
        <ele>1636.78</ele>
        <time>2014-03-31T13:37:43Z</time>
      </trkpt>
      <trkpt lat="42.70066" lon="1.95526">
        <ele>1633.42</ele>
        <time>2014-03-31T13:37:51Z</time>
      </trkpt>
      <trkpt lat="42.70067" lon="1.95526">
        <ele>1635.82</ele>
        <time>2014-03-31T13:38:07Z</time>
      </trkpt>
      <trkpt lat="42.70068" lon="1.95514">
        <ele>1634.38</ele>
        <time>2014-03-31T13:38:11Z</time>
      </trkpt>
      <trkpt lat="42.70076" lon="1.95483">
        <ele>1627.65</ele>
        <time>2014-03-31T13:38:17Z</time>
      </trkpt>
      <trkpt lat="42.70111" lon="1.95465">
        <ele>1618.04</ele>
        <time>2014-03-31T13:38:25Z</time>
      </trkpt>
      <trkpt lat="42.70126" lon="1.95464">
        <ele>1615.15</ele>
        <time>2014-03-31T13:38:28Z</time>
      </trkpt>
      <trkpt lat="42.70164" lon="1.95451">
        <ele>1606.98</ele>
        <time>2014-03-31T13:38:36Z</time>
      </trkpt>
      <trkpt lat="42.70184" lon="1.95443">
        <ele>1602.17</ele>
        <time>2014-03-31T13:38:40Z</time>
      </trkpt>
      <trkpt lat="42.70199" lon="1.95438">
        <ele>1597.37</ele>
        <time>2014-03-31T13:38:47Z</time>
      </trkpt>
      <trkpt lat="42.70201" lon="1.95439">
        <ele>1596.41</ele>
        <time>2014-03-31T13:39:02Z</time>
      </trkpt>
      <trkpt lat="42.70212" lon="1.9543">
        <ele>1593.04</ele>
        <time>2014-03-31T13:39:09Z</time>
      </trkpt>
      <trkpt lat="42.70214" lon="1.95434">
        <ele>1591.12</ele>
        <time>2014-03-31T13:39:19Z</time>
      </trkpt>
      <trkpt lat="42.70218" lon="1.95432">
        <ele>1592.56</ele>
        <time>2014-03-31T13:39:30Z</time>
      </trkpt>
      <trkpt lat="42.7022" lon="1.9543">
        <ele>1593.52</ele>
        <time>2014-03-31T13:39:35Z</time>
      </trkpt>
      <trkpt lat="42.70221" lon="1.95427">
        <ele>1594</ele>
        <time>2014-03-31T13:39:37Z</time>
      </trkpt>
      <trkpt lat="42.70223" lon="1.95423">
        <ele>1593.04</ele>
        <time>2014-03-31T13:39:47Z</time>
      </trkpt>
      <trkpt lat="42.70225" lon="1.95421">
        <ele>1592.08</ele>
        <time>2014-03-31T13:39:51Z</time>
      </trkpt>
      <trkpt lat="42.7024" lon="1.95417">
        <ele>1593.52</ele>
        <time>2014-03-31T13:40:00Z</time>
      </trkpt>
      <trkpt lat="42.70243" lon="1.95414">
        <ele>1594.48</ele>
        <time>2014-03-31T13:40:03Z</time>
      </trkpt>
      <trkpt lat="42.70252" lon="1.954">
        <ele>1592.56</ele>
        <time>2014-03-31T13:40:10Z</time>
      </trkpt>
      <trkpt lat="42.70258" lon="1.954">
        <ele>1591.6</ele>
        <time>2014-03-31T13:40:19Z</time>
      </trkpt>
      <trkpt lat="42.70264" lon="1.95405">
        <ele>1591.6</ele>
        <time>2014-03-31T13:40:31Z</time>
      </trkpt>
      <trkpt lat="42.70268" lon="1.95403">
        <ele>1590.16</ele>
        <time>2014-03-31T13:40:34Z</time>
      </trkpt>
      <trkpt lat="42.70274" lon="1.95396">
        <ele>1589.2</ele>
        <time>2014-03-31T13:40:37Z</time>
      </trkpt>
      <trkpt lat="42.7029" lon="1.95396">
        <ele>1587.27</ele>
        <time>2014-03-31T13:40:43Z</time>
      </trkpt>
      <trkpt lat="42.70307" lon="1.95393">
        <ele>1587.27</ele>
        <time>2014-03-31T13:40:53Z</time>
      </trkpt>
      <trkpt lat="42.70307" lon="1.95392">
        <ele>1587.27</ele>
        <time>2014-03-31T13:40:54Z</time>
      </trkpt>
      <trkpt lat="42.70318" lon="1.95385">
        <ele>1588.72</ele>
        <time>2014-03-31T13:41:01Z</time>
      </trkpt>
      <trkpt lat="42.70318" lon="1.95382">
        <ele>1589.2</ele>
        <time>2014-03-31T13:41:04Z</time>
      </trkpt>
      <trkpt lat="42.70314" lon="1.95367">
        <ele>1587.27</ele>
        <time>2014-03-31T13:41:09Z</time>
      </trkpt>
      <trkpt lat="42.7031" lon="1.9536">
        <ele>1585.35</ele>
        <time>2014-03-31T13:41:12Z</time>
      </trkpt>
      <trkpt lat="42.70328" lon="1.95338">
        <ele>1579.58</ele>
        <time>2014-03-31T13:41:20Z</time>
      </trkpt>
      <trkpt lat="42.70347" lon="1.95339">
        <ele>1571.41</ele>
        <time>2014-03-31T13:41:29Z</time>
      </trkpt>
      <trkpt lat="42.70348" lon="1.9534">
        <ele>1570.93</ele>
        <time>2014-03-31T13:41:34Z</time>
      </trkpt>
      <trkpt lat="42.70354" lon="1.95343">
        <ele>1569.97</ele>
        <time>2014-03-31T13:41:44Z</time>
      </trkpt>
      <trkpt lat="42.70362" lon="1.95346">
        <ele>1567.57</ele>
        <time>2014-03-31T13:41:52Z</time>
      </trkpt>
      <trkpt lat="42.70367" lon="1.95345">
        <ele>1569.49</ele>
        <time>2014-03-31T13:42:06Z</time>
      </trkpt>
      <trkpt lat="42.70368" lon="1.95344">
        <ele>1568.05</ele>
        <time>2014-03-31T13:42:19Z</time>
      </trkpt>
      <trkpt lat="42.7037" lon="1.95342">
        <ele>1573.33</ele>
        <time>2014-03-31T13:42:46Z</time>
      </trkpt>
      <trkpt lat="42.70371" lon="1.95331">
        <ele>1568.05</ele>
        <time>2014-03-31T13:42:52Z</time>
      </trkpt>
      <trkpt lat="42.70386" lon="1.95319">
        <ele>1568.05</ele>
        <time>2014-03-31T13:43:00Z</time>
      </trkpt>
      <trkpt lat="42.7039" lon="1.95316">
        <ele>1568.05</ele>
        <time>2014-03-31T13:43:10Z</time>
      </trkpt>
      <trkpt lat="42.70404" lon="1.95312">
        <ele>1567.57</ele>
        <time>2014-03-31T13:43:21Z</time>
      </trkpt>
      <trkpt lat="42.70405" lon="1.95315">
        <ele>1564.2</ele>
        <time>2014-03-31T13:43:30Z</time>
      </trkpt>
      <trkpt lat="42.70409" lon="1.95311">
        <ele>1564.2</ele>
        <time>2014-03-31T13:43:58Z</time>
      </trkpt>
      <trkpt lat="42.70409" lon="1.95312">
        <ele>1561.32</ele>
        <time>2014-03-31T13:44:13Z</time>
      </trkpt>
      <trkpt lat="42.70409" lon="1.95315">
        <ele>1558.92</ele>
        <time>2014-03-31T13:44:31Z</time>
      </trkpt>
      <trkpt lat="42.70405" lon="1.95315">
        <ele>1563.24</ele>
        <time>2014-03-31T13:44:53Z</time>
      </trkpt>
      <trkpt lat="42.70407" lon="1.95311">
        <ele>1560.84</ele>
        <time>2014-03-31T13:45:23Z</time>
      </trkpt>
      <trkpt lat="42.70407" lon="1.95311">
        <ele>1561.32</ele>
        <time>2014-03-31T13:45:51Z</time>
      </trkpt>
      <trkpt lat="42.70407" lon="1.95314">
        <ele>1558.43</ele>
        <time>2014-03-31T13:46:09Z</time>
      </trkpt>
      <trkpt lat="42.70422" lon="1.95315">
        <ele>1556.03</ele>
        <time>2014-03-31T13:46:21Z</time>
      </trkpt>
      <trkpt lat="42.70427" lon="1.95311">
        <ele>1552.67</ele>
        <time>2014-03-31T13:46:33Z</time>
      </trkpt>
      <trkpt lat="42.70429" lon="1.95308">
        <ele>1553.63</ele>
        <time>2014-03-31T13:46:43Z</time>
      </trkpt>
      <trkpt lat="42.70436" lon="1.95293">
        <ele>1552.19</ele>
        <time>2014-03-31T13:46:51Z</time>
      </trkpt>
      <trkpt lat="42.7044" lon="1.95285">
        <ele>1549.78</ele>
        <time>2014-03-31T13:46:55Z</time>
      </trkpt>
      <trkpt lat="42.7045" lon="1.95276">
        <ele>1549.3</ele>
        <time>2014-03-31T13:47:02Z</time>
      </trkpt>
      <trkpt lat="42.70456" lon="1.95274">
        <ele>1548.82</ele>
        <time>2014-03-31T13:47:14Z</time>
      </trkpt>
      <trkpt lat="42.70455" lon="1.95265">
        <ele>1552.67</ele>
        <time>2014-03-31T13:47:38Z</time>
      </trkpt>
      <trkpt lat="42.70457" lon="1.95268">
        <ele>1553.63</ele>
        <time>2014-03-31T13:47:43Z</time>
      </trkpt>
      <trkpt lat="42.70466" lon="1.95261">
        <ele>1553.15</ele>
        <time>2014-03-31T13:47:50Z</time>
      </trkpt>
      <trkpt lat="42.70472" lon="1.95255">
        <ele>1551.71</ele>
        <time>2014-03-31T13:47:54Z</time>
      </trkpt>
      <trkpt lat="42.70477" lon="1.95246">
        <ele>1549.78</ele>
        <time>2014-03-31T13:47:57Z</time>
      </trkpt>
      <trkpt lat="42.70491" lon="1.95237">
        <ele>1546.42</ele>
        <time>2014-03-31T13:48:06Z</time>
      </trkpt>
      <trkpt lat="42.70496" lon="1.95235">
        <ele>1544.98</ele>
        <time>2014-03-31T13:48:11Z</time>
      </trkpt>
      <trkpt lat="42.70504" lon="1.95226">
        <ele>1546.42</ele>
        <time>2014-03-31T13:48:15Z</time>
      </trkpt>
      <trkpt lat="42.70529" lon="1.95215">
        <ele>1543.05</ele>
        <time>2014-03-31T13:48:22Z</time>
      </trkpt>
      <trkpt lat="42.70534" lon="1.95211">
        <ele>1541.61</ele>
        <time>2014-03-31T13:48:24Z</time>
      </trkpt>
      <trkpt lat="42.70547" lon="1.95203">
        <ele>1538.73</ele>
        <time>2014-03-31T13:48:31Z</time>
      </trkpt>
      <trkpt lat="42.70549" lon="1.95189">
        <ele>1537.29</ele>
        <time>2014-03-31T13:48:35Z</time>
      </trkpt>
      <trkpt lat="42.70556" lon="1.95179">
        <ele>1534.88</ele>
        <time>2014-03-31T13:48:43Z</time>
      </trkpt>
      <trkpt lat="42.70557" lon="1.95179">
        <ele>1533.92</ele>
        <time>2014-03-31T13:48:46Z</time>
      </trkpt>
      <trkpt lat="42.7057" lon="1.95158">
        <ele>1530.56</ele>
        <time>2014-03-31T13:48:54Z</time>
      </trkpt>
      <trkpt lat="42.70571" lon="1.95155">
        <ele>1530.08</ele>
        <time>2014-03-31T13:48:55Z</time>
      </trkpt>
      <trkpt lat="42.70589" lon="1.95119">
        <ele>1526.71</ele>
        <time>2014-03-31T13:49:04Z</time>
      </trkpt>
      <trkpt lat="42.70605" lon="1.95095">
        <ele>1526.71</ele>
        <time>2014-03-31T13:49:12Z</time>
      </trkpt>
      <trkpt lat="42.70598" lon="1.95062">
        <ele>1525.75</ele>
        <time>2014-03-31T13:49:17Z</time>
      </trkpt>
      <trkpt lat="42.70594" lon="1.95039">
        <ele>1523.83</ele>
        <time>2014-03-31T13:49:21Z</time>
      </trkpt>
      <trkpt lat="42.70595" lon="1.95029">
        <ele>1522.39</ele>
        <time>2014-03-31T13:49:23Z</time>
      </trkpt>
      <trkpt lat="42.70598" lon="1.9499">
        <ele>1519.02</ele>
        <time>2014-03-31T13:49:31Z</time>
      </trkpt>
      <trkpt lat="42.70601" lon="1.94989">
        <ele>1514.21</ele>
        <time>2014-03-31T13:49:44Z</time>
      </trkpt>
      <trkpt lat="42.70605" lon="1.94994">
        <ele>1512.77</ele>
        <time>2014-03-31T13:50:10Z</time>
      </trkpt>
      <trkpt lat="42.70608" lon="1.94996">
        <ele>1515.18</ele>
        <time>2014-03-31T13:50:19Z</time>
      </trkpt>
      <trkpt lat="42.70606" lon="1.94991">
        <ele>1508.93</ele>
        <time>2014-03-31T13:50:31Z</time>
      </trkpt>
      <trkpt lat="42.70607" lon="1.9499">
        <ele>1503.64</ele>
        <time>2014-03-31T13:50:43Z</time>
      </trkpt>
      <trkpt lat="42.70607" lon="1.9498">
        <ele>1500.27</ele>
        <time>2014-03-31T13:50:49Z</time>
      </trkpt>
      <trkpt lat="42.7061" lon="1.94972">
        <ele>1500.76</ele>
        <time>2014-03-31T13:50:53Z</time>
      </trkpt>
      <trkpt lat="42.70612" lon="1.94967">
        <ele>1500.76</ele>
        <time>2014-03-31T13:50:56Z</time>
      </trkpt>
      <trkpt lat="42.70612" lon="1.94946">
        <ele>1502.68</ele>
        <time>2014-03-31T13:51:05Z</time>
      </trkpt>
      <trkpt lat="42.70619" lon="1.94933">
        <ele>1499.31</ele>
        <time>2014-03-31T13:51:15Z</time>
      </trkpt>
      <trkpt lat="42.70633" lon="1.94913">
        <ele>1493.06</ele>
        <time>2014-03-31T13:51:24Z</time>
      </trkpt>
      <trkpt lat="42.70643" lon="1.94905">
        <ele>1488.74</ele>
        <time>2014-03-31T13:51:33Z</time>
      </trkpt>
      <trkpt lat="42.70649" lon="1.94906">
        <ele>1489.7</ele>
        <time>2014-03-31T13:51:46Z</time>
      </trkpt>
      <trkpt lat="42.70655" lon="1.94905">
        <ele>1489.7</ele>
        <time>2014-03-31T13:51:56Z</time>
      </trkpt>
      <trkpt lat="42.70664" lon="1.94906">
        <ele>1486.82</ele>
        <time>2014-03-31T13:52:07Z</time>
      </trkpt>
      <trkpt lat="42.70669" lon="1.94903">
        <ele>1488.26</ele>
        <time>2014-03-31T13:52:11Z</time>
      </trkpt>
      <trkpt lat="42.70676" lon="1.94902">
        <ele>1490.18</ele>
        <time>2014-03-31T13:52:20Z</time>
      </trkpt>
      <trkpt lat="42.70681" lon="1.94903">
        <ele>1487.3</ele>
        <time>2014-03-31T13:52:34Z</time>
      </trkpt>
      <trkpt lat="42.70683" lon="1.94904">
        <ele>1484.89</ele>
        <time>2014-03-31T13:52:48Z</time>
      </trkpt>
      <trkpt lat="42.70687" lon="1.94901">
        <ele>1486.82</ele>
        <time>2014-03-31T13:52:59Z</time>
      </trkpt>
      <trkpt lat="42.70693" lon="1.94898">
        <ele>1489.22</ele>
        <time>2014-03-31T13:53:11Z</time>
      </trkpt>
      <trkpt lat="42.70694" lon="1.94897">
        <ele>1489.7</ele>
        <time>2014-03-31T13:53:16Z</time>
      </trkpt>
      <trkpt lat="42.70699" lon="1.94889">
        <ele>1490.66</ele>
        <time>2014-03-31T13:53:27Z</time>
      </trkpt>
      <trkpt lat="42.70704" lon="1.94884">
        <ele>1488.26</ele>
        <time>2014-03-31T13:53:40Z</time>
      </trkpt>
      <trkpt lat="42.70709" lon="1.94886">
        <ele>1483.93</ele>
        <time>2014-03-31T13:53:53Z</time>
      </trkpt>
      <trkpt lat="42.70711" lon="1.94886">
        <ele>1481.05</ele>
        <time>2014-03-31T13:54:08Z</time>
      </trkpt>
      <trkpt lat="42.70712" lon="1.94887">
        <ele>1480.09</ele>
        <time>2014-03-31T13:54:21Z</time>
      </trkpt>
      <trkpt lat="42.7071" lon="1.94887">
        <ele>1482.01</ele>
        <time>2014-03-31T13:54:36Z</time>
      </trkpt>
      <trkpt lat="42.70709" lon="1.94889">
        <ele>1481.05</ele>
        <time>2014-03-31T13:54:52Z</time>
      </trkpt>
      <trkpt lat="42.70712" lon="1.94883">
        <ele>1483.45</ele>
        <time>2014-03-31T13:55:06Z</time>
      </trkpt>
      <trkpt lat="42.70714" lon="1.94881">
        <ele>1482.49</ele>
        <time>2014-03-31T13:55:15Z</time>
      </trkpt>
      <trkpt lat="42.70715" lon="1.94877">
        <ele>1482.01</ele>
        <time>2014-03-31T13:55:19Z</time>
      </trkpt>
      <trkpt lat="42.70715" lon="1.94859">
        <ele>1476.72</ele>
        <time>2014-03-31T13:55:28Z</time>
      </trkpt>
      <trkpt lat="42.70716" lon="1.94856">
        <ele>1475.28</ele>
        <time>2014-03-31T13:55:38Z</time>
      </trkpt>
      <trkpt lat="42.70717" lon="1.94854">
        <ele>1474.32</ele>
        <time>2014-03-31T13:55:42Z</time>
      </trkpt>
      <trkpt lat="42.70721" lon="1.94848">
        <ele>1475.28</ele>
        <time>2014-03-31T13:55:52Z</time>
      </trkpt>
      <trkpt lat="42.7072" lon="1.94849">
        <ele>1472.88</ele>
        <time>2014-03-31T13:56:07Z</time>
      </trkpt>
      <trkpt lat="42.70725" lon="1.94843">
        <ele>1471.44</ele>
        <time>2014-03-31T13:56:26Z</time>
      </trkpt>
      <trkpt lat="42.70728" lon="1.94839">
        <ele>1474.32</ele>
        <time>2014-03-31T13:56:33Z</time>
      </trkpt>
      <trkpt lat="42.7073" lon="1.94838">
        <ele>1474.8</ele>
        <time>2014-03-31T13:56:35Z</time>
      </trkpt>
      <trkpt lat="42.70742" lon="1.94837">
        <ele>1473.84</ele>
        <time>2014-03-31T13:56:44Z</time>
      </trkpt>
      <trkpt lat="42.70759" lon="1.94816">
        <ele>1469.51</ele>
        <time>2014-03-31T13:56:55Z</time>
      </trkpt>
      <trkpt lat="42.70771" lon="1.94804">
        <ele>1464.71</ele>
        <time>2014-03-31T13:57:06Z</time>
      </trkpt>
      <trkpt lat="42.70773" lon="1.94802">
        <ele>1464.71</ele>
        <time>2014-03-31T13:57:09Z</time>
      </trkpt>
      <trkpt lat="42.70779" lon="1.948">
        <ele>1465.67</ele>
        <time>2014-03-31T13:57:16Z</time>
      </trkpt>
      <trkpt lat="42.70781" lon="1.94799">
        <ele>1466.15</ele>
        <time>2014-03-31T13:57:25Z</time>
      </trkpt>
      <trkpt lat="42.70782" lon="1.94796">
        <ele>1467.11</ele>
        <time>2014-03-31T13:57:34Z</time>
      </trkpt>
      <trkpt lat="42.70791" lon="1.9479">
        <ele>1466.15</ele>
        <time>2014-03-31T13:57:45Z</time>
      </trkpt>
      <trkpt lat="42.70812" lon="1.94768">
        <ele>1462.78</ele>
        <time>2014-03-31T13:57:54Z</time>
      </trkpt>
      <trkpt lat="42.70837" lon="1.94742">
        <ele>1459.9</ele>
        <time>2014-03-31T13:58:07Z</time>
      </trkpt>
      <trkpt lat="42.70861" lon="1.94728">
        <ele>1457.02</ele>
        <time>2014-03-31T13:58:19Z</time>
      </trkpt>
      <trkpt lat="42.70882" lon="1.94714">
        <ele>1453.65</ele>
        <time>2014-03-31T13:58:30Z</time>
      </trkpt>
      <trkpt lat="42.70886" lon="1.94703">
        <ele>1451.25</ele>
        <time>2014-03-31T13:58:35Z</time>
      </trkpt>
      <trkpt lat="42.70883" lon="1.94696">
        <ele>1450.77</ele>
        <time>2014-03-31T13:58:39Z</time>
      </trkpt>
      <trkpt lat="42.70895" lon="1.94682">
        <ele>1449.81</ele>
        <time>2014-03-31T13:58:52Z</time>
      </trkpt>
      <trkpt lat="42.70895" lon="1.94682">
        <ele>1448.36</ele>
        <time>2014-03-31T13:59:09Z</time>
      </trkpt>
      <trkpt lat="42.70895" lon="1.94683">
        <ele>1448.84</ele>
        <time>2014-03-31T13:59:24Z</time>
      </trkpt>
      <trkpt lat="42.70892" lon="1.94682">
        <ele>1450.77</ele>
        <time>2014-03-31T13:59:45Z</time>
      </trkpt>
      <trkpt lat="42.70893" lon="1.94681">
        <ele>1450.29</ele>
        <time>2014-03-31T13:59:46Z</time>
      </trkpt>
      <trkpt lat="42.70897" lon="1.94678">
        <ele>1449.32</ele>
        <time>2014-03-31T13:59:50Z</time>
      </trkpt>
      <trkpt lat="42.70904" lon="1.94672">
        <ele>1445</ele>
        <time>2014-03-31T14:00:00Z</time>
      </trkpt>
      <trkpt lat="42.70905" lon="1.9467">
        <ele>1443.56</ele>
        <time>2014-03-31T14:00:02Z</time>
      </trkpt>
      <trkpt lat="42.70903" lon="1.94657">
        <ele>1442.6</ele>
        <time>2014-03-31T14:00:11Z</time>
      </trkpt>
      <trkpt lat="42.70903" lon="1.94655">
        <ele>1443.56</ele>
        <time>2014-03-31T14:00:13Z</time>
      </trkpt>
      <trkpt lat="42.7091" lon="1.94646">
        <ele>1445.48</ele>
        <time>2014-03-31T14:00:17Z</time>
      </trkpt>
      <trkpt lat="42.70917" lon="1.94638">
        <ele>1446.92</ele>
        <time>2014-03-31T14:00:22Z</time>
      </trkpt>
      <trkpt lat="42.7092" lon="1.94619">
        <ele>1446.44</ele>
        <time>2014-03-31T14:00:31Z</time>
      </trkpt>
      <trkpt lat="42.7092" lon="1.94618">
        <ele>1445.96</ele>
        <time>2014-03-31T14:00:32Z</time>
      </trkpt>
      <trkpt lat="42.70921" lon="1.94612">
        <ele>1440.67</ele>
        <time>2014-03-31T14:00:42Z</time>
      </trkpt>
      <trkpt lat="42.7092" lon="1.94611">
        <ele>1438.27</ele>
        <time>2014-03-31T14:00:57Z</time>
      </trkpt>
      <trkpt lat="42.70917" lon="1.94611">
        <ele>1435.87</ele>
        <time>2014-03-31T14:01:08Z</time>
      </trkpt>
      <trkpt lat="42.70916" lon="1.94613">
        <ele>1432.98</ele>
        <time>2014-03-31T14:01:24Z</time>
      </trkpt>
      <trkpt lat="42.70915" lon="1.9462">
        <ele>1430.58</ele>
        <time>2014-03-31T14:01:36Z</time>
      </trkpt>
      <trkpt lat="42.70916" lon="1.94623">
        <ele>1431.54</ele>
        <time>2014-03-31T14:01:54Z</time>
      </trkpt>
      <trkpt lat="42.7092" lon="1.94626">
        <ele>1431.54</ele>
        <time>2014-03-31T14:02:10Z</time>
      </trkpt>
      <trkpt lat="42.70918" lon="1.94625">
        <ele>1434.91</ele>
        <time>2014-03-31T14:02:20Z</time>
      </trkpt>
      <trkpt lat="42.70921" lon="1.94625">
        <ele>1438.75</ele>
        <time>2014-03-31T14:02:34Z</time>
      </trkpt>
      <trkpt lat="42.70925" lon="1.94622">
        <ele>1436.35</ele>
        <time>2014-03-31T14:02:51Z</time>
      </trkpt>
      <trkpt lat="42.70923" lon="1.94625">
        <ele>1434.91</ele>
        <time>2014-03-31T14:03:04Z</time>
      </trkpt>
      <trkpt lat="42.70926" lon="1.94623">
        <ele>1437.79</ele>
        <time>2014-03-31T14:03:25Z</time>
      </trkpt>
      <trkpt lat="42.70922" lon="1.94623">
        <ele>1435.39</ele>
        <time>2014-03-31T14:03:43Z</time>
      </trkpt>
      <trkpt lat="42.70924" lon="1.94629">
        <ele>1433.46</ele>
        <time>2014-03-31T14:03:53Z</time>
      </trkpt>
      <trkpt lat="42.70926" lon="1.94631">
        <ele>1433.94</ele>
        <time>2014-03-31T14:04:09Z</time>
      </trkpt>
      <trkpt lat="42.70927" lon="1.9463">
        <ele>1432.5</ele>
        <time>2014-03-31T14:04:22Z</time>
      </trkpt>
      <trkpt lat="42.70924" lon="1.94628">
        <ele>1433.46</ele>
        <time>2014-03-31T14:04:39Z</time>
      </trkpt>
      <trkpt lat="42.70924" lon="1.94626">
        <ele>1434.91</ele>
        <time>2014-03-31T14:05:01Z</time>
      </trkpt>
      <trkpt lat="42.70929" lon="1.94625">
        <ele>1434.91</ele>
        <time>2014-03-31T14:05:12Z</time>
      </trkpt>
      <trkpt lat="42.70933" lon="1.94618">
        <ele>1433.94</ele>
        <time>2014-03-31T14:05:15Z</time>
      </trkpt>
      <trkpt lat="42.70936" lon="1.94609">
        <ele>1433.94</ele>
        <time>2014-03-31T14:05:19Z</time>
      </trkpt>
      <trkpt lat="42.70953" lon="1.94596">
        <ele>1432.5</ele>
        <time>2014-03-31T14:05:27Z</time>
      </trkpt>
      <trkpt lat="42.70959" lon="1.94594">
        <ele>1430.58</ele>
        <time>2014-03-31T14:05:30Z</time>
      </trkpt>
      <trkpt lat="42.70963" lon="1.94589">
        <ele>1429.62</ele>
        <time>2014-03-31T14:05:33Z</time>
      </trkpt>
      <trkpt lat="42.70974" lon="1.94585">
        <ele>1424.33</ele>
        <time>2014-03-31T14:05:43Z</time>
      </trkpt>
      <trkpt lat="42.70975" lon="1.94585">
        <ele>1421.93</ele>
        <time>2014-03-31T14:05:55Z</time>
      </trkpt>
      <trkpt lat="42.70982" lon="1.94582">
        <ele>1420.97</ele>
        <time>2014-03-31T14:05:59Z</time>
      </trkpt>
      <trkpt lat="42.71" lon="1.94577">
        <ele>1415.68</ele>
        <time>2014-03-31T14:06:05Z</time>
      </trkpt>
      <trkpt lat="42.71004" lon="1.94574">
        <ele>1414.72</ele>
        <time>2014-03-31T14:06:08Z</time>
      </trkpt>
      <trkpt lat="42.7101" lon="1.94571">
        <ele>1414.72</ele>
        <time>2014-03-31T14:06:13Z</time>
      </trkpt>
      <trkpt lat="42.71019" lon="1.94569">
        <ele>1415.2</ele>
        <time>2014-03-31T14:06:24Z</time>
      </trkpt>
      <trkpt lat="42.71019" lon="1.94569">
        <ele>1415.2</ele>
        <time>2014-03-31T14:06:25Z</time>
      </trkpt>
      <trkpt lat="42.7102" lon="1.94562">
        <ele>1412.79</ele>
        <time>2014-03-31T14:06:34Z</time>
      </trkpt>
      <trkpt lat="42.7102" lon="1.94567">
        <ele>1410.39</ele>
        <time>2014-03-31T14:06:44Z</time>
      </trkpt>
      <trkpt lat="42.71021" lon="1.94567">
        <ele>1407.99</ele>
        <time>2014-03-31T14:06:51Z</time>
      </trkpt>
      <trkpt lat="42.71022" lon="1.94564">
        <ele>1408.95</ele>
        <time>2014-03-31T14:07:00Z</time>
      </trkpt>
      <trkpt lat="42.71022" lon="1.94561">
        <ele>1408.95</ele>
        <time>2014-03-31T14:07:02Z</time>
      </trkpt>
      <trkpt lat="42.71027" lon="1.9456">
        <ele>1410.87</ele>
        <time>2014-03-31T14:07:13Z</time>
      </trkpt>
      <trkpt lat="42.71027" lon="1.94561">
        <ele>1410.39</ele>
        <time>2014-03-31T14:07:23Z</time>
      </trkpt>
      <trkpt lat="42.71032" lon="1.94561">
        <ele>1413.28</ele>
        <time>2014-03-31T14:07:35Z</time>
      </trkpt>
      <trkpt lat="42.7104" lon="1.94557">
        <ele>1414.24</ele>
        <time>2014-03-31T14:07:43Z</time>
      </trkpt>
      <trkpt lat="42.71044" lon="1.94556">
        <ele>1409.43</ele>
        <time>2014-03-31T14:07:56Z</time>
      </trkpt>
      <trkpt lat="42.71042" lon="1.94556">
        <ele>1407.99</ele>
        <time>2014-03-31T14:08:08Z</time>
      </trkpt>
      <trkpt lat="42.71044" lon="1.94557">
        <ele>1407.51</ele>
        <time>2014-03-31T14:08:23Z</time>
      </trkpt>
      <trkpt lat="42.71044" lon="1.94555">
        <ele>1408.95</ele>
        <time>2014-03-31T14:08:38Z</time>
      </trkpt>
      <trkpt lat="42.71049" lon="1.94552">
        <ele>1408.95</ele>
        <time>2014-03-31T14:08:49Z</time>
      </trkpt>
      <trkpt lat="42.71053" lon="1.94554">
        <ele>1411.35</ele>
        <time>2014-03-31T14:09:01Z</time>
      </trkpt>
      <trkpt lat="42.71056" lon="1.94551">
        <ele>1417.12</ele>
        <time>2014-03-31T14:09:13Z</time>
      </trkpt>
      <trkpt lat="42.71061" lon="1.94547">
        <ele>1417.12</ele>
        <time>2014-03-31T14:09:26Z</time>
      </trkpt>
      <trkpt lat="42.71064" lon="1.94549">
        <ele>1416.16</ele>
        <time>2014-03-31T14:09:41Z</time>
      </trkpt>
      <trkpt lat="42.71063" lon="1.94551">
        <ele>1415.2</ele>
        <time>2014-03-31T14:09:54Z</time>
      </trkpt>
      <trkpt lat="42.71065" lon="1.9455">
        <ele>1413.76</ele>
        <time>2014-03-31T14:10:07Z</time>
      </trkpt>
      <trkpt lat="42.71064" lon="1.9455">
        <ele>1413.76</ele>
        <time>2014-03-31T14:10:26Z</time>
      </trkpt>
      <trkpt lat="42.71062" lon="1.9455">
        <ele>1409.43</ele>
        <time>2014-03-31T14:10:55Z</time>
      </trkpt>
      <trkpt lat="42.71063" lon="1.94549">
        <ele>1409.91</ele>
        <time>2014-03-31T14:11:01Z</time>
      </trkpt>
      <trkpt lat="42.71069" lon="1.94541">
        <ele>1410.39</ele>
        <time>2014-03-31T14:11:10Z</time>
      </trkpt>
      <trkpt lat="42.7107" lon="1.94539">
        <ele>1410.39</ele>
        <time>2014-03-31T14:11:11Z</time>
      </trkpt>
      <trkpt lat="42.71072" lon="1.94536">
        <ele>1410.39</ele>
        <time>2014-03-31T14:11:14Z</time>
      </trkpt>
      <trkpt lat="42.71083" lon="1.94528">
        <ele>1411.35</ele>
        <time>2014-03-31T14:11:26Z</time>
      </trkpt>
      <trkpt lat="42.71097" lon="1.94525">
        <ele>1410.87</ele>
        <time>2014-03-31T14:11:34Z</time>
      </trkpt>
      <trkpt lat="42.71103" lon="1.94511">
        <ele>1410.39</ele>
        <time>2014-03-31T14:11:41Z</time>
      </trkpt>
      <trkpt lat="42.71108" lon="1.94505">
        <ele>1410.39</ele>
        <time>2014-03-31T14:11:43Z</time>
      </trkpt>
      <trkpt lat="42.71113" lon="1.94502">
        <ele>1410.39</ele>
        <time>2014-03-31T14:11:44Z</time>
      </trkpt>
      <trkpt lat="42.71117" lon="1.94499">
        <ele>1409.91</ele>
        <time>2014-03-31T14:11:45Z</time>
      </trkpt>
      <trkpt lat="42.71121" lon="1.94497">
        <ele>1409.91</ele>
        <time>2014-03-31T14:11:46Z</time>
      </trkpt>
      <trkpt lat="42.71123" lon="1.94494">
        <ele>1409.91</ele>
        <time>2014-03-31T14:11:47Z</time>
      </trkpt>
      <trkpt lat="42.71126" lon="1.94491">
        <ele>1409.91</ele>
        <time>2014-03-31T14:11:48Z</time>
      </trkpt>
      <trkpt lat="42.71137" lon="1.94478">
        <ele>1408.95</ele>
        <time>2014-03-31T14:11:52Z</time>
      </trkpt>
      <trkpt lat="42.71137" lon="1.94472">
        <ele>1408.95</ele>
        <time>2014-03-31T14:11:53Z</time>
      </trkpt>
      <trkpt lat="42.71137" lon="1.94466">
        <ele>1408.47</ele>
        <time>2014-03-31T14:11:54Z</time>
      </trkpt>
      <trkpt lat="42.71138" lon="1.94459">
        <ele>1407.99</ele>
        <time>2014-03-31T14:11:55Z</time>
      </trkpt>
      <trkpt lat="42.71139" lon="1.94452">
        <ele>1407.99</ele>
        <time>2014-03-31T14:11:56Z</time>
      </trkpt>
      <trkpt lat="42.7114" lon="1.94445">
        <ele>1407.51</ele>
        <time>2014-03-31T14:11:57Z</time>
      </trkpt>
      <trkpt lat="42.71142" lon="1.9444">
        <ele>1407.51</ele>
        <time>2014-03-31T14:11:58Z</time>
      </trkpt>
      <trkpt lat="42.71145" lon="1.94432">
        <ele>1407.03</ele>
        <time>2014-03-31T14:12:01Z</time>
      </trkpt>
      <trkpt lat="42.71146" lon="1.94431">
        <ele>1407.03</ele>
        <time>2014-03-31T14:12:02Z</time>
      </trkpt>
      <trkpt lat="42.71148" lon="1.94425">
        <ele>1405.58</ele>
        <time>2014-03-31T14:12:09Z</time>
      </trkpt>
      <trkpt lat="42.71149" lon="1.94424">
        <ele>1405.1</ele>
        <time>2014-03-31T14:12:10Z</time>
      </trkpt>
      <trkpt lat="42.71152" lon="1.94418">
        <ele>1401.74</ele>
        <time>2014-03-31T14:12:20Z</time>
      </trkpt>
      <trkpt lat="42.71154" lon="1.94417">
        <ele>1400.3</ele>
        <time>2014-03-31T14:12:27Z</time>
      </trkpt>
      <trkpt lat="42.71155" lon="1.94416">
        <ele>1400.3</ele>
        <time>2014-03-31T14:12:31Z</time>
      </trkpt>
      <trkpt lat="42.71155" lon="1.94414">
        <ele>1399.82</ele>
        <time>2014-03-31T14:12:38Z</time>
      </trkpt>
      <trkpt lat="42.71157" lon="1.94415">
        <ele>1400.3</ele>
        <time>2014-03-31T14:12:42Z</time>
      </trkpt>
      <trkpt lat="42.71158" lon="1.94415">
        <ele>1399.82</ele>
        <time>2014-03-31T14:12:43Z</time>
      </trkpt>
      <trkpt lat="42.71159" lon="1.94415">
        <ele>1399.34</ele>
        <time>2014-03-31T14:12:44Z</time>
      </trkpt>
      <trkpt lat="42.7116" lon="1.94415">
        <ele>1399.34</ele>
        <time>2014-03-31T14:12:45Z</time>
      </trkpt>
      <trkpt lat="42.71162" lon="1.94416">
        <ele>1399.34</ele>
        <time>2014-03-31T14:12:46Z</time>
      </trkpt>
      <trkpt lat="42.71164" lon="1.94415">
        <ele>1398.86</ele>
        <time>2014-03-31T14:12:47Z</time>
      </trkpt>
      <trkpt lat="42.71165" lon="1.94414">
        <ele>1398.86</ele>
        <time>2014-03-31T14:12:48Z</time>
      </trkpt>
      <trkpt lat="42.71166" lon="1.94413">
        <ele>1398.86</ele>
        <time>2014-03-31T14:12:49Z</time>
      </trkpt>
      <trkpt lat="42.71176" lon="1.94401">
        <ele>1398.37</ele>
        <time>2014-03-31T14:12:57Z</time>
      </trkpt>
      <trkpt lat="42.71177" lon="1.94399">
        <ele>1397.89</ele>
        <time>2014-03-31T14:12:59Z</time>
      </trkpt>
      <trkpt lat="42.7118" lon="1.94398">
        <ele>1394.53</ele>
        <time>2014-03-31T14:13:06Z</time>
      </trkpt>
      <trkpt lat="42.71181" lon="1.94398">
        <ele>1394.05</ele>
        <time>2014-03-31T14:13:16Z</time>
      </trkpt>
      <trkpt lat="42.71181" lon="1.94397">
        <ele>1393.57</ele>
        <time>2014-03-31T14:13:17Z</time>
      </trkpt>
      <trkpt lat="42.71182" lon="1.94397">
        <ele>1393.57</ele>
        <time>2014-03-31T14:13:21Z</time>
      </trkpt>
      <trkpt lat="42.71182" lon="1.94393">
        <ele>1393.57</ele>
        <time>2014-03-31T14:13:29Z</time>
      </trkpt>
      <trkpt lat="42.71183" lon="1.94392">
        <ele>1393.57</ele>
        <time>2014-03-31T14:13:31Z</time>
      </trkpt>
      <trkpt lat="42.71189" lon="1.94384">
        <ele>1393.09</ele>
        <time>2014-03-31T14:13:41Z</time>
      </trkpt>
      <trkpt lat="42.71202" lon="1.94362">
        <ele>1393.09</ele>
        <time>2014-03-31T14:13:53Z</time>
      </trkpt>
      <trkpt lat="42.71204" lon="1.9436">
        <ele>1391.17</ele>
        <time>2014-03-31T14:14:04Z</time>
      </trkpt>
      <trkpt lat="42.71202" lon="1.94365">
        <ele>1391.17</ele>
        <time>2014-03-31T14:14:26Z</time>
      </trkpt>
      <trkpt lat="42.71207" lon="1.94361">
        <ele>1391.65</ele>
        <time>2014-03-31T14:14:38Z</time>
      </trkpt>
      <trkpt lat="42.7121" lon="1.94358">
        <ele>1390.2</ele>
        <time>2014-03-31T14:14:47Z</time>
      </trkpt>
      <trkpt lat="42.71211" lon="1.94357">
        <ele>1390.2</ele>
        <time>2014-03-31T14:14:51Z</time>
      </trkpt>
      <trkpt lat="42.71214" lon="1.94354">
        <ele>1389.24</ele>
        <time>2014-03-31T14:14:59Z</time>
      </trkpt>
      <trkpt lat="42.71215" lon="1.94353">
        <ele>1387.8</ele>
        <time>2014-03-31T14:15:07Z</time>
      </trkpt>
      <trkpt lat="42.71215" lon="1.94355">
        <ele>1387.8</ele>
        <time>2014-03-31T14:15:13Z</time>
      </trkpt>
      <trkpt lat="42.71214" lon="1.94354">
        <ele>1387.8</ele>
        <time>2014-03-31T14:15:21Z</time>
      </trkpt>
      <trkpt lat="42.71215" lon="1.9435">
        <ele>1387.32</ele>
        <time>2014-03-31T14:15:31Z</time>
      </trkpt>
      <trkpt lat="42.71216" lon="1.94348">
        <ele>1387.32</ele>
        <time>2014-03-31T14:15:32Z</time>
      </trkpt>
      <trkpt lat="42.71216" lon="1.94347">
        <ele>1387.32</ele>
        <time>2014-03-31T14:15:33Z</time>
      </trkpt>
      <trkpt lat="42.71217" lon="1.94345">
        <ele>1387.32</ele>
        <time>2014-03-31T14:15:34Z</time>
      </trkpt>
      <trkpt lat="42.71217" lon="1.94344">
        <ele>1387.32</ele>
        <time>2014-03-31T14:15:35Z</time>
      </trkpt>
      <trkpt lat="42.71218" lon="1.94342">
        <ele>1386.84</ele>
        <time>2014-03-31T14:15:36Z</time>
      </trkpt>
      <trkpt lat="42.71218" lon="1.9434">
        <ele>1386.84</ele>
        <time>2014-03-31T14:15:37Z</time>
      </trkpt>
      <trkpt lat="42.71222" lon="1.94322">
        <ele>1386.36</ele>
        <time>2014-03-31T14:15:48Z</time>
      </trkpt>
      <trkpt lat="42.71229" lon="1.94293">
        <ele>1386.36</ele>
        <time>2014-03-31T14:15:59Z</time>
      </trkpt>
      <trkpt lat="42.7124" lon="1.94267">
        <ele>1385.88</ele>
        <time>2014-03-31T14:16:10Z</time>
      </trkpt>
      <trkpt lat="42.71256" lon="1.94249">
        <ele>1385.4</ele>
        <time>2014-03-31T14:16:20Z</time>
      </trkpt>
      <trkpt lat="42.71262" lon="1.94246">
        <ele>1385.4</ele>
        <time>2014-03-31T14:16:31Z</time>
      </trkpt>
      <trkpt lat="42.71261" lon="1.94245">
        <ele>1382.51</ele>
        <time>2014-03-31T14:16:45Z</time>
      </trkpt>
      <trkpt lat="42.7126" lon="1.94244">
        <ele>1382.03</ele>
        <time>2014-03-31T14:16:57Z</time>
      </trkpt>
      <trkpt lat="42.71264" lon="1.94246">
        <ele>1384.44</ele>
        <time>2014-03-31T14:17:15Z</time>
      </trkpt>
      <trkpt lat="42.7127" lon="1.94241">
        <ele>1383.47</ele>
        <time>2014-03-31T14:17:26Z</time>
      </trkpt>
      <trkpt lat="42.71269" lon="1.94235">
        <ele>1384.44</ele>
        <time>2014-03-31T14:17:36Z</time>
      </trkpt>
      <trkpt lat="42.71271" lon="1.94233">
        <ele>1382.51</ele>
        <time>2014-03-31T14:17:49Z</time>
      </trkpt>
      <trkpt lat="42.71271" lon="1.94233">
        <ele>1383.96</ele>
        <time>2014-03-31T14:18:06Z</time>
      </trkpt>
      <trkpt lat="42.71271" lon="1.94231">
        <ele>1383.47</ele>
        <time>2014-03-31T14:18:19Z</time>
      </trkpt>
      <trkpt lat="42.7127" lon="1.94231">
        <ele>1383.96</ele>
        <time>2014-03-31T14:18:29Z</time>
      </trkpt>
      <trkpt lat="42.71273" lon="1.94226">
        <ele>1384.44</ele>
        <time>2014-03-31T14:18:33Z</time>
      </trkpt>
      <trkpt lat="42.71278" lon="1.94221">
        <ele>1384.44</ele>
        <time>2014-03-31T14:18:37Z</time>
      </trkpt>
      <trkpt lat="42.71283" lon="1.94212">
        <ele>1387.8</ele>
        <time>2014-03-31T14:18:47Z</time>
      </trkpt>
      <trkpt lat="42.71293" lon="1.94201">
        <ele>1387.8</ele>
        <time>2014-03-31T14:18:58Z</time>
      </trkpt>
      <trkpt lat="42.71305" lon="1.94182">
        <ele>1385.4</ele>
        <time>2014-03-31T14:19:11Z</time>
      </trkpt>
      <trkpt lat="42.71313" lon="1.94172">
        <ele>1386.84</ele>
        <time>2014-03-31T14:19:19Z</time>
      </trkpt>
      <trkpt lat="42.71315" lon="1.94169">
        <ele>1386.84</ele>
        <time>2014-03-31T14:19:21Z</time>
      </trkpt>
      <trkpt lat="42.71316" lon="1.94168">
        <ele>1386.84</ele>
        <time>2014-03-31T14:19:22Z</time>
      </trkpt>
      <trkpt lat="42.71326" lon="1.9416">
        <ele>1386.36</ele>
        <time>2014-03-31T14:19:30Z</time>
      </trkpt>
      <trkpt lat="42.71329" lon="1.94157">
        <ele>1385.88</ele>
        <time>2014-03-31T14:19:35Z</time>
      </trkpt>
      <trkpt lat="42.71334" lon="1.94152">
        <ele>1386.36</ele>
        <time>2014-03-31T14:19:40Z</time>
      </trkpt>
      <trkpt lat="42.71335" lon="1.94151">
        <ele>1386.36</ele>
        <time>2014-03-31T14:19:41Z</time>
      </trkpt>
      <trkpt lat="42.71336" lon="1.9415">
        <ele>1386.36</ele>
        <time>2014-03-31T14:19:42Z</time>
      </trkpt>
      <trkpt lat="42.71338" lon="1.94149">
        <ele>1386.36</ele>
        <time>2014-03-31T14:19:43Z</time>
      </trkpt>
      <trkpt lat="42.71339" lon="1.94147">
        <ele>1386.36</ele>
        <time>2014-03-31T14:19:44Z</time>
      </trkpt>
      <trkpt lat="42.71341" lon="1.94145">
        <ele>1386.36</ele>
        <time>2014-03-31T14:19:45Z</time>
      </trkpt>
      <trkpt lat="42.71342" lon="1.94144">
        <ele>1385.88</ele>
        <time>2014-03-31T14:19:46Z</time>
      </trkpt>
      <trkpt lat="42.71344" lon="1.94143">
        <ele>1385.88</ele>
        <time>2014-03-31T14:19:47Z</time>
      </trkpt>
      <trkpt lat="42.71345" lon="1.94142">
        <ele>1386.36</ele>
        <time>2014-03-31T14:19:48Z</time>
      </trkpt>
      <trkpt lat="42.71347" lon="1.9414">
        <ele>1386.36</ele>
        <time>2014-03-31T14:19:49Z</time>
      </trkpt>
      <trkpt lat="42.71349" lon="1.94139">
        <ele>1386.36</ele>
        <time>2014-03-31T14:19:50Z</time>
      </trkpt>
      <trkpt lat="42.7135" lon="1.94137">
        <ele>1386.36</ele>
        <time>2014-03-31T14:19:51Z</time>
      </trkpt>
      <trkpt lat="42.71352" lon="1.94135">
        <ele>1386.84</ele>
        <time>2014-03-31T14:19:52Z</time>
      </trkpt>
      <trkpt lat="42.71353" lon="1.94133">
        <ele>1387.32</ele>
        <time>2014-03-31T14:19:53Z</time>
      </trkpt>
      <trkpt lat="42.71355" lon="1.94132">
        <ele>1387.32</ele>
        <time>2014-03-31T14:19:54Z</time>
      </trkpt>
      <trkpt lat="42.71356" lon="1.9413">
        <ele>1387.32</ele>
        <time>2014-03-31T14:19:55Z</time>
      </trkpt>
      <trkpt lat="42.71376" lon="1.94114">
        <ele>1387.8</ele>
        <time>2014-03-31T14:20:05Z</time>
      </trkpt>
      <trkpt lat="42.71377" lon="1.94112">
        <ele>1387.8</ele>
        <time>2014-03-31T14:20:06Z</time>
      </trkpt>
      <trkpt lat="42.71379" lon="1.94111">
        <ele>1387.32</ele>
        <time>2014-03-31T14:20:07Z</time>
      </trkpt>
      <trkpt lat="42.71381" lon="1.9411">
        <ele>1387.32</ele>
        <time>2014-03-31T14:20:08Z</time>
      </trkpt>
      <trkpt lat="42.71383" lon="1.94109">
        <ele>1386.84</ele>
        <time>2014-03-31T14:20:09Z</time>
      </trkpt>
      <trkpt lat="42.71385" lon="1.94107">
        <ele>1386.36</ele>
        <time>2014-03-31T14:20:10Z</time>
      </trkpt>
      <trkpt lat="42.71402" lon="1.94096">
        <ele>1382.51</ele>
        <time>2014-03-31T14:20:19Z</time>
      </trkpt>
      <trkpt lat="42.71403" lon="1.94095">
        <ele>1380.59</ele>
        <time>2014-03-31T14:20:28Z</time>
      </trkpt>
      <trkpt lat="42.71405" lon="1.94095">
        <ele>1379.63</ele>
        <time>2014-03-31T14:20:39Z</time>
      </trkpt>
      <trkpt lat="42.71407" lon="1.94094">
        <ele>1379.63</ele>
        <time>2014-03-31T14:20:48Z</time>
      </trkpt>
      <trkpt lat="42.71408" lon="1.94092">
        <ele>1379.15</ele>
        <time>2014-03-31T14:20:51Z</time>
      </trkpt>
      <trkpt lat="42.71409" lon="1.94091">
        <ele>1379.15</ele>
        <time>2014-03-31T14:20:52Z</time>
      </trkpt>
      <trkpt lat="42.7141" lon="1.9409">
        <ele>1379.15</ele>
        <time>2014-03-31T14:20:53Z</time>
      </trkpt>
      <trkpt lat="42.71425" lon="1.94067">
        <ele>1378.19</ele>
        <time>2014-03-31T14:21:04Z</time>
      </trkpt>
      <trkpt lat="42.71448" lon="1.94033">
        <ele>1374.82</ele>
        <time>2014-03-31T14:21:16Z</time>
      </trkpt>
      <trkpt lat="42.71457" lon="1.94024">
        <ele>1374.34</ele>
        <time>2014-03-31T14:21:20Z</time>
      </trkpt>
      <trkpt lat="42.71467" lon="1.94002">
        <ele>1373.86</ele>
        <time>2014-03-31T14:21:25Z</time>
      </trkpt>
      <trkpt lat="42.7147" lon="1.93999">
        <ele>1373.86</ele>
        <time>2014-03-31T14:21:26Z</time>
      </trkpt>
      <trkpt lat="42.71472" lon="1.93995">
        <ele>1373.86</ele>
        <time>2014-03-31T14:21:27Z</time>
      </trkpt>
      <trkpt lat="42.71476" lon="1.93991">
        <ele>1373.86</ele>
        <time>2014-03-31T14:21:28Z</time>
      </trkpt>
      <trkpt lat="42.71479" lon="1.93987">
        <ele>1373.86</ele>
        <time>2014-03-31T14:21:29Z</time>
      </trkpt>
      <trkpt lat="42.71482" lon="1.93983">
        <ele>1373.86</ele>
        <time>2014-03-31T14:21:30Z</time>
      </trkpt>
      <trkpt lat="42.71486" lon="1.93979">
        <ele>1373.86</ele>
        <time>2014-03-31T14:21:31Z</time>
      </trkpt>
      <trkpt lat="42.71488" lon="1.93975">
        <ele>1373.86</ele>
        <time>2014-03-31T14:21:32Z</time>
      </trkpt>
      <trkpt lat="42.71488" lon="1.93971">
        <ele>1373.38</ele>
        <time>2014-03-31T14:21:33Z</time>
      </trkpt>
      <trkpt lat="42.71491" lon="1.93968">
        <ele>1373.38</ele>
        <time>2014-03-31T14:21:34Z</time>
      </trkpt>
      <trkpt lat="42.71496" lon="1.9392">
        <ele>1372.42</ele>
        <time>2014-03-31T14:21:46Z</time>
      </trkpt>
      <trkpt lat="42.71507" lon="1.93897">
        <ele>1369.05</ele>
        <time>2014-03-31T14:21:52Z</time>
      </trkpt>
      <trkpt lat="42.71508" lon="1.93892">
        <ele>1368.57</ele>
        <time>2014-03-31T14:21:53Z</time>
      </trkpt>
      <trkpt lat="42.71508" lon="1.9389">
        <ele>1368.57</ele>
        <time>2014-03-31T14:21:54Z</time>
      </trkpt>
      <trkpt lat="42.71508" lon="1.93888">
        <ele>1368.09</ele>
        <time>2014-03-31T14:21:55Z</time>
      </trkpt>
      <trkpt lat="42.71506" lon="1.93878">
        <ele>1364.25</ele>
        <time>2014-03-31T14:22:04Z</time>
      </trkpt>
      <trkpt lat="42.71508" lon="1.93864">
        <ele>1362.81</ele>
        <time>2014-03-31T14:22:15Z</time>
      </trkpt>
      <trkpt lat="42.71508" lon="1.93856">
        <ele>1362.81</ele>
        <time>2014-03-31T14:22:23Z</time>
      </trkpt>
      <trkpt lat="42.7151" lon="1.9385">
        <ele>1362.33</ele>
        <time>2014-03-31T14:22:33Z</time>
      </trkpt>
      <trkpt lat="42.71511" lon="1.93846">
        <ele>1362.81</ele>
        <time>2014-03-31T14:22:42Z</time>
      </trkpt>
      <trkpt lat="42.71516" lon="1.93848">
        <ele>1361.84</ele>
        <time>2014-03-31T14:22:51Z</time>
      </trkpt>
      <trkpt lat="42.71518" lon="1.93846">
        <ele>1361.36</ele>
        <time>2014-03-31T14:23:00Z</time>
      </trkpt>
      <trkpt lat="42.71522" lon="1.93837">
        <ele>1360.88</ele>
        <time>2014-03-31T14:23:09Z</time>
      </trkpt>
      <trkpt lat="42.71522" lon="1.93833">
        <ele>1361.36</ele>
        <time>2014-03-31T14:23:12Z</time>
      </trkpt>
      <trkpt lat="42.71526" lon="1.9382">
        <ele>1362.33</ele>
        <time>2014-03-31T14:23:21Z</time>
      </trkpt>
      <trkpt lat="42.71533" lon="1.93811">
        <ele>1363.29</ele>
        <time>2014-03-31T14:23:27Z</time>
      </trkpt>
      <trkpt lat="42.71537" lon="1.93802">
        <ele>1363.29</ele>
        <time>2014-03-31T14:23:32Z</time>
      </trkpt>
      <trkpt lat="42.71541" lon="1.93797">
        <ele>1363.77</ele>
        <time>2014-03-31T14:23:35Z</time>
      </trkpt>
      <trkpt lat="42.71546" lon="1.93789">
        <ele>1364.73</ele>
        <time>2014-03-31T14:23:46Z</time>
      </trkpt>
      <trkpt lat="42.71548" lon="1.93784">
        <ele>1366.17</ele>
        <time>2014-03-31T14:23:55Z</time>
      </trkpt>
      <trkpt lat="42.71549" lon="1.93783">
        <ele>1366.65</ele>
        <time>2014-03-31T14:23:56Z</time>
      </trkpt>
      <trkpt lat="42.71551" lon="1.93782">
        <ele>1367.13</ele>
        <time>2014-03-31T14:23:57Z</time>
      </trkpt>
      <trkpt lat="42.71549" lon="1.93774">
        <ele>1370.02</ele>
        <time>2014-03-31T14:24:07Z</time>
      </trkpt>
      <trkpt lat="42.71549" lon="1.93771">
        <ele>1367.13</ele>
        <time>2014-03-31T14:24:22Z</time>
      </trkpt>
      <trkpt lat="42.71551" lon="1.93771">
        <ele>1367.61</ele>
        <time>2014-03-31T14:24:33Z</time>
      </trkpt>
      <trkpt lat="42.71552" lon="1.9377">
        <ele>1368.09</ele>
        <time>2014-03-31T14:24:34Z</time>
      </trkpt>
      <trkpt lat="42.71553" lon="1.9377">
        <ele>1368.09</ele>
        <time>2014-03-31T14:24:35Z</time>
      </trkpt>
      <trkpt lat="42.71556" lon="1.93766">
        <ele>1370.02</ele>
        <time>2014-03-31T14:24:40Z</time>
      </trkpt>
      <trkpt lat="42.71555" lon="1.93764">
        <ele>1370.98</ele>
        <time>2014-03-31T14:24:41Z</time>
      </trkpt>
      <trkpt lat="42.71554" lon="1.93762">
        <ele>1371.46</ele>
        <time>2014-03-31T14:24:42Z</time>
      </trkpt>
      <trkpt lat="42.71557" lon="1.93753">
        <ele>1376.26</ele>
        <time>2014-03-31T14:24:49Z</time>
      </trkpt>
      <trkpt lat="42.71558" lon="1.93748">
        <ele>1376.75</ele>
        <time>2014-03-31T14:24:53Z</time>
      </trkpt>
      <trkpt lat="42.71559" lon="1.93746">
        <ele>1377.23</ele>
        <time>2014-03-31T14:24:54Z</time>
      </trkpt>
      <trkpt lat="42.71562" lon="1.93728">
        <ele>1383.47</ele>
        <time>2014-03-31T14:25:07Z</time>
      </trkpt>
      <trkpt lat="42.71564" lon="1.93728">
        <ele>1384.92</ele>
        <time>2014-03-31T14:25:09Z</time>
      </trkpt>
      <trkpt lat="42.71564" lon="1.93724">
        <ele>1385.4</ele>
        <time>2014-03-31T14:25:12Z</time>
      </trkpt>
      <trkpt lat="42.71565" lon="1.93719">
        <ele>1386.84</ele>
        <time>2014-03-31T14:25:15Z</time>
      </trkpt>
      <trkpt lat="42.71564" lon="1.93714">
        <ele>1388.76</ele>
        <time>2014-03-31T14:25:19Z</time>
      </trkpt>
      <trkpt lat="42.71583" lon="1.93712">
        <ele>1377.23</ele>
        <time>2014-03-31T14:25:31Z</time>
      </trkpt>
      <trkpt lat="42.71584" lon="1.93711">
        <ele>1370.98</ele>
        <time>2014-03-31T14:25:43Z</time>
      </trkpt>
      <trkpt lat="42.71587" lon="1.93712">
        <ele>1367.13</ele>
        <time>2014-03-31T14:25:58Z</time>
      </trkpt>
      <trkpt lat="42.71587" lon="1.93711">
        <ele>1366.65</ele>
        <time>2014-03-31T14:26:08Z</time>
      </trkpt>
      <trkpt lat="42.71588" lon="1.93711">
        <ele>1366.65</ele>
        <time>2014-03-31T14:26:16Z</time>
      </trkpt>
      <trkpt lat="42.71588" lon="1.93705">
        <ele>1367.13</ele>
        <time>2014-03-31T14:26:21Z</time>
      </trkpt>
      <trkpt lat="42.71589" lon="1.93704">
        <ele>1367.61</ele>
        <time>2014-03-31T14:26:22Z</time>
      </trkpt>
      <trkpt lat="42.7159" lon="1.93702">
        <ele>1368.09</ele>
        <time>2014-03-31T14:26:23Z</time>
      </trkpt>
      <trkpt lat="42.71603" lon="1.93689">
        <ele>1372.42</ele>
        <time>2014-03-31T14:26:30Z</time>
      </trkpt>
      <trkpt lat="42.71604" lon="1.93687">
        <ele>1372.42</ele>
        <time>2014-03-31T14:26:31Z</time>
      </trkpt>
      <trkpt lat="42.7161" lon="1.93683">
        <ele>1371.94</ele>
        <time>2014-03-31T14:26:33Z</time>
      </trkpt>
      <trkpt lat="42.71612" lon="1.9368">
        <ele>1371.46</ele>
        <time>2014-03-31T14:26:34Z</time>
      </trkpt>
      <trkpt lat="42.71614" lon="1.93678">
        <ele>1370.98</ele>
        <time>2014-03-31T14:26:35Z</time>
      </trkpt>
      <trkpt lat="42.71617" lon="1.93677">
        <ele>1370.98</ele>
        <time>2014-03-31T14:26:36Z</time>
      </trkpt>
      <trkpt lat="42.71618" lon="1.93674">
        <ele>1370.5</ele>
        <time>2014-03-31T14:26:37Z</time>
      </trkpt>
      <trkpt lat="42.71619" lon="1.93672">
        <ele>1369.54</ele>
        <time>2014-03-31T14:26:38Z</time>
      </trkpt>
      <trkpt lat="42.71621" lon="1.9367">
        <ele>1369.05</ele>
        <time>2014-03-31T14:26:39Z</time>
      </trkpt>
      <trkpt lat="42.71623" lon="1.93667">
        <ele>1368.09</ele>
        <time>2014-03-31T14:26:40Z</time>
      </trkpt>
      <trkpt lat="42.71624" lon="1.93665">
        <ele>1367.61</ele>
        <time>2014-03-31T14:26:41Z</time>
      </trkpt>
      <trkpt lat="42.71625" lon="1.93663">
        <ele>1366.65</ele>
        <time>2014-03-31T14:26:42Z</time>
      </trkpt>
      <trkpt lat="42.7164" lon="1.9363">
        <ele>1365.21</ele>
        <time>2014-03-31T14:26:54Z</time>
      </trkpt>
      <trkpt lat="42.71658" lon="1.93601">
        <ele>1363.77</ele>
        <time>2014-03-31T14:27:06Z</time>
      </trkpt>
      <trkpt lat="42.7168" lon="1.93571">
        <ele>1362.81</ele>
        <time>2014-03-31T14:27:17Z</time>
      </trkpt>
      <trkpt lat="42.71703" lon="1.93529">
        <ele>1359.44</ele>
        <time>2014-03-31T14:27:29Z</time>
      </trkpt>
      <trkpt lat="42.71704" lon="1.93521">
        <ele>1358</ele>
        <time>2014-03-31T14:27:31Z</time>
      </trkpt>
      <trkpt lat="42.71706" lon="1.93518">
        <ele>1357.52</ele>
        <time>2014-03-31T14:27:32Z</time>
      </trkpt>
      <trkpt lat="42.71707" lon="1.93515">
        <ele>1357.04</ele>
        <time>2014-03-31T14:27:33Z</time>
      </trkpt>
      <trkpt lat="42.71715" lon="1.93489">
        <ele>1353.19</ele>
        <time>2014-03-31T14:27:40Z</time>
      </trkpt>
      <trkpt lat="42.71716" lon="1.93486">
        <ele>1352.23</ele>
        <time>2014-03-31T14:27:41Z</time>
      </trkpt>
      <trkpt lat="42.71716" lon="1.93483">
        <ele>1351.27</ele>
        <time>2014-03-31T14:27:42Z</time>
      </trkpt>
      <trkpt lat="42.71717" lon="1.93481">
        <ele>1350.79</ele>
        <time>2014-03-31T14:27:43Z</time>
      </trkpt>
      <trkpt lat="42.71718" lon="1.93479">
        <ele>1349.83</ele>
        <time>2014-03-31T14:27:44Z</time>
      </trkpt>
      <trkpt lat="42.71718" lon="1.93476">
        <ele>1348.87</ele>
        <time>2014-03-31T14:27:45Z</time>
      </trkpt>
      <trkpt lat="42.71719" lon="1.93474">
        <ele>1347.91</ele>
        <time>2014-03-31T14:27:46Z</time>
      </trkpt>
      <trkpt lat="42.7172" lon="1.93473">
        <ele>1347.43</ele>
        <time>2014-03-31T14:27:47Z</time>
      </trkpt>
      <trkpt lat="42.71721" lon="1.93471">
        <ele>1346.94</ele>
        <time>2014-03-31T14:27:48Z</time>
      </trkpt>
      <trkpt lat="42.71722" lon="1.9347">
        <ele>1346.46</ele>
        <time>2014-03-31T14:27:49Z</time>
      </trkpt>
      <trkpt lat="42.71724" lon="1.93469">
        <ele>1345.98</ele>
        <time>2014-03-31T14:27:50Z</time>
      </trkpt>
      <trkpt lat="42.71725" lon="1.93467">
        <ele>1345.5</ele>
        <time>2014-03-31T14:27:51Z</time>
      </trkpt>
      <trkpt lat="42.71727" lon="1.93465">
        <ele>1345.5</ele>
        <time>2014-03-31T14:27:52Z</time>
      </trkpt>
      <trkpt lat="42.71729" lon="1.93464">
        <ele>1345.5</ele>
        <time>2014-03-31T14:27:53Z</time>
      </trkpt>
      <trkpt lat="42.7173" lon="1.93463">
        <ele>1345.5</ele>
        <time>2014-03-31T14:27:54Z</time>
      </trkpt>
      <trkpt lat="42.71731" lon="1.93463">
        <ele>1345.5</ele>
        <time>2014-03-31T14:27:55Z</time>
      </trkpt>
      <trkpt lat="42.71732" lon="1.93467">
        <ele>1344.54</ele>
        <time>2014-03-31T14:28:01Z</time>
      </trkpt>
      <trkpt lat="42.71733" lon="1.93468">
        <ele>1344.06</ele>
        <time>2014-03-31T14:28:02Z</time>
      </trkpt>
      <trkpt lat="42.71734" lon="1.93468">
        <ele>1343.58</ele>
        <time>2014-03-31T14:28:08Z</time>
      </trkpt>
      <trkpt lat="42.71735" lon="1.93463">
        <ele>1341.66</ele>
        <time>2014-03-31T14:28:14Z</time>
      </trkpt>
      <trkpt lat="42.71735" lon="1.93459">
        <ele>1339.73</ele>
        <time>2014-03-31T14:28:23Z</time>
      </trkpt>
      <trkpt lat="42.71735" lon="1.93457">
        <ele>1338.29</ele>
        <time>2014-03-31T14:28:34Z</time>
      </trkpt>
      <trkpt lat="42.71736" lon="1.93457">
        <ele>1338.77</ele>
        <time>2014-03-31T14:28:45Z</time>
      </trkpt>
      <trkpt lat="42.71736" lon="1.93456">
        <ele>1338.29</ele>
        <time>2014-03-31T14:28:55Z</time>
      </trkpt>
      <trkpt lat="42.71737" lon="1.93453">
        <ele>1338.77</ele>
        <time>2014-03-31T14:29:02Z</time>
      </trkpt>
      <trkpt lat="42.7174" lon="1.93447">
        <ele>1340.22</ele>
        <time>2014-03-31T14:29:11Z</time>
      </trkpt>
      <trkpt lat="42.71741" lon="1.93445">
        <ele>1340.22</ele>
        <time>2014-03-31T14:29:12Z</time>
      </trkpt>
      <trkpt lat="42.71741" lon="1.93415">
        <ele>1338.77</ele>
        <time>2014-03-31T14:29:23Z</time>
      </trkpt>
      <trkpt lat="42.71742" lon="1.93409">
        <ele>1337.81</ele>
        <time>2014-03-31T14:29:24Z</time>
      </trkpt>
      <trkpt lat="42.71753" lon="1.93353">
        <ele>1331.56</ele>
        <time>2014-03-31T14:29:33Z</time>
      </trkpt>
      <trkpt lat="42.71754" lon="1.93351">
        <ele>1331.56</ele>
        <time>2014-03-31T14:29:34Z</time>
      </trkpt>
      <trkpt lat="42.71756" lon="1.93349">
        <ele>1331.08</ele>
        <time>2014-03-31T14:29:35Z</time>
      </trkpt>
      <trkpt lat="42.71757" lon="1.93348">
        <ele>1331.08</ele>
        <time>2014-03-31T14:29:36Z</time>
      </trkpt>
      <trkpt lat="42.71758" lon="1.93346">
        <ele>1331.08</ele>
        <time>2014-03-31T14:29:37Z</time>
      </trkpt>
      <trkpt lat="42.7176" lon="1.93345">
        <ele>1331.08</ele>
        <time>2014-03-31T14:29:38Z</time>
      </trkpt>
      <trkpt lat="42.71761" lon="1.93344">
        <ele>1330.6</ele>
        <time>2014-03-31T14:29:39Z</time>
      </trkpt>
      <trkpt lat="42.71763" lon="1.93342">
        <ele>1331.08</ele>
        <time>2014-03-31T14:29:40Z</time>
      </trkpt>
      <trkpt lat="42.71765" lon="1.93341">
        <ele>1331.08</ele>
        <time>2014-03-31T14:29:41Z</time>
      </trkpt>
      <trkpt lat="42.71767" lon="1.93339">
        <ele>1331.08</ele>
        <time>2014-03-31T14:29:42Z</time>
      </trkpt>
      <trkpt lat="42.71769" lon="1.93337">
        <ele>1330.6</ele>
        <time>2014-03-31T14:29:43Z</time>
      </trkpt>
      <trkpt lat="42.71771" lon="1.93329">
        <ele>1330.12</ele>
        <time>2014-03-31T14:29:48Z</time>
      </trkpt>
      <trkpt lat="42.71773" lon="1.93328">
        <ele>1331.08</ele>
        <time>2014-03-31T14:29:52Z</time>
      </trkpt>
      <trkpt lat="42.71775" lon="1.93324">
        <ele>1330.6</ele>
        <time>2014-03-31T14:29:56Z</time>
      </trkpt>
      <trkpt lat="42.7178" lon="1.93312">
        <ele>1330.6</ele>
        <time>2014-03-31T14:30:05Z</time>
      </trkpt>
      <trkpt lat="42.7178" lon="1.9331">
        <ele>1330.6</ele>
        <time>2014-03-31T14:30:07Z</time>
      </trkpt>
      <trkpt lat="42.71781" lon="1.93303">
        <ele>1331.08</ele>
        <time>2014-03-31T14:30:11Z</time>
      </trkpt>
      <trkpt lat="42.71783" lon="1.93289">
        <ele>1330.6</ele>
        <time>2014-03-31T14:30:18Z</time>
      </trkpt>
      <trkpt lat="42.71787" lon="1.93281">
        <ele>1330.6</ele>
        <time>2014-03-31T14:30:23Z</time>
      </trkpt>
      <trkpt lat="42.71786" lon="1.93279">
        <ele>1330.6</ele>
        <time>2014-03-31T14:30:34Z</time>
      </trkpt>
      <trkpt lat="42.71786" lon="1.93276">
        <ele>1329.64</ele>
        <time>2014-03-31T14:30:48Z</time>
      </trkpt>
      <trkpt lat="42.71784" lon="1.93276">
        <ele>1329.64</ele>
        <time>2014-03-31T14:30:59Z</time>
      </trkpt>
      <trkpt lat="42.71786" lon="1.93277">
        <ele>1327.72</ele>
        <time>2014-03-31T14:31:14Z</time>
      </trkpt>
      <trkpt lat="42.71789" lon="1.93275">
        <ele>1329.64</ele>
        <time>2014-03-31T14:31:21Z</time>
      </trkpt>
      <trkpt lat="42.71797" lon="1.93273">
        <ele>1330.12</ele>
        <time>2014-03-31T14:31:29Z</time>
      </trkpt>
      <trkpt lat="42.71799" lon="1.93271">
        <ele>1330.6</ele>
        <time>2014-03-31T14:31:31Z</time>
      </trkpt>
      <trkpt lat="42.71803" lon="1.93264">
        <ele>1330.12</ele>
        <time>2014-03-31T14:31:42Z</time>
      </trkpt>
      <trkpt lat="42.71801" lon="1.93256">
        <ele>1329.16</ele>
        <time>2014-03-31T14:31:52Z</time>
      </trkpt>
      <trkpt lat="42.71797" lon="1.93256">
        <ele>1329.64</ele>
        <time>2014-03-31T14:32:07Z</time>
      </trkpt>
      <trkpt lat="42.71796" lon="1.93258">
        <ele>1329.16</ele>
        <time>2014-03-31T14:32:14Z</time>
      </trkpt>
      <trkpt lat="42.71796" lon="1.93259">
        <ele>1327.72</ele>
        <time>2014-03-31T14:32:24Z</time>
      </trkpt>
      <trkpt lat="42.71798" lon="1.93251">
        <ele>1327.24</ele>
        <time>2014-03-31T14:32:34Z</time>
      </trkpt>
      <trkpt lat="42.71796" lon="1.93242">
        <ele>1329.16</ele>
        <time>2014-03-31T14:32:45Z</time>
      </trkpt>
      <trkpt lat="42.71803" lon="1.9324">
        <ele>1332.04</ele>
        <time>2014-03-31T14:32:55Z</time>
      </trkpt>
      <trkpt lat="42.71804" lon="1.93239">
        <ele>1332.04</ele>
        <time>2014-03-31T14:32:56Z</time>
      </trkpt>
      <trkpt lat="42.71809" lon="1.93238">
        <ele>1336.37</ele>
        <time>2014-03-31T14:33:07Z</time>
      </trkpt>
      <trkpt lat="42.71816" lon="1.93239">
        <ele>1338.77</ele>
        <time>2014-03-31T14:33:16Z</time>
      </trkpt>
      <trkpt lat="42.71823" lon="1.93234">
        <ele>1341.66</ele>
        <time>2014-03-31T14:33:28Z</time>
      </trkpt>
      <trkpt lat="42.71829" lon="1.93223">
        <ele>1343.58</ele>
        <time>2014-03-31T14:33:41Z</time>
      </trkpt>
      <trkpt lat="42.71833" lon="1.93216">
        <ele>1345.02</ele>
        <time>2014-03-31T14:33:52Z</time>
      </trkpt>
      <trkpt lat="42.71833" lon="1.93212">
        <ele>1345.98</ele>
        <time>2014-03-31T14:33:56Z</time>
      </trkpt>
      <trkpt lat="42.71838" lon="1.93203">
        <ele>1347.43</ele>
        <time>2014-03-31T14:34:08Z</time>
      </trkpt>
      <trkpt lat="42.7184" lon="1.93202">
        <ele>1347.43</ele>
        <time>2014-03-31T14:34:10Z</time>
      </trkpt>
      <trkpt lat="42.71843" lon="1.93198">
        <ele>1347.43</ele>
        <time>2014-03-31T14:34:15Z</time>
      </trkpt>
      <trkpt lat="42.71844" lon="1.93198">
        <ele>1347.43</ele>
        <time>2014-03-31T14:34:17Z</time>
      </trkpt>
      <trkpt lat="42.7185" lon="1.93198">
        <ele>1349.35</ele>
        <time>2014-03-31T14:34:22Z</time>
      </trkpt>
      <trkpt lat="42.71858" lon="1.93199">
        <ele>1351.27</ele>
        <time>2014-03-31T14:34:33Z</time>
      </trkpt>
      <trkpt lat="42.71859" lon="1.93201">
        <ele>1350.79</ele>
        <time>2014-03-31T14:34:46Z</time>
      </trkpt>
      <trkpt lat="42.71859" lon="1.93198">
        <ele>1350.79</ele>
        <time>2014-03-31T14:34:57Z</time>
      </trkpt>
      <trkpt lat="42.71859" lon="1.93197">
        <ele>1352.23</ele>
        <time>2014-03-31T14:35:07Z</time>
      </trkpt>
      <trkpt lat="42.71858" lon="1.93196">
        <ele>1351.27</ele>
        <time>2014-03-31T14:35:24Z</time>
      </trkpt>
      <trkpt lat="42.71862" lon="1.93196">
        <ele>1348.87</ele>
        <time>2014-03-31T14:35:39Z</time>
      </trkpt>
      <trkpt lat="42.71861" lon="1.93194">
        <ele>1354.15</ele>
        <time>2014-03-31T14:36:09Z</time>
      </trkpt>
    </trkseg>
  </trk>
</gpx>